     2              OBSERVATION DATA    GPS                 RINEX VERSION / TYPE
ASRINEXO V2.2.0 UX USGS 15-AUG-94 11:36                     PGM / RUN BY / DATE
                                                            COMMENT
Original Marker Name: 2250                                  COMMENT
Campaign Name: USGS-Mexicali                                COMMENT
4-Character Station Name: O225                              COMMENT
6-Character Antenna Code: ASHL12                            COMMENT
Vertical Measurement Point: BBE                             COMMENT
Vertical Offset to Rinex Ref. Point: 0.0595                 COMMENT
Radial Measurement Point: EGP                               COMMENT
Radial Offset to Rinex Ref. Point: 0.1424                   COMMENT
Antenna Height from Field Measurement: 1.4610 m             COMMENT
Additional Antenna Identification Info.:                    COMMENT
Original Ashtech L1/L2 (700228ABC)                          COMMENT
Original XYZ: -2285467.8200 -4877648.1300 3404113.0400      COMMENT
New XYZ position is based on association with SCEC monument COMMENT
E1C8U9K8+0011. Position of that monument is believed to be  COMMENT
valid to within 1 m horizontally; vertical accuracy         COMMENT
should be no worse than 3-times this value.                 COMMENT
                                                            COMMENT
Revised Rinex header created by UCSD GPS archive for        COMMENT
GSAC on 08-Jul-2000 (2000:190) 01:38:29 GMT                 COMMENT
For assistance contact dagnew@ucsd.edu                      COMMENT
or anderson@python.ucsd.edu                                 COMMENT
                                                            COMMENT
OFFSET 225                                                  MARKER NAME
                                                            MARKER NUMBER
CHS US GEOLOGICAL SURVEY                                    OBSERVER / AGENCY
765 ASHTECH L-XII 5E                                        REC # / TYPE / VERS
718 ASHTECH GEODETIC L                                      ANT # / TYPE
 -2333372.6178 -4842881.1752  3421208.0723                  APPROX POSITION XYZ
        1.3945        0.0000        0.0000                  ANTENNA: DELTA H/E/N
     1     2     0                                          WAVELENGTH FACT L1/2
     3    C1    L1    L2                                    # / TYPES OF OBSERV
    30                                                      INTERVAL
  1991     3    15    22    30    0.000000                  TIME OF FIRST OBS
  1991     3    17    20     4   30.000000                  TIME OF LAST OBS
                                                            END OF HEADER
 91  3 15 22 30  0.0000000  0  4 18 19 11  2
  28617885.257      111796.785 9     87114.004 9
  29120092.472      -68357.717 7    -53265.144 9
  31634625.100     -165351.890 6   -128845.775 4
  32121495.843     -264328.987 5   -205970.951 3
 91  3 15 22 30 30.0000000  0  4 18 19 11  2
  20527973.177       23183.150 9     18064.466 9
  21023112.199      -13338.364 7    -10392.778 9
  23528090.746      -62685.935 6    -48846.714 3
  24008974.336      -93667.219 6    -72987.885 4
 91  3 15 22 31  0.0000000  0  4 18 19 11  2
  20532576.196       47383.199 9     36921.599 9
  21020605.929      -26560.610 7    -20695.797 9
  23516080.459     -125806.469 6    -98031.820 5
  23990932.521     -188468.043 5   -146858.783 4
 91  3 15 22 31 30.0000000  0  4 18 19 11  2
  20537322.515       72322.414 9     56354.697 9
  21018162.934      -39362.991 7    -30671.660 9
  23504195.186     -188262.424 6   -146698.564 3
  23972975.846     -282812.604 5   -220374.164 4
 91  3 15 22 32  0.0000000  0  4 18 19 11  2
  20542207.634       97995.022 9     76359.265 9
  21015801.169      -51751.321 7    -40324.871 9
  23492437.317     -250056.627 6   -194849.639 2
  23955110.924     -376705.122 5   -293537.301 3
 91  3 15 22 32 30.0000000  0  4 18 19 11  2
  20547236.944      124419.510 9     96949.717 9
  21013530.232      -63707.377 7    -49641.263 9
  23480810.481     -311167.952 6   -242468.613 4
  23937340.721     -470126.341 5   -366333.187 2
 91  3 15 22 33  0.0000000  0  4 18 19 11  2
  20552406.257      151577.488 9    118111.726 9
  21011334.855      -75249.664 7    -58635.230 9
  23469306.843     -371611.992 6   -289567.618 4
  23919640.669     -563093.228 5   -438775.101 4
 91  3 15 22 33 30.0000000  0  4 18 19 11  2
  20557710.198      179447.952 8    139828.916 9
  21009211.129      -86398.872 7    -67322.898 9
  23457924.311     -431406.173 6   -336160.248 4
  23902037.169     -655625.045 5   -510877.957 4
 91  3 15 22 34  0.0000000  0  4 18 19 11  2
  20563145.731      208012.081 8    162086.632 9
  21007160.240      -97173.704 7    -75718.847 9
  23446664.715     -490567.022 6   -382259.383 2
  23884502.911     -747739.810 5   -582655.868 6
 91  3 15 22 34 30.0000000  0  4 18 19 11  2
  20568712.281      237263.098 9    184879.590 9
  21005177.720     -107581.642 7    -83828.889 9
  23435532.820     -549098.386 6   -427867.993 4
  23867061.278     -839443.621 5   -654113.556 2
 91  3 15 22 35  0.0000000  0  4 18 19 11  2
  20574407.735      267186.691 9    208196.631 9
  21003266.241     -117636.499 7    -91663.809 9
  23424510.948     -607011.345 6   -472994.738 2
  23849684.700     -930748.704 5   -725260.524 2
 91  3 15 22 35 30.0000000  0  4 18 19 11  2
  20580227.907      297776.043 9    232032.445 9
  21001425.208     -127344.694 7    -99228.589 9
  23413608.401     -664310.131 6   -517642.925 4
  23832378.587    -1021660.212 5   -796100.858 3
 91  3 15 22 36  0.0000000  0  4 18 19 11  2
  20586171.887      329013.215 8    256373.057 9
  20999633.350     -136724.555 8   -106537.535 9
  23402816.174     -721009.660 6   -561824.151 3
  23815154.314    -1112195.484 6   -866647.974 5
 91  3 15 22 36 30.0000000  0  4 18 19 11  2
  20592237.286      360890.780 8    281212.677 9
  20997917.348     -145783.112 7   -113596.109 9
  23392139.066     -777114.336 6   -605541.869 4
  23797994.486    -1202360.400 6   -936906.521 2
 91  3 15 22 37  0.0000000  0  4 18 19 11  2
  20598422.010      393395.821 8    306541.234 9
  20996247.798     -154533.461 7   -120414.534 9
  23381574.966     -832634.838 6   -648804.419 4
  23780905.418    -1292166.632 6  -1006885.548 4
 91  3 15 22 37 30.0000000  0  4 18 19 11  2
  20604726.651      426533.922 8    332363.093 9
  20994643.303     -162969.632 7   -126988.133 9
  23371120.907     -887562.165 6   -691604.715 3
  23763883.812    -1381607.683 6  -1076580.028 2
 91  3 15 22 38  0.0000000  0  4 18 19 11  2
  20611153.898      460293.658 8    358669.350 9
  20993097.284     -171102.759 7   -133325.607 9
  23360777.169     -941904.777 6   -733949.416 3
  23746933.840    -1470693.110 6  -1145997.364 4
 91  3 15 22 38 30.0000000  0  4 18 19 11  2
  20617695.967      494668.488 9    385454.883 9
  20991604.016     -178938.900 7   -139431.654 9
  23350552.755     -995666.192 6   -775841.232 3
  23730045.624    -1559427.859 6  -1215141.449 4
 91  3 15 22 39  0.0000000  0  4 18 19 11  2
  20624350.765      529660.153 8    412721.068 9
  20990166.206     -186476.799 7   -145305.316 9
  23340430.860    -1048842.073 6   -817276.774 3
  23713227.575    -1647808.844 6  -1284009.872 3
 91  3 15 22 39 30.0000000  0  4 18 19 11  2
  20631124.573      565248.255 8    440452.012 9
  20988784.166     -193736.593 7   -150962.256 9
  23330421.991    -1101450.261 6   -858269.983 5
  23696476.378    -1735855.778 6  -1352618.011 3
 91  3 15 22 40  0.0000000  0  4 18 19 11  2
  20638011.999      601437.706 8    468651.539 9
  20987458.787     -200713.096 7   -156398.469 9
  23320516.236    -1153482.530 6   -898814.394 5
  23679779.731    -1823561.944 6  -1420960.572 4
 91  3 15 22 40 30.0000000  0  4 18 19 11  2
  20645009.763      638217.171 9    497310.819 9
  20986184.363     -207416.680 7   -161622.005 9
  23310725.617    -1204947.207 6   -938916.543 4
  23663152.936    -1910937.249 6  -1489045.368 4
 91  3 15 22 41  0.0000000  0  4 18 19 11  2
  20652119.331      675573.058 8    526419.259 9
  20984950.423     -213861.254 7   -166643.727 9
  23301039.926    -1255855.275 6   -978584.975 3
  23646590.010    -1997994.039 5  -1556881.972 4
 91  3 15 22 41 30.0000000  0  4 18 19 11  2
  20659337.143      713503.800 8    555975.630 9
  20983778.239     -220047.522 7   -171464.160 9
  23291455.865    -1306205.141 6  -1017818.441 3
  23630081.336    -2084732.574 5  -1624470.592 5
 91  3 15 22 42  0.0000000  0  4 18 19 11  2
  20666665.868      752017.876 8    585986.542 9
  20982652.508     -225966.828 7   -176076.576 9
  23281980.012    -1355985.630 6  -1056608.225 4
  23613638.624    -2171142.876 5  -1691803.470 4
 91  3 15 22 42 30.0000000  0  4 18 19 11  2
  20674103.412      791096.310 9    616437.222 9
  20981570.263     -231637.857 7   -180495.523 9
  23272614.498    -1405212.855 6  -1094966.910 4
  23597256.168    -2257242.537 5  -1758894.298 3
 91  3 15 22 43  0.0000000  0  4 18 19 11  2
  20681645.291      830732.876 9    647322.806 9
  20980536.879     -237066.400 7   -184725.533 9
  23263353.022    -1453889.991 6  -1132896.945 5
  23580924.666    -2343036.406 5  -1825746.875 5
 91  3 15 22 43 30.0000000  0  4 18 19 11  2
  20689294.507      870923.507 8    678640.140 9
  20979557.154     -242255.878 7   -188769.251 9
  23254194.659    -1502017.660 6  -1170398.853 5
  23564660.033    -2428526.427 5  -1892362.681 5
 91  3 15 22 44  0.0000000  0  4 18 19 11  2
  20697048.930      911667.792 8    710388.884 9
  20978610.113     -247206.469 7   -192626.822 9
  23245140.317    -1549594.669 6  -1207471.651 3
  23548453.248    -2513712.099 6  -1958741.347 3
 91  3 15 22 44 30.0000000  0  4 18 19 11  2
  20704905.594      952959.120 8    742563.889 9
  20977711.340     -251924.453 7   -196303.148 9
  23236187.326    -1596624.234 6  -1244117.884 4
  23532295.027    -2598598.855 6  -2024887.085 5
 91  3 15 22 45  0.0000000  0  4 18 19 11  2
  20712867.186      994796.516 9    775164.403 9
  20976856.331     -256410.218 7   -199798.522 9
  23227345.545    -1643103.940 6  -1280335.671 4
  23516197.673    -2683185.811 6  -2090799.218 4
 91  3 15 22 45 30.0000000  0  4 18 19 11  2
  20720931.595     1037179.539 8    808190.082 9
  20976050.480     -260663.233 7   -203112.535 9
  23218606.301    -1689031.080 6  -1316122.892 3
  23500164.168    -2767472.038 6  -2156476.524 4
 91  3 15 22 46  0.0000000  0  4 18 19 11  2
  20729099.448     1080105.942 9    841639.167 9
  20975281.519     -264685.561 7   -206246.789 9
  23209969.874    -1734405.534 6  -1351479.445 5
  23484175.651    -2851458.207 6  -2221920.521 4
 91  3 15 22 46 30.0000000  0  4 18 19 11  2
  20737371.323     1123571.465 8    875508.344 9
  20974562.308     -268480.326 7   -209203.727 9
  23201440.173    -1779228.390 6  -1386406.180 5
  23468250.372    -2935146.553 6  -2287132.436 4
 91  3 15 22 47  0.0000000  0  4 18 19 11  2
  20745742.123     1167572.133 8    909794.514 9
  20973882.081     -272051.392 7   -211986.347 9
  23193016.900    -1823500.937 6  -1420904.105 4
  23452383.256    -3018540.040 6  -2352114.572 5
 91  3 15 22 47 30.0000000  0  4 18 19 11  2
  20754218.461     1212100.989 9    944492.260 9
  20973245.026     -275404.851 7   -214599.408 9
  23184701.261    -1867226.895 6  -1454976.144 5
  23436561.405    -3101643.942 6  -2416870.588 4
 91  3 15 22 48  0.0000000  0  5 18 19 11 16  2
  20762792.224     1257154.644 9    979598.941 9
  20972651.736     -278543.459 7   -217045.042 9
  23176478.265    -1910407.691 6  -1488623.368 4
  24674124.164      -51765.219 5    -40336.440 4
  23420808.518    -3184461.198 6  -2481403.732 4
 91  3 15 22 48 30.0000000  0  5 18 19 11 16  2
  20771464.616     1302734.969 9   1015116.009 9
  20972086.035     -281464.975 7   -219321.529 9
  23168363.774    -1953038.049 6  -1521841.697 5
  24664033.139     -104802.450 5    -81664.049 2
  23405103.880    -3266987.737 6  -2545710.351 3
 91  3 15 22 49  0.0000000  0  5 18 19 11 16  2
  20780239.842     1348841.526 9   1051043.127 9
  20971580.275     -284168.986 7   -221428.521 9
  23160360.807    -1995115.022 6  -1554628.819 4
  24654039.871     -157315.289 5   -122583.066 3
  23389457.718    -3349221.706 6  -2609788.990 5
 91  3 15 22 49 30.0000000  0  5 18 19 11 16  2
  20789114.290     1395472.653 9   1087379.012 9
  20971105.403     -286656.327 7   -223366.688 9
  23152456.190    -2036637.667 6  -1586984.001 3
  24644143.713     -209303.487 5   -163093.274 2
  23373860.714    -3431163.769 6  -2673640.171 3
 91  3 15 22 50  0.0000000  0  5 18 19 11 16  2
  20798083.178     1442620.367 9   1124117.424 9
  20970673.405     -288934.201 7   -225141.626 9
  23144660.689    -2077611.195 6  -1618911.324 6
  24634350.092     -260772.563 4   -203198.949 3
  23358317.369    -3512820.377 5  -2737268.442 3
 91  3 15 22 50 30.0000000  0  5 18 19 11 16  2
  20807154.011     1490281.437 9   1161255.859 9
  20970278.280     -291005.035 7   -226755.237 9
  23136968.302    -2118036.018 7  -1650411.091 5
  24624644.019     -311724.243 4   -242901.474 3
  23342840.596    -3594192.984 5  -2800675.881 3
 91  3 15 22 51  0.0000000  0  5 18 19 11 16  2
  20816323.454     1538460.150 9   1198797.657 9
  20969923.028     -292864.273 7   -228203.967 9
  23129380.860    -2157905.140 6  -1681477.820 5
  24615058.754     -362152.433 4   -282196.085 3
  23327410.869    -3675276.013 5  -2863857.671 4
 91  3 15 22 51 30.0000000  0  5 18 19 11 16  2
  20825586.745     1587145.486 8   1236734.200 9
  20969607.947     -294520.868 7   -229494.792 9
  23121899.847    -2197225.853 6  -1712117.239 5
  24605556.221     -412065.804 5   -321089.553 3
  23312030.614    -3756078.169 5  -2926820.607 4
 91  3 15 22 52  0.0000000  0  5 18 19 11 16  2
  20834948.665     1636339.938 9   1275067.451 9
  20969326.737     -295972.390 8   -230625.818 9
  23114521.057    -2235993.533 6  -1742325.717 5
  24596158.336     -461459.866 5   -359578.349 3
  23296706.722    -3836595.924 5  -2989561.936 4
 91  3 15 22 52 30.0000000  0  5 18 19 11 16  2
  20844403.821     1686034.486 9   1313790.403 9
  20969093.497     -297226.495 7   -231603.005 9
  23107249.883    -2274213.996 6  -1772107.781 3
  24586862.971     -510341.616 5   -397667.950 4
  23281440.993    -3916836.789 5  -3052087.494 5
 91  3 15 22 53  0.0000000  0  5 18 19 11 16  2
  20853954.901     1736221.993 8   1352897.472 9
  20968890.534     -298289.745 7   -232431.488 9
  23100077.948    -2311891.748 6  -1801466.968 4
  24577653.340     -558715.729 5   -435361.977 3
  23266221.122    -3996806.039 6  -3114401.417 5
 91  3 15 22 53 30.0000000  0  5 18 19 11 16  2
  20863600.125     1786901.912 8   1392388.236 9
  20968723.256     -299161.802 7   -233110.974 9
  23093012.739    -2349024.121 7  -1830401.174 5
  24568545.949     -606581.433 5   -472659.829 2
  23251054.039    -4076502.807 6  -3176502.545 5
 91  3 15 22 54  0.0000000  0  5 18 19 11 16  2
  20873338.586     1838075.965 9   1432264.031 9
  20968595.241     -299840.151 7   -233639.533 9
  23086051.254    -2385606.894 7  -1858907.112 5
  24559536.280     -653934.593 4   -509558.303 3
  23235941.784    -4155923.596 6  -3238389.083 5
 91  3 15 22 54 30.0000000  0  5 18 19 11 16  2
  20883166.077     1889728.065 9   1472512.349 9
  20968497.520     -300339.623 8   -234028.701 9
  23079188.118    -2421653.070 7  -1886994.909 5
  24550620.754     -700789.769 4   -546068.736 2
  23220876.923    -4235082.748 6  -3300071.766 4
 91  3 15 22 55  0.0000000  0  5 18 19 11 16  2
  20893089.213     1941874.592 9   1513145.928 9
  20968442.046     -300642.981 8   -234265.062 9
  23072437.082    -2457143.644 7  -1914649.753 6
  24541803.857     -747127.761 4   -582176.140 2
  23205869.614    -4313962.314 6  -3361536.597 5
 91  3 15 22 55 30.0000000  0  5 18 19 11 16  2
  20903104.975     1994502.761 9   1554154.810 9
  20968418.069     -300761.595 7   -234357.471 9
  23065786.194    -2492088.447 7  -1941879.326 5
  24533076.898     -792959.880 4   -617889.372 2
  23190906.366    -4392573.333 6  -3422791.669 4
 91  3 15 22 56  0.0000000  0  4 18 19 11  2
  20913213.991     2047617.143 9   1595542.562 9
  20968435.449     -300690.303 7   -234301.884 9
  23059242.327    -2526480.044 7  -1968677.804 5
  23176001.280    -4470909.691 6  -3483833.196 5
 91  3 15 22 56 30.0000000  0  4 18 19 11  2
  20923412.317     2101207.496 9   1637301.197 9
  20968479.232     -300438.452 7   -234105.606 9
  23052800.073    -2560326.135 7  -1995051.221 5
  23161142.682    -4548980.146 6  -3544667.539 4
 91  3 15 22 57  0.0000000  0  4 18 19 11  2
  20933699.395     2155277.918 9   1679433.916 9
  20968563.761     -300000.498 7   -233764.320 9
  23046465.766    -2593619.178 7  -2020993.682 5
  23146340.726    -4626778.294 6  -3605289.700 5
 91  3 15 22 57 30.0000000  0  4 18 19 11  2
  20944080.320     2209823.815 8   1721937.135 9
  20968679.194     -299379.749 7   -233280.582 9
  23040234.869    -2626361.186 7  -2046506.760 5
  23131589.726    -4704307.336 6  -3665702.157 5
 91  3 15 22 58  0.0000000  0  4 18 19 11  2
  20954550.259     2264849.534 8   1764814.244 9
  20968836.281     -298571.340 7   -232650.635 9
  23034110.419    -2658545.312 7  -2071585.140 6
  23116885.213    -4781561.708 6  -3725900.590 5
 91  3 15 22 58 30.0000000  0  4 18 19 11  2
  20965113.451     2320359.740 9   1808068.873 9
  20969026.645     -297569.072 7   -231869.619 9
  23028092.380    -2690163.753 7  -2096222.730 5
  23102240.658    -4858534.288 6  -3785878.965 5
 91  3 15 22 59  0.0000000  0  4 18 19 11  2
  20975769.270     2376349.052 9   1851696.826 9
  20969250.287     -296377.437 7   -230941.053 9
  23022183.771    -2721219.337 7  -2120421.714 5
  23087645.558    -4935229.067 6  -3845641.330 5
 91  3 15 22 59 30.0000000  0  4 18 19 11  2
  20986513.543     2432815.391 9   1895696.493 9
  20969515.304     -294997.235 7   -229865.548 9
  23016381.294    -2751710.921 7  -2144181.230 6
  23073098.725    -5011646.530 6  -3905187.135 5
 91  3 15 23  0  0.0000000  0  4 18 19 11  2
  20997348.645     2489759.850 9   1940068.708 9
  20969811.504     -293426.002 7   -228641.186 9
  23010689.138    -2781635.100 7  -2167498.604 5
  23058610.664    -5087783.944 6  -3964515.191 5
 91  3 15 23  0 30.0000000  0  4 18 19 11  2
  21008274.576     2547175.872 8   1984808.379 9
  20970152.970     -291668.947 7   -227272.024 9
  23005100.095    -2810995.625 7  -2190376.782 6
  23044176.245    -5163645.489 5  -4023627.821 4
 91  3 15 23  1  0.0000000  0  4 18 19 11  2
  21019293.149     2605067.748 8   2029918.844 9
  20970515.114     -289720.312 7   -225753.567 9
  22999617.498    -2839784.910 7  -2212809.828 4
  23029793.113    -5239225.443 5  -4082521.533 5
 91  3 15 23  1 30.0000000  0  4 18 19 11  2
  21030397.456     2663433.669 8   2075398.707 9
  20970931.529     -287581.055 7   -224086.596 9
  22994252.708    -2868002.335 7  -2234797.284 5
  23015463.029    -5314524.314 5  -4141195.729 4
 91  3 15 23  2  0.0000000  0  5 18 19 11 16  2
  21041592.311     2722268.072 8   2121243.604 9
  20971372.827     -285255.352 7   -222274.332 9
  22988985.656    -2895650.824 7  -2256341.407 5
  24428595.342      -14286.37915    -11131.093 2
  23001189.013    -5389545.502 6  -4199654.038 3
 91  3 15 23  2 30.0000000  0  5 18 19 11 16  2
  21052879.496     2781572.652 9   2167454.872 9
  20971854.593     -282739.701 7   -220314.065 9
  22983838.819    -2922725.726 7  -2277438.595 5
  24421246.829      -52887.045 5    -41209.395 3
  22986964.450    -5464284.995 6  -4257892.361 4
 91  3 15 23  3  0.0000000  0  5 18 19 11 16  2
  21064256.916     2841346.586 9   2214031.864 9
  20972369.933     -280034.285 7   -218205.921 9
  22978796.003    -2949225.283 7  -2298087.469 5
  24414005.041      -90963.953 5    -70879.623 2
  22972796.269    -5538742.904 6  -4315911.739 5
 91  3 15 23  3 30.0000000  0  5 18 19 11 16  2
  21075719.475     2901588.536 9   2260973.546 9
  20972917.957     -277138.917 7   -215949.785 9
  22973859.930    -2975147.867 7  -2318286.763 4
  24406860.974     -128516.492 5   -100141.243 3
  22958686.826    -5612918.323 6  -4373710.507 5
 91  3 15 23  4  0.0000000  0  5 18 19 11 16  2
  21087270.193     2962294.956 9   2308277.160 9
  20973499.852     -274055.062 7   -213546.753 9
  22969037.772    -3000494.121 6  -2338036.975 6
  24399812.866     -165545.588 5   -128995.009 2
  22944619.979    -5686812.592 6  -4431290.216 5
 91  3 15 23  4 30.0000000  0  5 18 19 11 16  2
  21098912.333     3023467.108 8   2355943.681 9
  20974122.510     -270780.785 7   -210995.353 9
  22964328.324    -3025260.462 7  -2357335.324 4
  24392854.679     -202048.688 4   -157438.904 2
  22930609.775    -5760423.215 6  -4488648.869 5
 91  3 15 23  5  0.0000000  0  5 18 19 11 16  2
  21110641.706     3085105.473 8   2403973.477 9
  20974782.652     -267314.182 7   -208294.084 9
  22959725.917    -3049443.777 7  -2376179.360 5
  24386021.802     -238022.898 4   -185470.699 3
  22916650.229    -5833747.481 7  -4545784.414 6
 91  3 15 23  5 30.0000000  0  5 18 19 11 16  2
  21122458.034     3147210.216 9   2452366.692 9
  20975482.667     -263653.498 7   -205441.594 9
  22955232.922    -3073041.093 7  -2394566.801 6
  24379269.283     -273466.155 4   -213088.758 4
  22902760.257    -5906783.666 7  -4602695.486 5
 91  3 15 23  6  0.0000000  0  5 18 19 11 16  2
  21134363.689     3209774.139 8   2501117.697 9
  20976212.069     -259804.737 7   -202442.537 9
  22950855.360    -3096056.935 6  -2412501.150 5
  24372629.179     -308384.516 5   -240297.785 3
  22888911.642    -5979537.197 7  -4659386.789 4
 91  3 15 23  6 30.0000000  0  6  6 18 19 11 16  2
  24752624.509     -168402.386 5   -131222.880 3
  21146357.782     3272802.860 8   2550230.886 9
  20976982.235     -255760.286 7   -199290.998 9
  22946587.508    -3118482.895 7  -2429975.833 5
  24366083.218     -342769.962 5   -267091.545 3
  22875122.689    -6052000.928 7  -4715851.813 5
 91  3 15 23  7  0.0000000  0  6  6 18 19 11 16  2
  24741057.318     -229188.928 5   -178588.794 2
  21158439.720     3336285.430 8   2599697.736 9
  20977785.974     -251529.667 7   -195994.391 9
  22942433.292    -3140327.305 7  -2446997.398 6
  24359641.575     -376631.136 5   -293476.807 4
  22861391.881    -6124183.547 7  -4772097.773 6
 91  3 15 23  7 30.0000000  0  6  6 18 19 11 16  2
  24729501.522     -289934.504 5   -225922.827 3
  21170606.186     3400222.773 8   2649518.945 9
  20978625.696     -247110.123 7   -192550.568 9
  22938383.986    -3161586.530 7  -2463562.964 6
  24353302.155     -409965.136 5   -319451.284 4
  22847708.153    -6196081.905 7  -4828122.236 6
 91  3 15 23  8  0.0000000  0  6  6 18 19 11 16  2
  24717943.929     -350636.307 5   -273222.697 2
  21182859.310     3464616.791 8   2699695.990 9
  20979503.198     -242498.261 7   -188956.885 9
  22934449.503    -3182255.655 7  -2479668.717 6
  24347055.082     -442767.818 5   -345011.736 3
  22834081.103    -6267692.228 7  -4883922.275 6
 91  3 15 23  8 30.0000000  0  6  6 18 19 11 16  2
  24706405.217     -411293.676 4   -320488.013 3
  21195202.059     3529467.703 8   2750229.066 9
  20980425.058     -237692.112 7   -185211.814 9
  22930626.265    -3202331.879 7  -2495312.463 6
  24340911.139     -475037.881 5   -370157.158 4
  22820506.195    -6339012.577 6  -4939496.367 6
 91  3 15 23  9  0.0000000  0  6  6 18 19 11 16  2
  24694867.395     -471906.691 4   -367718.680 3
  21207630.871     3594775.181 8   2801117.904 9
  20981372.692     -232691.369 7   -181315.122 9
  22926922.020    -3221813.548 7  -2510492.922 5
  24334883.817     -506773.159 5   -394885.853 4
  22806993.654    -6410042.066 6  -4994843.808 7
 91  3 15 23  9 30.0000000  0  6  6 18 19 11 16  2
  24683349.379     -532477.303 4   -414916.313 2
  21220143.602     3660536.064 8   2852360.054 9
  20982357.809     -227496.720 7   -177267.325 9
  22923327.205    -3240700.505 7  -2525209.974 4
  24328937.131     -537974.933 5   -419198.863 3
  22793528.472    -6480781.438 6  -5049965.200 6
 91  3 15 23 10  0.0000000  0  6  6 18 19 11 16  2
  24671829.547     -593003.400 4   -462079.780 4
  21232744.178     3726752.023 8   2903956.819 9
  20983384.911     -222105.309 7   -173066.207 9
  22919847.213    -3258988.570 7  -2539460.338 5
  24323103.471     -568640.019 5   -443093.663 2
  22780128.642    -6551227.306 6  -5104857.891 6
 91  3 15 23 10 30.0000000  0  6  6 18 19 11 16  2
  24660322.909     -653494.289 4   -509215.744 2
  21245425.094     3793413.031 8   2955900.358 9
  20984445.570     -216524.967 7   -168717.862 9
  22916481.153    -3276685.507 7  -2553250.084 5
  24317374.129     -598776.197 5   -466576.318 4
  22766772.891    -6621388.279 6  -5159528.595 6
 91  3 15 23 11  0.0000000  0  6  6 18 19 11 16  2
  24648810.285     -713949.841 4   -556323.768 1
  21258200.451     3860518.617 8   3008190.309 9
  20985544.306     -210754.870 7   -164221.676 9
  22913224.507    -3293788.998 7  -2566577.399 5
  24311732.334     -628382.095 4   -489645.765 4
  22753478.303    -6691262.830 6  -5213976.117 6
 91  3 15 23 11 30.0000000  0  6  6 18 19 11 16  2
  24637310.853     -774372.870 3   -603406.408 2
  21271052.850     3928064.824 8   3060823.600 9
  20986675.132     -204797.100 7   -159579.233 9
  22910082.089    -3310300.233 7  -2579443.212 6
  24306199.061     -657459.745 5   -512303.593 4
  22740233.762    -6760852.283 5  -5268201.477 5
 91  3 15 23 12  0.0000000  0  5 18 19 11 16  2
  21283992.501     3996051.473 8   3113800.105 9
  20987848.520     -198650.302 7   -154789.500 9
  22907053.569    -3326217.293 7  -2591846.037 5
  24300769.828     -686008.076 4   -534548.993 3
  22727045.900    -6830155.629 6  -5322203.882 5
 91  3 15 23 12 30.0000000  0  5 18 19 11 16  2
  21297009.491     4064478.298 8   3167119.606 9
  20989056.075     -192312.558 7   -149850.982 9
  22904138.091    -3341537.664 7  -2603783.905 6
  24295432.015     -714024.800 4   -556380.139 3
  22713912.883    -6899170.869 6  -5375981.786 5
 91  3 15 23 13  0.0000000  0  5 18 19 11 16  2
  21310116.419     4133347.655 8   3220783.919 9
  20990303.207     -185779.935 7   -144760.620 9
  22901336.528    -3356256.094 7  -2615252.724 4
  24290215.325     -741505.496 4   -577793.627 3
  22700833.841    -6967893.560 6  -5429531.724 4
 91  3 15 23 13 30.0000000  0  5 18 19 11 16  2
  21323303.077     4202652.229 8   3274787.370 9
  20991575.834     -179058.382 7   -139523.023 9
  22898648.287    -3370377.576 7  -2626256.394 6
  24285081.087     -768455.911 4   -598793.890 4
  22687809.661    -7036329.225 6  -5482858.004 5
 91  3 15 23 14  0.0000000  0  5 18 19 11 16  2
  21336575.800     4272388.786 8   3329127.431 8
  20992897.915     -172148.480 7   -134138.673 9
  22896076.684    -3383902.958 7  -2636795.572 6
  24280052.371     -794877.481 4   -619382.058 4
  22674844.237    -7104479.055 7  -5535961.560 6
 91  3 15 23 14 30.0000000  0  5 18 19 11 16  2
  21349927.660     4342560.974 8   3383806.935 8
  20994247.585     -165045.434 7   -128603.817 9
  22893616.587    -3396826.050 7  -2646865.421 6
  24275126.488     -820764.886 4   -639554.005 2
  22661929.173    -7172337.687 7  -5588838.197 4
 91  3 15 23 15  0.0000000  0  5 18 19 11 16  2
  21363363.455     4413167.407 8   3438824.819 8
  20995633.830     -157748.750 7   -122918.083 9
  22891274.000    -3409145.412 7  -2656464.840 5
  24270301.329     -846116.689 4   -659308.593 3
  22649072.568    -7239904.243 7  -5641487.241 5
 91  3 15 23 15 30.0000000  0  5 18 19 11 16  2
  21376881.999     4484200.670 8   3494175.294 8
  20997059.338     -150264.006 7   -117085.795 9
  22889045.939    -3420866.504 7  -2665598.069 5
  24265574.501     -870940.230 4   -678651.567 4
  22636269.640    -7307184.959 7  -5693913.555 5
 91  3 15 23 16  0.0000000  0  5 18 19 11 16  2
  21390480.884     4555661.414 8   3549858.870 8
  20998518.735     -142588.113 7   -111104.572 9
  22886925.510    -3431985.809 7  -2674262.368 6
  24260953.195     -895232.007 4   -697580.162 5
  22623523.652    -7374176.682 7  -5746114.685 6
 91  3 15 23 16 30.0000000  0  5 18 19 11 16  2
  21404158.609     4627546.391 8   3605873.019 8
  21000012.002     -134722.860 7   -104975.786 9
  22884927.094    -3442504.325 7  -2682458.532 6
  24256430.220     -918993.375 4   -716095.461 3
  22610826.246    -7440881.004 7  -5798091.869 5
 91  3 15 23 17  0.0000000  0  5 18 19 11 16  2
  21417923.882     4699857.477 8   3662219.196 8
  21001546.330     -126664.424 7    -98696.479 9
  22883039.905    -3452417.892 7  -2690183.299 6
  24252013.378     -942220.927 4   -734194.801 3
  22598190.299    -7507294.274 7  -5849842.257 6
 91  3 15 23 17 30.0000000  0  6  6 18 19 11 16  2
  24499790.939      -23024.62014    -17940.167 2
  21431759.601     4772591.209 8   3718894.725 9
  21003118.752     -118414.055 7    -92267.600 9
  22881268.132    -3461727.331 7  -2697437.309 6
  24247682.880     -964916.408 4   -751879.549 3
  22585607.715    -7573417.686 7  -5901366.789 7
 91  3 15 23 18  0.0000000  0  6  6 18 19 11 16  2
  24488365.252      -83068.045 4    -64727.018 3
  21445682.571     4845748.430 8   3775900.229 8
  21004728.936     -109968.991 7    -85687.021 9
  22879610.274    -3470429.280 7  -2704217.969 5
  24243469.001     -987077.013 5   -769147.480 2
  22573080.273    -7639248.541 7  -5952663.358 7
 91  3 15 23 18 30.0000000  0  6  6 18 19 11 16  2
  24476947.069     -143089.376 5   -111497.093 3
  21459684.661     4919323.739 8   3833231.527 9
  21006364.004     -101333.209 7    -78957.830 9
  22878068.740    -3478526.910 7  -2710527.741 6
  24239362.442    -1008707.030 5   -786001.983 5
  22560603.524    -7704790.299 6  -6003734.657 7
 91  3 15 23 19  0.0000000  0  6  6 18 19 11 16  2
  24465527.664     -203086.943 5   -158248.628 2
  21473764.421     4993317.524 8   3890888.902 9
  21008048.822      -92503.838 7    -72077.795 9
  22876648.920    -3486017.175 7  -2716364.216 6
  24235344.616    -1029803.096 5   -802440.448 3
  22548192.703    -7770040.139 6  -6054578.481 7
 91  3 15 23 19 30.0000000  0  6  6 18 19 11 16  2
  24454120.265     -263061.226 5   -204981.603 2
  21487922.725     5067728.643 8   3948871.465 9
  21009765.138      -83479.925 7    -65046.160 9
  22875338.234    -3492899.121 7  -2721726.679 6
  24231428.735    -1050365.472 5   -818463.038 2
  22535830.166    -7834997.558 6  -6105194.463 7
 91  3 15 23 20  0.0000000  0  6  6 18 19 11 16  2
  24442709.270     -323016.164 5   -251699.924 3
  21502162.871     5142551.585 8   4007174.925 8
  21011520.124      -74264.784 7    -57865.528 9
  22874144.761    -3499175.505 7  -2726617.282 6
  24227625.565    -1070397.345 5   -834072.243 4
  22523520.398    -7899665.926 6  -6155585.194 7
 91  3 15 23 20 30.0000000  0  6  6 18 19 11 16  2
  24431301.854     -382950.944 5   -298402.555 2
  21516479.745     5217786.695 8   4065799.576 8
  21013308.684      -64856.648 7    -50534.505 9
  22873064.000    -3504844.235 7  -2731034.392 6
  24223904.533    -1089897.061 5   -849266.784 1
  22511273.574    -7964043.464 6  -6205749.324 7
 91  3 15 23 21  0.0000000  0  6  6 18 19 11 16  2
  24419896.863     -442863.951 5   -345087.782 2
  21530876.384     5293434.354 8   4124745.676 8
  21015142.214      -55253.308 7    -43051.383 9
  22872097.781    -3509902.178 7  -2734975.560 6
  24220304.937    -1108862.302 4   -864044.866 2
  22499071.718    -8028127.602 5  -6255684.832 8
 91  3 15 23 21 30.0000000  0  6  6 18 19 11 16  2
  24408502.638     -502757.867 5   -391758.574 2
  21545347.361     5369490.548 8   4184010.144 8
  21017002.424      -45456.213 7    -35417.261 9
  22871254.464    -3514351.216 7  -2738442.240 6
  24216792.871    -1127295.484 4   -878408.338 3
  22486937.622    -8091920.014 6  -6305393.018 8
 91  3 15 23 22  0.0000000  0  6  6 18 19 11 16  2
  24397108.431     -562630.080 5   -438412.443 2
  21559898.399     5445957.062 8   4243594.320 8
  21018898.321      -35461.215 7    -27628.937 9
  22870522.969    -3518187.277 7  -2741431.308 6
  24213389.328    -1145193.137 4   -892354.506 2
  22474848.478    -8155417.239 6  -6354871.190 7
 91  3 15 23 22 30.0000000  0  6  6 18 19 11 16  2
  24385716.022     -622488.383 4   -485055.518 2
  21574526.760     5522824.248 8   4303490.711 8
  21020839.780      -25275.421 7    -19691.945 9
  22869908.686    -3521417.045 7  -2743947.921 6
  24210081.116    -1162562.947 4   -905889.358 2
  22462827.407    -8218626.331 6  -6404124.851 7
 91  3 15 23 23  0.0000000  0  6  6 18 19 11 16  2
  24374335.600     -682329.894 4   -531685.495 1
  21589232.181     5600094.116 8   4363700.875 8
  21022817.203      -14895.499 7    -11603.680 9
  22869407.743    -3524036.612 7  -2745989.062 6
  24206876.628    -1179401.337 4   -919010.156 1
  22450851.601    -8281543.651 6  -6453151.155 7
 91  3 15 23 23 30.0000000  0  6  6 18 19 11 16  2
  24362941.079     -742151.830 4   -578300.192 2
  21604013.457     5677768.733 8   4424226.437 8
  21024829.405       -4317.149 7     -3360.791 9
  22869029.108    -3526041.876 7  -2747551.539 5
  24203771.082    -1195705.002 4   -931714.310 3
  22438934.848    -8344165.383 7  -6501947.130 7
 91  3 15 23 24  0.0000000  0  6  6 18 19 11 16  2
  24351566.068     -801955.850 4   -624900.576 1
  21618867.868     5755844.892 8   4485064.882 7
  21026879.090        6458.792 7      5036.060 9
  22868762.887    -3527433.947 7  -2748636.211 6
  24200774.653    -1211475.439 4   -944002.908 3
  22427075.366    -8406492.853 7  -6550513.823 7
 91  3 15 23 24 30.0000000  0  6  6 18 19 11 16  2
  24340191.632     -861745.881 4   -671490.383 2
  21633802.323     5834317.488 8   4546212.233 8
  21028968.056       17429.470 7     13584.646 9
  22868613.880    -3528215.377 7  -2749245.065 6
  24197873.554    -1226715.833 4   -955878.453 3
  22415269.526    -8468528.807 7  -6598853.356 7
 91  3 15 23 25  0.0000000  0  6  6 18 19 11 16  2
  24328812.415     -921518.339 4   -718066.510 2
  21648811.133     5913189.343 8   4607670.702 8
  21031092.672       28599.391 7     22288.498 9
  22868584.215    -3528381.536 7  -2749374.542 6
  24195069.601    -1241422.049 4   -967337.807 2
  22403518.863    -8530268.896 7  -6646962.340 7
 91  3 15 23 25 30.0000000  0  6  6 18 19 11 16  2
  24317433.791     -981279.192 4   -764633.211 1
  21663894.298     5992452.811 8   4669434.321 8
  21033260.478       39963.553 7     31143.701 9
  22868666.056    -3527937.412 7  -2749028.381 5
  24192382.861    -1255599.616 5   -978385.237
  22391826.659    -8591718.033 7  -6694844.604 6
 91  3 15 23 26  0.0000000  0  6  6 18 19 11 16  2
  24306068.063    -1041029.640 4   -811192.197 3
  21679052.412     6072105.018 8   4731500.851 8
  21035452.260       51521.877 7     40150.201 9
  22868871.410    -3526883.532 7  -2748207.144 5
  24189780.370    -1269249.912 5   -989021.800 3
  22380190.225    -8652876.989 7  -6742500.774 6
 91  3 15 23 26 30.0000000  0  6  6 18 19 11 16  2
  24294700.537    -1100771.678 4   -857744.648 2
  21694282.753     6152143.201 8   4793868.137 7
  21037699.203       63273.233 7     49307.110 9
  22869184.397    -3525220.780 7  -2746911.480 6
  24187284.588    -1282373.987 5   -999248.324 1
  22368605.637    -8713747.095 7  -6789931.861 6
 91  3 15 23 27  0.0000000  0  6  6 18 19 11 16  2
  24283341.998    -1160500.289 3   -904286.184 3
  21709585.373     6232570.955 8   4856538.982 7
  21039966.230       75223.323 7     58618.890 9
  22869618.489    -3522943.366 7  -2745136.849 6
  24184886.544    -1294966.892 5  -1009060.960 1
  22357078.319    -8774322.714 7  -6837133.486 6
 91  3 15 23 27 30.0000000  0  5 18 19 11 16  2
  21724966.221     6313383.617 8   4919509.753 8
  21042279.134       87370.197 7     68084.003 9
  22870168.607    -3520053.982 7  -2742885.352 5
  24182578.142    -1307031.843 5  -1018462.221 4
  22345610.054    -8834606.335 7  -6884107.566 5
 91  3 15 23 28  0.0000000  0  5 18 19 11 16  2
  21740417.813     6394578.045 7   4982778.011 7
  21044630.098       99713.131 7     77701.889 9
  22870831.454    -3516553.261 7  -2740157.511 6
  24180390.268    -1318569.914 5  -1027452.888 2
  22334188.869    -8894598.892 7  -6930854.856 5
 91  3 15 23 28 30.0000000  0  5 18 19 11 16  2
  21755940.183     6476151.717 8   5046341.767 8
  21047013.762      112251.924 7     87472.383 9
  22871617.516    -3512441.710 7  -2736953.692 6
  24178297.708    -1329581.951 5  -1036033.663 3
  22322830.033    -8954300.437 7  -6977375.367 5
 91  3 15 23 29  0.0000000  0  5 18 19 11 16  2
  21771535.984     6558102.085 8   5110199.062 7
  21049436.673      124986.073 7     97395.111 9
  22872515.382    -3507720.217 7  -2733274.577 5
  24176302.293    -1340069.604 5  -1044205.854 3
  22311524.561    -9013711.975 7  -7023669.906 5
 91  3 15 23 29 30.0000000  0  5 18 19 11 16  2
  21787199.544     6640429.827 8   5174350.407 7
  21051894.676      137917.977 7    107471.924 9
  22873528.385    -3502386.183 7  -2729118.143 6
  24174412.400    -1350030.874 5  -1051967.863 3
  22300276.639    -9072831.470 7  -7069736.873 5
 91  3 15 23 30  0.0000000  0  5 18 19 11 16  2
  21802941.036     6723130.828 8   5238792.604 8
  21054394.349      151046.297 7    117701.796 9
  22874661.009    -3496441.275 7  -2724485.728 6
  24172612.148    -1359467.932 5  -1059321.423 3
  22289079.096    -9131660.432 7  -7115577.460 5
 91  3 15 23 30 30.0000000  0  5 18 19 11 16  2
  21818745.489     6806199.273 8   5303521.119 7
  21056932.693      164368.151 7    128082.469 9
  22875908.437    -3489888.807 7  -2719379.894 5
  24170917.418    -1368384.007 4  -1066269.056 3
  22277939.697    -9190202.202 7  -7161194.250 6
 91  3 15 23 31  0.0000000  0  5 18 19 11 16  2
  21834625.798     6889639.410 7   5368539.268 7
  21059502.813      177889.953 7    138618.961 9
  22877271.893    -3482723.088 7  -2713796.172 6
  24169315.034    -1376774.429 4  -1072807.046 3
  22266855.773    -9248450.992 7  -7206582.755 6
 91  3 15 23 31 30.0000000  0  5 18 19 11 16  2
  21850574.459     6973447.541 7   5433844.149 7
  21062115.198      191610.429 7    149310.254 9
  22878752.875    -3474945.622 7  -2707735.762 6
  24167822.971    -1384641.554 4  -1078937.255 3
  22255827.305    -9306408.017 7  -7251743.914 6
 91  3 15 23 32  0.0000000  0  6  6 18 19 11 16  2
  24169748.236      -57678.19315    -44944.143 3
  21866591.473     7057621.669 8   5499434.229 7
  21064759.971      205529.241 7    160156.089 9
  22880348.663    -3466557.016 7  -2701199.141 6
  24166418.141    -1391985.995 4  -1084660.179 2
  22244852.217    -9364074.078 7  -7296678.350 6
 91  3 15 23 32 30.0000000  0  6  6 18 19 11 16  2
  24158393.588     -117339.260 5    -91433.479 2
  21882677.433     7142163.837 7   5565311.105 8
  21067448.212      219651.658 7    171160.582 9
  22882062.571    -3457552.418 7  -2694182.539 6
  24165122.741    -1398803.818 4  -1089972.768 2
  22233932.569    -9421444.533 6  -7341382.454 7
 91  3 15 23 33  0.0000000  0  6  6 18 19 11 16  2
  24147042.850     -176997.103 4   -137920.311 3
  21898835.654     7227068.041 8   5631470.074 7
  21070175.122      233974.378 7    182321.156 9
  22883891.912    -3447935.848 7  -2686689.063 5
  24163933.457    -1405099.447 5  -1094878.454 2
  22223075.288    -9478522.708 6  -7385858.802 8
 91  3 15 23 33 30.0000000  0  6  6 18 19 11 16  2
  24135686.405     -236655.569 4   -184407.615 1
  21915059.819     7312329.282 7   5697907.246 7
  21072941.610      248494.698 7    193635.698 9
  22885836.058    -3437710.623 7  -2678721.310 6
  24162831.423    -1410876.441 5  -1099380.014 1
  22212267.775    -9535312.161 6  -7430110.170 7
 91  3 15 23 34  0.0000000  0  6  6 18 19 11 16  2
  24124336.871     -296315.731 4   -230895.821 1
  21931352.634     7397945.261 8   5764620.851 7
  21075741.969      263212.220 7    205103.907 9
  22887900.733    -3426877.480 7  -2670279.854 6
  24161831.316    -1416136.322 5  -1103478.604 1
  22201515.404    -9591813.463 6  -7474137.023 8
 91  3 15 23 34 30.0000000  0  6  6 18 19 11 16  2
  24112978.925     -355975.407 4   -277384.082 2
  21947710.817     7483916.041 7   5831610.922 6
  21078575.605      278130.065 7    216728.209 9
  22890076.932    -3415434.184 7  -2661362.944 5
  24160930.431    -1420876.856 5  -1107172.583 1
  22190814.913    -9648024.067 6  -7517937.357 8
 91  3 15 23 35  0.0000000  0  6  6 18 19 11 16  2
  24101630.281     -415636.144 5   -323873.140 1
  21964139.447     7570238.932 7   5898875.363 7
  21081452.709      293247.459 7    228507.995 9
  22892368.844    -3403381.703 7  -2651971.373 6
  24160120.392    -1425099.953 5  -1110463.283 1
  22180175.289    -9703944.819 7  -7561511.833 7
 91  3 15 23 35 30.0000000  0  6  6 18 19 11 16  2
  24090278.356     -475295.514 5   -370360.733 2
  21980633.427     7656914.219 7   5966414.391 7
  21084369.688      308568.130 7    240446.186 9
  22894778.579    -3390717.385 7  -2642103.049 6
  24159419.190    -1428803.108 5  -1113348.841 2
  22169590.510    -9759572.718 7  -7604858.123 8
 91  3 15 23 36  0.0000000  0  6  6 18 19 11 16  2
  24078923.709     -534954.692 5   -416848.611 2
  21997191.869     7743939.646 7   6034226.251 6
  21087322.945      324092.054 7    252542.758 9
  22897304.621    -3377442.036 7  -2631758.581 6
  24158813.598    -1431987.509 5  -1115830.178 3
  22159061.206    -9814908.545 7  -7647976.824 8
 91  3 15 23 36 30.0000000  0  6  6 18 19 11 16  2
  24067575.361     -594617.061 5   -463338.950 2
  22013819.257     7831309.956 7   6102306.854 7
  21090316.076      339816.511 7    264795.583 9
  22899947.002    -3363558.900 7  -2620940.535 6
  24158304.261    -1434657.021 5  -1117910.337 3
  22148586.154    -9869955.557 7  -7690870.462 9
 91  3 15 23 37  0.0000000  0  6  6 18 19 11 16  2
  24056213.228     -654277.242 4   -509827.223 2
  22030512.292     7919029.410 7   6170659.519 6
  21093346.080      355747.664 7    277209.473 9
  22902705.690    -3349062.320 7  -2609644.497 6
  24157896.240    -1436807.499 5  -1119586.030 2
  22138165.669    -9924708.011 7  -7733534.579 8
 91  3 15 23 37 30.0000000  0  6  6 18 19 11 16  2
  24044856.486     -713933.944 4   -556313.148 1
  22047270.696     8007097.400 7   6239283.758 7
  21096418.662      371887.709 7    289786.127 9
  22905578.292    -3333950.906 7  -2597869.354 7
  24157584.753    -1438436.699 5  -1120855.488 2
  22127804.847    -9979163.305 7  -7775967.136 9
 91  3 15 23 38  0.0000000  0  6  6 18 19 11 16  2
  24033512.641     -773592.101 4   -602800.194 2
  22064097.435     8095506.770 7   6308173.995 7
  21099532.304      388232.578 7    302522.398 9
  22908571.423    -3318229.625 7  -2585619.001 6
  24157371.599    -1439550.350 5  -1121723.274 3
  22117494.979   -10033326.461 7  -7818172.053 8
 91  3 15 23 38 30.0000000  0  6  6 18 19 11 16  2
  24022161.902     -833253.049 4   -649289.463 2
  22080982.353     8184255.208 7   6377328.454 6
  21102675.019      404782.150 7    315418.167 9
  22911679.970    -3301899.819 7  -2572894.452 9
  24157259.481    -1440150.389 5  -1122190.863 3
  22107241.475   -10087198.782 7  -7860150.338 8
 91  3 15 23 39  0.0000000  0  6  6 18 19 11 16  2
  24010807.272     -892916.669 4   -695780.828 3
  22097937.124     8273341.038 7   6446745.811 7
  21105870.502      421537.282 7    328474.113 9
  22914905.137    -3284961.225 7  -2559695.571 6
  24157248.383    -1440236.516 5  -1122258.048 2
  22097049.728   -10140779.651 7  -7901901.524 9
 91  3 15 23 39 30.0000000  0  6  6 18 19 11 16  2
  23999452.328     -952580.553 4   -742272.332 2
  22114952.430     8362764.645 7   6516426.380 6
  21109096.873      438501.157 7    341692.720 9
  22918245.737    -3267411.429 7  -2546020.395 6
  24157322.738    -1439807.528 5  -1121923.762 2
  22086907.749   -10194066.183 7  -7943423.343 9
 91  3 15 23 40  0.0000000  0  6  6 18 19 11 16  2
  23988097.385    -1012242.753 4   -788762.560 2
  22132035.513     8452526.005 7   6586370.123 7
  21112364.322      455676.857 7    355076.375 9
  22921701.142    -3249248.618 7  -2531867.548 5
  24157507.100    -1438861.699 5  -1121186.744 4
  22076826.025   -10247055.791 7  -7984713.795 9
 91  3 15 23 40 30.0000000  0  6  6 18 19 11 16  2
  23976742.144    -1071908.400 5   -835255.491 3
  22149178.851     8542618.425 8   6656571.822 6
  21115675.518      473059.970 7    368621.646 9
  22925275.557    -3230477.953 7  -2517241.051 6
  24157777.526    -1437404.168 4  -1120051.054 3
  22066795.867   -10299753.631 7  -8025776.886 8
 91  3 15 23 41  0.0000000  0  6  6 18 19 11 16  2
  23965382.419    -1131580.055 5   -881753.108 4
  22166381.537     8633038.029 7   6727028.468 6
  21119021.213      490648.779 7    382327.238 9
  22928959.106    -3211102.189 7  -2502143.068 6
  24158161.849    -1435438.611 4  -1118519.465 4
  22056823.573   -10352162.099 7  -8066614.498 8
 91  3 15 23 41 30.0000000  0  6  6 18 19 11 16  2
  23954030.773    -1191246.658 5   -928246.738 3
  22183653.483     8723793.553 7   6797746.878 5
  21122410.360      508455.251 7    396202.396 9
  22932762.573    -3191110.327 7  -2486564.964 6
  24158625.624    -1432953.665 4  -1116583.169 2
  22046907.348   -10404269.881 7  -8107217.810 8
 91  3 15 23 42  0.0000000  0  6  6 18 19 11 16  2
  23942674.032    -1250923.531 5   -974748.421 2
  22200984.481     8814868.176 7   6868713.934 6
  21125833.098      526465.228 7    410236.153 9
  22936683.864    -3170517.439 7  -2470518.540 6
  24159196.141    -1429965.914 4  -1114255.093 2
  22037048.376   -10456091.367 7  -8147598.037 8
 91  3 15 23 42 30.0000000  0  6  6 18 19 11 16  2
  23931317.290    -1310610.082 5  -1021257.659 3
  22218377.532     8906260.585 7   6939928.619 7
  21129299.287      544680.049 7    424429.524 9
  22940716.068    -3149323.657 7  -2454003.904 6
  24159867.975    -1426475.445 5  -1111535.284 3
  22027239.155   -10507625.977 7  -8187754.721 8
 91  3 15 23 43  0.0000000  0  6  6 18 19 11 16  2
  23919957.862    -1370296.549 5  -1067766.814 3
  22235832.950     8997978.711 7   7011397.108 6
  21132810.463      563110.228 7    438790.713 9
  22944866.707    -3127519.362 7  -2437013.543 5
  24160624.651    -1422472.641 4  -1108416.256 3
  22017486.909   -10558864.166 7  -8227680.433 8
 91  3 15 23 43 30.0000000  0  6  6 18 19 11 16  2
  23908600.213    -1429987.620 5  -1114279.573 3
  22253346.233     9090016.072 7   7083114.341 6
  21136355.213      581751.968 7    453316.750 9
  22949125.555    -3105109.313 7  -2419551.147 5
  24161480.253    -1417963.488 4  -1104902.695 2
  22007792.527   -10609810.154 7  -8267378.451 9
 91  3 15 23 44  0.0000000  0  6  6 18 19 11 16  2
  23897241.692    -1489674.307 5  -1160788.428 4
  22270920.365     9182379.641 7   7155085.787 6
  21139948.213      600614.812 7    468015.077 9
  22953510.009    -3082084.772 7  -2401609.928 6
  24162442.894    -1412938.959 5  -1100987.496 4
  21998157.198   -10660454.579 7  -8306841.487 8
 91  3 15 23 44 30.0000000  0  6  6 18 19 11 16  2
  23885886.748    -1549366.341 6  -1207301.929 3
  22288560.458     9275057.804 7   7227302.363 6
  21143571.803      619690.370 7    482879.152 9
  22958009.007    -3058456.229 7  -2383198.073 6
  24163486.766    -1407410.295 5  -1096679.437 2
  21988573.433   -10710807.435 7  -8346077.324 8
 91  3 15 23 45  0.0000000  0  6  6 18 19 11 16  2
  23874524.911    -1609057.843 5  -1253815.047 2
  22306256.602     9368054.557 7   7299767.172 7
  21147243.363      638985.324 7    497914.202 9
  22962615.917    -3034217.802 7  -2364311.002 6
  24164643.366    -1401372.003 5  -1091974.321 2
  21979048.127   -10760862.118 7  -8385080.827 8
 91  3 15 23 45 30.0000000  0  6  6 18 19 11 16  2
  23863162.481    -1668755.184 5  -1300332.693 2
  22324011.500     9461361.946 7   7372474.034 6
  21150956.595      658493.812 7    513115.631 9
  22967347.840    -3009376.546 7  -2344954.176 5
  24165883.012    -1394831.266 5  -1086877.712 1
  21969579.168   -10810625.247 7  -8423857.147 8
 91  3 15 23 46  0.0000000  0  6  6 18 19 11 16  2
  23851803.942    -1728458.699 5  -1346855.116 3
  22341824.875     9554977.564 7   7445421.089 5
  21154714.500      678216.735 7    528484.156 9
  22972185.878    -2983933.122 7  -2325128.120 6
  24167227.272    -1387789.235 5  -1081390.415 1
  21960161.792   -10860096.447 7  -8462405.993 8
 91  3 15 23 46 30.0000000  0  6  6 18 19 11 16  2
  23840437.900    -1788172.289 5  -1393384.976 2
  22359699.098     9648895.315 7   7518603.580 5
  21158506.275      698150.742 7    544017.161 9
  22977144.759    -2957891.788 7  -2304836.185 7
  24168656.986    -1380250.217 6  -1075515.868 3
  21950807.079   -10909279.673 7  -8500730.442 7
 91  3 15 23 47  0.0000000  0  6  6 18 19 11 16  2
  23829073.079    -1847890.758 5  -1439918.608 3
  22377628.498     9743118.891 7   7592024.358 6
  21162339.721      718301.923 7    559719.379 9
  22982215.146    -2931248.314 7  -2284075.011 6
  24170180.826    -1372210.465 5  -1069251.243 1
  21941502.710   -10958169.731 7  -8538826.448 8
 91  3 15 23 47 30.0000000  0  6  6 18 19 11 16  2
  23817704.646    -1907621.574 4  -1486462.311 2
  22395615.433     9837638.567 7   7665675.843 6
  21166212.134      738663.331 7    575585.417 9
  22987398.263    -2904010.546 7  -2262850.786 6
  24171815.894    -1363678.220 6  -1062602.778 2
  21932253.222   -11006773.948 7  -8576699.717 7
 91  3 15 23 48  0.0000000  0  6  6 18 19 11 16  2
  23806345.514    -1967356.750 4  -1533009.481 3
  22413659.638     9932459.874 7   7739562.399 5
  21170130.720      759244.213 7    591622.470 9
  22992693.496    -2876170.660 7  -2241157.392 6
  24173532.804    -1354647.078 6  -1055565.528 1
  21923061.285   -11055084.731 7  -8614344.335 7
 91  3 15 23 48 30.0000000  0  6  6 18 19 11 16  2
  23794967.187    -2027105.697 4  -1579567.295 2
  22431758.725    10027571.980 7   7813675.557 6
  21174084.992      780035.762 7    607823.681 9
  22998105.036    -2847739.088 7  -2219002.926 6
  24175345.358    -1345126.618 6  -1048147.061 1
  21913923.601   -11103110.636 7  -8651766.973 7
 91  3 15 23 49  0.0000000  0  6  6 18 19 11 16  2
  23783597.550    -2086868.889 4  -1626136.231 2
  22449912.954    10122972.408 7   7888013.348 7
  21178082.418      801038.390 7    624189.362 9
  23003629.321    -2818717.090 7  -2196388.398 6
  24177247.833    -1335118.109 6  -1040348.141 2
  21904836.888   -11150852.555 7  -8688968.326 7
 91  3 15 23 49 30.0000000  0  6  6 18 19 11 16  2
  23772215.331    -2146646.853 4  -1672716.238 2
  22468122.344    10218658.289 7   7962573.566 6
  21182120.328      822251.768 7    640719.271 9
  23009261.222    -2789105.884 7  -2173314.752 6
  24179241.765    -1324623.803 6  -1032170.823 2
  21895805.947   -11198311.456 7  -8725949.148 7
 91  3 15 23 50  0.0000000  0  6  6 18 19 11 16  2
  23760845.101    -2206435.962 4  -1719305.335 4
  22486387.190    10314630.960 7   8037357.264 6
  21186197.205      843680.826 7    657417.234 9
  23015008.538    -2758902.282 7  -2149779.482 6
  24181331.620    -1313641.126 5  -1023612.939 1
  21886828.368   -11245482.944 7  -8762706.014 7
 91  3 15 23 50 30.0000000  0  6  6 18 19 11 16  2
  23749464.994    -2266241.244 5  -1765907.032 3
  22504700.321    10410884.213 7   8112359.612 6
  21190321.442      865321.431 7    674280.037 9
  23020868.286    -2728112.035 7  -2125787.102 6
  24183517.400    -1302175.824 5  -1014679.004 1
  21877903.245   -11292372.316 7  -8799243.047 7
 91  3 15 23 51  0.0000000  0  6  6 18 19 11 16  2
  23738075.865    -2326063.951 5  -1812521.970 2
  22523070.095    10507413.956 7   8187577.394 6
  21194472.971      887173.047 7    691307.264 9
  23026840.152    -2696737.374 7  -2101339.330 7
  24185786.521    -1290230.188 6  -1005370.770 4
  21869035.987   -11338980.307 7  -8835560.821 8
 91  3 15 23 51 30.0000000  0  6  6 18 19 11 16  2
  23726692.460    -2385899.727 5  -1859147.453 3
  22541490.545    10604222.869 7   8263012.716 5
  21198676.955      909240.645 7    708502.785 9
  23032918.743    -2664774.702 7  -2076433.356 7
  24188155.493    -1277800.787 6   -995685.537 3
  21860218.793   -11385303.354 7  -8871656.559 7
 91  3 15 23 52  0.0000000  0  6  6 18 19 11 16  2
  23715308.130    -2445746.641 5  -1905781.600 2
  22559967.953    10701310.635 7   8338665.319 6
  21202915.125      931527.186 7    725868.908 9
  23039113.955    -2632222.951 7  -2051068.369 6
  24190609.290    -1264887.206 5   -985623.093 1
  21851459.447   -11431339.172 7  -8907528.489 7
 91  3 15 23 52 30.0000000  0  6  6 18 19 11 16  2
  23703911.218    -2505607.780 5  -1952426.902 3
  22578494.831    10798671.729 7   8414530.883 5
  21207198.263      954029.942 7    743403.506 9
  23045422.488    -2599086.357 7  -2025247.648 6
  24193159.029    -1251493.580 5   -975186.539 3
  21842751.980   -11477090.903 7  -8943179.056 7
 91  3 15 23 53  0.0000000  0  6  6 18 19 11 16  2
  23692519.105    -2565478.116 5  -1999079.306 2
  22597075.073    10896309.289 7   8490611.891 5
  21211523.369      976754.758 7    761111.153 9
  23051838.043    -2565360.164 7  -1998967.517 7
  24195800.189    -1237616.444 5   -964373.239 2
  21834102.064   -11522553.650 7  -8978604.436 7
 91  3 15 23 53 30.0000000  0  6  6 18 19 11 16  2
  23681125.491    -2625362.260 5  -2045742.502 4
  22615705.379    10994216.846 7   8566903.277 5
  21215892.241      999697.508 7    778988.610 9
  23058368.124    -2531050.144 7  -1972232.465 6
  24198529.805    -1223261.419 5   -953187.591 2
  21825504.325   -11567732.196 7  -9013808.364 7
 91  3 15 23 54  0.0000000  0  6  6 18 19 11 16  2
  23669722.891    -2685259.183 5  -2092415.668 3
  22634392.032    11092393.148 7   8643404.080 6
  21220299.189     1022860.373 7    797037.591 9
  23065004.337    -2496156.848 7  -1945042.876 6
  24201358.956    -1208428.935 5   -941629.900 2
  21816961.728   -11612625.576 7  -9048790.078 7
 91  3 15 23 54 30.0000000  0  6  6 18 19 11 16  2
  23658323.292    -2745163.436 6  -2139094.521 4
  22653120.967    11190840.960 7   8720116.424 6
  21224746.010     1046249.536 7    815262.901 9
  23071758.060    -2460675.519 7  -1917395.086 7
  24204269.042    -1193114.899 5   -929696.969 2
  21808473.104   -11657228.505 7  -9083545.481 7
 91  3 15 23 55  0.0000000  0  6  6 18 19 11 16  2
  23646920.971    -2805084.577 5  -2185786.049 3
  22671907.470    11289548.576 7   8797031.233 5
  21229238.412     1069856.119 7    833657.637 9
  23078623.010    -2424616.627 7  -1889297.268 7
  24207276.255    -1177330.003 5   -917397.079 3
  21800036.657   -11701550.843 7  -9118082.243 7
 91  3 15 23 55 30.0000000  0  6  6 18 19 11 16  2
  23635512.681    -2865019.656 5  -2232488.451 4
  22690738.925    11388517.386 6   8874149.598 5
  21233775.172     1093683.653 7    852224.545 9
  23085594.075    -2387978.657 7  -1860748.238 6
  24210365.013    -1161072.765 5   -904729.163 3
  21791659.854   -11745589.480 7  -9152397.940 7
 91  3 15 23 56  0.0000000  0  6  6 18 19 11 16  2
  23624111.267    -2924973.775 5  -2279206.124 2
  22709618.664    11487740.137 7   8951465.829 4
  21238347.006     1117727.820 7    870960.251 9
  23092672.774    -2350767.879 7  -1831752.838 6
  24213547.916    -1144349.514 4   -891698.137 2
  21783329.818   -11789349.558 7  -9186496.576 8
 91  3 15 23 56 30.0000000  0  6  6 18 19 11 16  2
  23612694.864    -2984948.681 5  -2325940.028 2
  22728548.748    11587212.216 6   9028976.810 5
  21242966.498     1141987.582 7    889863.959 9
  23099863.590    -2312986.822 7  -1802313.056 6
  24216818.645    -1127163.616 4   -878306.584 2
  21775057.036   -11832833.414 7  -9220379.975 7
 91  3 15 23 57  0.0000000  0  6  6 18 19 11 16  2
  23601280.275    -3044933.338 5  -2372681.565 3
  22747527.412    11686942.621 6   9106688.575 4
  21247621.972     1166474.680 7    908944.813 9
  23107162.649    -2274625.553 7  -1772421.175 6
  24220186.205    -1109505.538 5   -864547.161 3
  21766837.635   -11876029.807 7  -9254039.381 7
 91  3 15 23 57 30.0000000  0  6  6 18 19 11 16  2
  23589864.482    -3104936.280 5  -2419436.855 3
  22766554.048    11786920.567 6   9184593.717 5
  21252321.821     1191180.892 7    928196.411 9
  23114569.918    -2235694.076 7  -1742084.984 6
  24223626.935    -1091385.043 5   -850427.346 2
  21758669.781   -11918947.787 7  -9287481.840 7
 91  3 15 23 58  0.0000000  0  6  6 18 19 11 16  2
  23578432.199    -3164985.643 4  -2466228.780 2
  22785618.742    11887115.695 6   9262667.605 4
  21257060.341     1216078.702 7    947597.300 9
  23122084.522    -2196221.847 7  -1711327.423 6
  24227160.586    -1072832.405 5   -835970.838 4
  21750549.305   -11961615.525 7  -9320729.306 8
 91  3 15 23 58 30.0000000  0  6  6 18 19 11 16  2
  23566990.911    -3225056.353 4  -2513037.361 3
  22804729.313    11987550.582 6   9340928.343 5
  21261844.440     1241194.127 7    967167.755 9
  23129701.944    -2156185.136 7  -1680130.002 6
  24230775.189    -1053823.651 5   -821158.922 4
  21742482.785   -12004008.395 7  -9353762.600 7
 91  3 15 23 59  0.0000000  0  6  6 18 19 11 16  2
  23555571.524    -3285131.519 5  -2559848.919 3
  22823894.748    12088239.891 7   9419387.315 5
  21266665.988     1266544.980 7    986921.670 9
  23137432.390    -2115568.121 7  -1648480.417 6
  24234482.418    -1034343.203 5   -805979.413 4
  21734472.943   -12046109.655 7  -9386568.657 7
 91  3 15 23 59 30.0000000  0  6  6 18 19 11 16  2
  23544142.835    -3345209.201 5  -2606662.953 3
  22843100.946    12189182.900 6   9498044.461 5
  21271533.726     1292133.303 7   1006860.627 9
  23145268.969    -2074370.662 7  -1616378.527 6
  24238270.896    -1014391.250 5   -790432.542 3
  21726512.852   -12087917.745 7  -9419146.280 7
 91  3 16  0  0  0.0000000  0  6  6 18 19 11 16  2
  23532704.846    -3405299.851 5  -2653486.597 3
  22862356.319    12290367.211 6   9576889.136 4
  21276444.915     1317949.533 7   1026977.170 9
  23153221.557    -2032604.159 7  -1583833.222 6
  24242161.003     -993979.967 5   -774527.715 2
  21718614.517   -12129443.325 7  -9451503.757 8
 91  3 16  0  0 30.0000000  0  6  6 18 19 11 16  2
  23521270.172    -3465395.274 5  -2700313.940 3
  22881659.052    12391799.008 6   9655927.162 5
  21281405.297     1344002.162 7   1047277.924 9
  23161276.089    -1990262.148 7  -1550839.470 6
  24246131.451     -973102.375 5   -758259.554 3
  21710765.653   -12170678.946 7  -9483635.297 7
 91  3 16  0  1  0.0000000  0  6  6 18 19 11 16  2
  23509828.291    -3525507.301 5  -2747154.260 4
  22901002.566    12493463.789 6   9735146.227 5
  21286405.831     1370279.993 7   1067754.147 9
  23169442.721    -1947357.687 7  -1517407.447 5
  24250191.837     -951772.256 5   -741638.799 2
  21702970.449   -12211636.669 7  -9515550.289 7
 91  3 16  0  1 30.0000000  0  6  6 18 19 11 16  2
  23498390.301    -3585631.136 5  -2794003.777 3
  22920395.848    12595363.611 7   9814548.931 6
  21291451.631     1396788.334 7   1088409.994 9
  23177714.298    -1903887.592 7  -1483534.678 6
  24254340.976     -929986.453 5   -724662.944 3
  21695234.296   -12252311.795 7  -9547245.086 8
 91  3 16  0  2  0.0000000  0  6  6 18 19 11 16  2
  23486949.031    -3645767.905 6  -2840863.378 2
  22939831.377    12697495.347 7   9894131.864 5
  21296541.214     1423527.159 7   1109245.432 9
  23186094.399    -1859854.432 7  -1449223.166 6
  24258570.141     -907747.593 5   -707334.044 3
  21687545.224   -12292705.461 7  -9578720.556 8
 91  3 16  0  2 30.0000000  0  6  6 18 19 11 16  2
  23475495.459    -3705923.449 6  -2887737.626 3
  22959309.205    12799850.432 7   9973889.324 4
  21301668.856     1450491.002 7   1130256.212 9
  23194577.037    -1815265.637 7  -1414478.708 6
  24262889.558     -885063.382 5   -689658.106 4
  21679909.811   -12332824.212 7  -9609981.805 8
 91  3 16  0  3  0.0000000  0  6  6 18 19 11 16  2
  23464043.387    -3766096.596 6  -2934625.577 3
  22978828.094    12902427.834 6  10053820.012 6
  21306847.470     1477681.239 7   1151443.401 9
  23203170.275    -1770121.690 7  -1379301.643 6
  24267287.502     -861934.779 5   -671635.913 2
  21672329.559   -12372667.175 7  -9641028.158 8
 91  3 16  0  3 30.0000000  0  6  6 18 19 11 16  2
  23452592.205    -3826286.643 6  -2981526.678 3
  22998390.451    13005225.301 6  10133922.179 4
  21312060.269     1505099.496 7   1172808.286 9
  23211866.957    -1724423.529 7  -1343692.724 6
  24271780.793     -838363.133 5   -653268.483 3
  21664798.167   -12412234.187 7  -9671859.483 8
 91  3 16  0  4  0.0000000  0  6  6 18 19 11 16  2
  23441136.242    -3886493.650 6  -3028441.002 3
  23017993.869    13108240.714 6  10214194.159 5
  21317326.430     1532745.961 7   1194350.979 9
  23220666.474    -1678172.894 7  -1307653.308 6
  24276349.033     -814349.866 5   -634556.943 3
  21657321.953   -12451525.663 7  -9702476.090 8
 91  3 16  0  4 30.0000000  0  6  6 18 19 11 16  2
  23429675.165    -3946715.327 6  -3075367.260 2
  23037634.176    13211474.081 6  10294635.988 5
  21322626.445     1560623.510 7   1216073.728 9
  23229574.199    -1631369.463 7  -1271183.141 6
  24280996.724     -789894.872 5   -615501.199 2
  21649896.397   -12490539.843 7  -9732876.635 8
 91  3 16  0  5  0.0000000  0  6  6 18 19 11 16  2
  23418211.402    -4006951.914 5  -3122304.615 4
  23057323.955    13314922.338 6  10375245.236 4
  21327979.544     1588732.348 7   1237976.701 9
  23238582.665    -1584014.948 7  -1234283.583 7
  24285735.243     -765000.304 5   -596102.917 2
  21642528.688   -12529277.268 7  -9763061.519 8
 91  3 16  0  5 30.0000000  0  6  6 18 19 11 16  2
  23406747.342    -4067209.078 5  -3169258.009 4
  23077049.698    13418577.608 6  10456015.812 2
  21333369.218     1617067.475 7   1260056.008 9
  23247699.356    -1536116.557 7  -1196960.207 6
  24290558.292     -739673.118 5   -576367.506 4
  21635204.762   -12567744.280 7  -9793035.699 8
 91  3 16  0  6  0.0000000  0  6  6 18 19 11 16  2
  23395273.387    -4127482.267 6  -3216223.903 3
  23096814.112    13522442.034 6  10536949.377 5
  21338809.254     1645633.794 7   1282315.457 9
  23256917.975    -1487671.766 7  -1159211.076 7
  24295459.604     -713911.777 5   -556293.818 2
  21627938.997   -12605937.257 7  -9822796.334 8
 91  3 16  0  6 30.0000000  0  6  6 18 19 11 16  2
  23383799.136    -4187772.522 5  -3263203.095 5
  23116616.898    13626511.616 6  10618042.777 5
  21344286.755     1674430.650 7   1304754.553 9
  23266239.113    -1438683.124 7  -1121038.155 6
  24300445.445     -687718.414 5   -535883.499 3
  21620724.187   -12643857.099 7  -9852344.142 8
 91  3 16  0  7  0.0000000  0  6  6 18 19 11 16  2
  23372324.571    -4248072.720 5  -3310190.063 4
  23136462.263    13730791.349 6  10699299.958 3
  21349808.632     1703466.019 7   1327379.507 9
  23275665.197    -1389145.756 7  -1082437.656 6
  24305508.644     -661088.113 5   -515132.718 3
  21613557.941   -12681497.345 7  -9881674.087 8
 91  3 16  0  7 30.0000000  0  6  6 18 19 11 16  2
  23360845.521    -4308389.016 5  -3357189.536 4
  23156342.703    13835272.176 6  10780713.796 3
  21355378.183     1732734.030 7   1350185.735 9
  23285194.988    -1339067.456 7  -1043415.651 6
  24310662.373     -634029.435 5   -494048.105 2
  21606446.576   -12718864.572 7  -9910791.280 8
 91  3 16  0  8  0.0000000  0  6  6 18 19 11 16  2
  23349367.065    -4368726.387 5  -3404205.427 4
  23176266.000    13939946.919 6  10862278.753 4
  21360995.984     1762230.296 7   1373169.831 9
  23294828.817    -1288455.260 7  -1003977.624 6
  24315890.162     -606549.330 5   -472635.112 2
  21599387.649   -12755964.405 7  -9939700.125 8
 91  3 16  0  8 30.0000000  0  6  6 18 19 11 16  2
  23337884.420    -4429070.266 5  -3451226.398 3
  23196221.982    14044827.509 6  10944004.113 4
  21366650.971     1791969.519 7   1396343.219 9
  23304562.793    -1237296.530 7   -964113.718 5
  24321195.883     -578635.365 5   -450884.005 1
  21592382.399   -12792782.776 8  -9968389.652 9
 91  3 16  0  9  0.0000000  0  6  6 18 19 11 16  2
  23326397.570    -4489429.450 6  -3498259.315 3
  23216219.652    14149902.428 6  11025880.893 4
  21372355.727     1821943.228 7   1419699.339 9
  23314400.179    -1185601.952 7   -923832.265 5
  24326587.355     -550298.818 4   -428803.761 3
  21585427.527   -12829329.458 8  -9996867.467 9
 91  3 16  0  9 30.0000000  0  6  6 18 19 11 16  2
  23314908.329    -4549807.138 6  -3545306.642 3
  23236254.177    14255165.807 6  11107904.516 3
  21378100.356     1852148.763 7   1443236.107 9
  23324336.490    -1133376.826 7   -883137.404 6
  24332067.264     -521544.572 4   -406397.962 1
  21578525.093   -12865607.758 8 -10025136.171 9
 91  3 16  0 10  0.0000000  0  6  6 18 19 11 16  2
  23303415.476    -4610199.419 6  -3592365.366 3
  23256314.791    14360618.929 6  11190076.015 3
  21383895.329     1882590.443 7   1466956.879 9
  23334376.839    -1080619.243 7   -842027.642 5
  24337625.717     -492371.552 5   -383665.773 2
  21571671.241   -12901615.027 7 -10053193.667 9
 91  3 16  0 10 30.0000000  0  6  6 18 19 11 16  2
  23291918.435    -4670610.441 6  -3639438.644 3
  23276417.965    14466255.125 6  11272390.117 4
  21389732.601     1913264.813 7   1490858.973 9
  23344518.225    -1027335.346 7   -800507.768 5
  24343247.427     -462785.192 4   -360611.527 2
  21564871.642   -12937355.532 8 -10081043.292 9
 91  3 16  0 11  0.0000000  0  6  6 18 19 11 16  2
  23280417.799    -4731036.294 6  -3686523.535 2
  23296554.731    14572075.618 6  11354847.837 5
  21395619.013     1944175.832 7   1514945.464 9
  23354757.646     -973523.328 7   -758576.405 6
  24348956.074     -432784.109 4   -337234.193 1
  21558121.828   -12972826.130 8 -10108682.612 8
 91  3 16  0 11 30.0000000  0  5  6 18 19 11  2
  23268910.864    -4791472.006 6  -3733616.113 3
  23316725.071    14678082.672 6  11437450.935 4
  21401542.315     1975328.676 7   1539220.392 9
  23365099.274     -919180.295 7   -716231.241 6
  21551424.452   -13008022.694 8 -10136108.403 9
 91  3 16  0 12  0.0000000  0  5  6 18 19 11  2
  23257420.419    -4851920.312 6  -3780718.469 2
  23336936.472    14784270.868 6  11520195.192 4
  21407517.776     2006721.239 7   1563682.113 9
  23375538.046     -864311.189 7   -673476.160 5
  21544778.955   -13042948.296 8 -10163323.049 9
 91  3 16  0 12 30.0000000  0  5  6 18 19 11  2
  23245912.297    -4912385.405 6  -3827833.899 4
  23357172.163    14890633.319 6  11603075.257 4
  21413534.018     2038349.545 7   1588327.544 9
  23386076.948     -808922.464 7   -630316.168 6
  21538183.226   -13077608.035 8 -10190330.535 9
 91  3 16  0 13  0.0000000  0  5  6 18 19 11  2
  23234403.250    -4972873.353 6  -3874967.167 3
  23377446.227    14997161.237 6  11686084.252 4
  21419598.823     2070207.503 7   1613151.909 9
  23396715.683     -753022.443 7   -586757.769 5
  21531635.451   -13112008.694 8 -10217136.140 9
 91  3 16  0 13 30.0000000  0  5  6 18 19 11  2
  23222888.235    -5033371.789 6  -3922108.605 2
  23397754.773    15103864.506 6  11769229.832 4
  21425707.098     2102308.252 7   1638165.470 9
  23407453.953     -696600.736 7   -542792.874 6
  21525140.148   -13146138.415 8 -10243730.618 9
 91  3 16  0 14  0.0000000  0  5  6 18 19 11  2
  23211367.811    -5093884.314 6  -3969261.007 4
  23418089.687    15210736.687 6  11852507.046 3
  21431857.636     2134648.586 7   1663365.704 9
  23418287.555     -639663.272 7   -498426.091 5
  21518695.521   -13180001.542 8 -10270117.356 9
 91  3 16  0 14 30.0000000  0  5  6 18 19 11  2
  23199858.171    -5154404.414 6  -4016419.294 3
  23438459.692    15317781.929 6  11935919.119 4
  21438062.131     2167235.116 7   1688757.788 9
  23429220.692     -582206.337 7   -453654.510 5
  21512305.443   -13213592.624 8 -10296292.119 9
 91  3 16  0 15  0.0000000  0  5  6 18 19 11  2
  23188336.246    -5214937.160 6  -4063587.451 4
  23458864.162    15424991.859 6  12019459.511 5
  21444307.110     2200063.324 7   1714338.192 9
  23440253.959     -524236.945 7   -408483.639 6
  21505963.040   -13246917.224 8 -10322259.251 9
 91  3 16  0 15 30.0000000  0  5  6 18 19 11  2
  23176812.227    -5275483.470 6  -4110766.162 4
  23479293.830    15532362.999 6  12103125.529 2
  21450604.562     2233132.304 7   1740106.220 9
  23451381.055     -465758.457 7   -362916.058 4
  21499673.091   -13279977.524 8 -10348020.421 9
 91  3 16  0 16  0.0000000  0  5  6 18 19 11  2
  23165290.302    -5336043.554 6  -4157955.611 5
  23499755.554    15639892.223 6  12186914.759 4
  21456936.478     2266442.012 7   1766061.819 9
  23462604.075     -406773.272 6   -316953.641 4
  21493430.799   -13312774.480 8 -10373576.386 9
 91  3 16  0 16 30.0000000  0  5  6 18 19 11  2
  23153761.484    -5396612.227 6  -4205151.734 4
  23520251.777    15747581.979 6  12270829.055 4
  21463329.540     2299997.822 7   1792209.187 9
  23473929.040     -347278.727 6   -270594.318 6
  21487238.886   -13345303.514 8 -10398923.587 9
 91  3 16  0 17  0.0000000  0  5  6 18 19 11  2
  23142237.465    -5457193.064 6  -4252357.358 5
  23540773.757    15855425.928 6  12354863.473 3
  21469756.490     2333796.544 7   1818545.853 9
  23485345.426     -287280.686 7   -223842.671 6
  21481099.743   -13377569.101 8 -10424065.494 9
 91  3 16  0 17 30.0000000  0  5  6 18 19 11  2
  23130701.754    -5517786.811 6  -4299573.037 4
  23561320.044    15963420.822 6  12439015.508 4
  21476238.007     2367837.605 7   1845071.344 9
  23496857.457     -226782.515 7   -176701.306 6
  21475009.756   -13409572.613 8 -10449003.185 9
 91  3 16  0 18  0.0000000  0  5  6 18 19 11  2
  23119171.435    -5578393.202 6  -4346798.573 4
  23581904.391    16071564.238 6  12523283.312 4
  21482760.899     2402121.504 6   1871786.062 9
  23508464.521     -165786.173 7   -129171.772 6
  21468968.351   -13441314.966 8 -10473737.375 9
 91  3 16  0 18 30.0000000  0  5  6 18 19 11  2
  23107639.319    -5639006.572 6  -4394029.554 5
  23602516.326    16179858.375 6  12607668.502 4
  21489333.244     2436653.730 7   1898694.270 9
  23520166.620     -104289.254 7    -81252.150 6
  21462978.494   -13472791.456 7 -10498264.399 9
 91  3 16  0 19  0.0000000  0  5  6 18 19 11  2
  23096100.607    -5699634.546 6  -4441271.928 4
  23623144.438    16288293.025 6  12692163.213 4
  21495949.965     2471427.269 7   1925790.537 9
  23531962.566      -42301.545 6    -32950.130 6
  21457037.794   -13504010.471 8 -10522590.803 9
 91  3 16  0 19 30.0000000  0  5  6 18 19 11  2
  23084560.098    -5760272.803 6  -4488522.322 3
  23643806.735    16396869.190 6  12776768.200 2
  21502608.061     2506446.228 7   1953078.017 9
  23543852.638       20178.872 7     15735.823 6
  21451149.585   -13534968.862 8 -10546714.116 9
 91  3 16  0 20  0.0000000  0  5  6 18 19 11  2
  23073022.275    -5820920.534 6  -4535780.086 4
  23664497.807    16505585.106 6  12861482.054 3
  21509321.002     2541711.623 7   1980557.530 9
  23555835.929       83150.049 7     64804.203 6
  21445303.919   -13565666.031 8 -10570633.887 9
 91  3 16  0 20 30.0000000  0  5  6 18 19 11  2
  23061477.578    -5881575.183 6  -4583043.232 3
  23685208.964    16614440.813 5  12946304.875 3
  21516084.620     2577226.516 7   2008231.454 9
  23567912.475      146611.698 6    114254.760 5
  21439514.338   -13596100.925 8 -10594349.297 9
 91  3 16  0 21  0.0000000  0  5  6 18 19 11  2
  23049930.769    -5942240.528 6  -4630314.715 3
  23705943.208    16723429.544 6  13031231.317 3
  21522884.516     2612987.027 7   2036096.783 9
  23580082.553      210557.394 7    164082.475 5
  21433770.913   -13626277.949 8 -10617863.755 9
 91  3 16  0 21 30.0000000  0  5  6 18 19 11  2
  23038386.350    -6002915.873 6  -4677594.009 3
  23726717.030    16832549.043 6  13116259.670 3
  21529738.979     2648993.721 7   2064153.931 9
  23592341.069      274985.173 7    214285.889 5
  21428077.553   -13656197.655 8 -10641177.715 9
 91  3 16  0 22  0.0000000  0  5  6 18 19 11  2
  23026835.947    -6063600.353 6  -4724880.442 3
  23747502.839    16941797.072 6  13201388.184 4
  21536637.189     2685247.687 7   2092403.754 9
  23604694.009      339893.501 6    264863.726 5
  21422433.960   -13685860.391 8 -10664291.448 9
 91  3 16  0 22 30.0000000  0  5  6 18 19 11  2
  23015286.153    -6124291.376 5  -4772171.940 4
  23768321.036    17051173.543 5  13286616.794 3
  21543581.294     2721751.430 7   2120848.218 9
  23617138.701      405282.076 7    315815.786 6
  21416838.635   -13715264.423 8 -10687203.592 9
 91  3 16  0 23  0.0000000  0  5  6 18 19 11  2
  23003736.343    -6184986.837 5  -4819466.903 3
  23789156.317    17160677.393 5  13371944.597 3
  21550577.540     2758507.255 7   2149489.101 9
  23629669.127      471150.102 7    367141.438 5
  21411290.670   -13744408.291 8 -10709913.017 9
 91  3 16  0 23 30.0000000  0  5  6 18 19 11  2
  22992187.143    -6245688.016 6  -4866766.319 4
  23810019.762    17270304.707 6  13457368.654 3
  21557623.572     2795513.913 6   2178325.443 9
  23642295.773      537493.389 6    418837.438 5
  21405796.068   -13773294.565 8 -10732421.717 9
 91  3 16  0 24  0.0000000  0  5  6 18 19 11  2
  22980637.036    -6306396.718 6  -4914071.577 4
  23830906.608    17380050.268 6  13542884.830 4
  21564708.255     2832769.612 7   2207355.835 9
  23655008.483      604307.510 6    470900.310 4
  21400347.342   -13801926.134 8 -10754731.933 9
 91  3 16  0 24 30.0000000  0  5  6 18 19 11  2
  22969080.943    -6367114.647 6  -4961384.053 4
  23851809.038    17489909.568 6  13628489.650 2
  21571844.225     2870272.645 7   2236578.963 9
  23667811.115      671587.793 6    523326.438 4
  21394946.587   -13830305.867 8 -10776845.914 9
 91  3 16  0 25  0.0000000  0  5  6 18 19 11  2
  22957532.337    -6427836.376 6  -5008699.482 4
  23872734.850    17599884.933 6  13714184.937 2
  21579030.853     2908028.530 7   2265999.107 9
  23680704.295      739336.887 6    576117.849 6
  21389594.395   -13858429.657 8 -10798760.477 9
 91  3 16  0 25 30.0000000  0  5  6 18 19 11  2
  22945969.927    -6488564.414 6  -5056019.839 5
  23893684.046    17709971.280 6  13799966.725 2
  21586266.342     2946034.751 7   2295614.329 9
  23693682.302      807549.422 6    629270.367 6
  21384290.472   -13886300.756 8 -10820478.131 9
 91  3 16  0 26  0.0000000  0  5  6 18 19 11  2
  22934415.929    -6549293.315 6  -5103340.857 4
  23914656.625    17820170.406 5  13885836.328 5
  21593542.594     2984296.202 7   2325428.430 9
  23706755.062      876227.688 6    682785.801 6
  21379034.501   -13913914.999 8 -10841995.636 9
 91  3 16  0 26 30.0000000  0  5  6 18 19 11  2
  22922856.538    -6610026.409 6  -5150665.150 5
  23935644.490    17930476.711 5  13971789.449 4
  21600873.430     3022810.209 7   2355439.328 9
  23719914.446      945365.563 6    736659.374 5
  21373828.612   -13941276.749 8 -10863316.388 9
 91  3 16  0 27  0.0000000  0  5  6 18 19 11  2
  22911299.835    -6670763.515 6  -5197992.582 4
  23956654.849    18040886.928 5  14057823.494 3
  21608249.515     3061576.437 7   2385646.765 9
  23733154.485     1014960.214 6    790888.871 6
  21368670.677   -13968386.801 8 -10884441.016 9
 91  3 16  0 27 30.0000000  0  5  6 18 19 11  2
  22899739.537    -6731507.283 6  -5245325.198 3
  23977688.591    18151395.259 6  14143934.048 2
  21615674.181     3100592.352 7   2416048.753 9
  23746483.851     1085006.144 7    845470.011 6
  21363560.416   -13995249.088 8 -10905372.585 9
 91  3 16  0 28  0.0000000  0  5  6 18 19 11  2
  22888175.347    -6792254.535 6  -5292660.517 4
  23998732.524    18262001.882 6  14230121.210 3
  21623150.099     3139860.818 6   2446647.547 9
  23759898.060     1155503.045 6    900402.583 5
  21358493.326   -14021861.880 8 -10926109.745 9
 91  3 16  0 28 30.0000000  0  5  6 18 19 11  2
  22876618.347    -6853004.094 6  -5339997.635 5
  24019800.731    18372704.826 6  14316383.431 2
  21630663.796     3179382.897 7   2477443.938 9
  23773397.427     1226449.213 6    955685.196 5
  21353476.598   -14048224.944 8 -10946652.307 9
 91  3 16  0 29  0.0000000  0  5  6 18 19 11  2
  22865060.143    -6913751.126 6  -5387332.777 5
  24040883.648    18483506.021 5  14402722.173 3
  21638241.065     3219162.955 6   2508441.367 9
  23786988.808     1297846.317 7   1011319.183 6
  21348507.840   -14074334.775 8 -10966997.544 9
 91  3 16  0 29 30.0000000  0  5  6 18 19 11  2
  22853499.548    -6974498.161 6  -5434667.927 5
  24061989.634    18594399.686 5  14489132.992 5
  21645860.284     3259198.531 7   2539637.887 9
  23800656.656     1369688.875 7   1067300.333 4
  21343586.739   -14100194.769 8 -10987148.094 9
 91  3 16  0 30  0.0000000  0  5  6 18 19 11  2
  22841941.344    -7035240.091 6  -5481999.107 5
  24083113.000    18705387.874 5  14575617.375 3
  21653524.471     3299494.445 6   2571037.268 9
  23814415.018     1441978.722 6   1123629.991 5
  21338716.017   -14125801.468 8 -11007101.268 9
 91  3 16  0 30 30.0000000  0  5  6 18 19 11  2
  22830381.064    -7095981.165 6  -5529329.592 4
  24104247.186    18816463.720 6  14662170.150 2
  21661247.135     3340046.625 6   2602636.358 9
  23828256.444     1514708.487 6   1180302.438 4
  21333890.857   -14151160.248 8 -11026861.262 9
 91  3 16  0 31  0.0000000  0  5  6 18 19 11  2
  22818824.064    -7156724.286 6  -5576661.727 5
  24125396.343    18927620.998 5  14748786.383 3
  21669011.156     3380851.655 6   2634432.457 9
  23842177.303     1587872.256 6   1237313.053 5
  21329110.056   -14176275.227 8 -11046431.277 9
 91  3 16  0 31 30.0000000  0  5  6 18 19 11  2
  22807266.156    -7217464.774 6  -5623991.782 4
  24146570.385    19038860.345 5  14835466.519 2
  21676819.256     3421914.550 7   2666429.489 9
  23856184.209     1661471.555 6   1294663.033 6
  21324375.742   -14201143.296 8 -11065808.905 9
 91  3 16  0 32  0.0000000  0  5  6 18 19 11  2
  22795702.263    -7278202.054 6  -5671319.350 4
  24167751.617    19150180.219 5  14922209.450 2
  21684681.608     3463235.141 7   2698627.313 9
  23870269.955     1735503.641 6   1352350.246 5
  21319692.976   -14225765.145 8 -11084994.675 9
 91  3 16  0 32 30.0000000  0  5  6 18 19 11  2
  22784148.858    -7338930.980 6  -5718640.391 4
  24188951.729    19261582.363 5  15009016.486 2
  21692599.732     3504818.658 7   2731030.024 9
  23884440.543     1809970.154 6   1410376.013 5
  21315052.789   -14250136.514 8 -11103985.270 9
 91  3 16  0 33  0.0000000  0  5  6 18 19 11  2
  22772593.062    -7399649.750 6  -5765953.504 5
  24210171.351    19373065.421 5  15095886.507 2
  21700562.511     3546666.475 6   2763638.692 9
  23898692.677     1884869.785 6   1468739.232 5
  21310461.480   -14274257.052 8 -11122780.403 9
 91  3 16  0 33 30.0000000  0  5  6 18 19 11  2
  22761044.752    -7460363.758 6  -5813262.917 4
  24231391.549    19484620.454 5  15182812.694 1
  21708569.072     3588772.582 7   2796448.612 8
  23913028.450     1960193.919 6   1527433.242 5
  21305919.328   -14298133.644 8 -11141385.445 9
 91  3 16  0 34  0.0000000  0  5  6 18 19 11  2
  22749491.661    -7521068.197 6  -5860564.895 4
  24252637.555    19596249.489 5  15269796.507 1
  21716635.592     3631141.800 7   2829463.560 9
  23927443.377     2035944.068 6   1586459.257 4
  21301425.425   -14321762.931 8 -11159797.799 9
 91  3 16  0 34 30.0000000  0  5  6 18 19 11  2
  22737937.349    -7581770.281 6  -5907865.034 3
  24273889.844    19707941.921 6  15356829.713 2
  21724744.080     3673766.840 7   2862677.841 8
  23941936.550     2112109.393 6   1645808.747 5
  21296974.416   -14345153.261 8 -11178023.945 9
 91  3 16  0 35  0.0000000  0  5  6 18 19 11  2
  22726385.444    -7642465.055 6  -5955159.481 4
  24295159.216    19819699.460 6  15443913.672 3
  21732906.524     3716652.055 7   2896094.865 8
  23956510.362     2188691.507 6   1705483.001 3
  21292568.061   -14368301.085 8 -11196061.132 9
 91  3 16  0 35 30.0000000  0  5  6 18 19 11  2
  22714841.043    -7703151.944 6  -6002447.773 5
  24316436.075    19931519.484 6  15531046.285 4
  21741118.143     3759797.642 7   2929714.779 9
  23971162.716     2265688.036 6   1765480.189 5
  21288208.787   -14391207.185 8 -11213909.966 9
 91  3 16  0 36  0.0000000  0  6  6 18 19 15 11  2
  22703290.046    -7763830.375 6  -6049729.479 5
  24337725.236    20043398.855 5  15618225.120 3
  21749378.919     3803203.253 6   2963537.292 8
  24909386.289      -10549.235 4     -8220.238 3
  23985893.911     2343095.961 6   1825797.972 3
  21283895.669   -14413872.718 8 -11231571.333 9
 91  3 16  0 36 30.0000000  0  6  6 18 19 15 11  2
  22691748.036    -7824502.563 6  -6097006.326 4
  24359030.590    20155333.075 5  15705446.694 1
  21757684.961     3846866.526 7   2997560.591 9
  24897357.121      -73751.328 4    -57468.888 4
  24000702.462     2420909.747 6   1886431.962 4
  21279627.817   -14436301.138 8 -11249047.945 9
 91  3 16  0 37  0.0000000  0  6  6 18 19 15 11  2
  22680201.820    -7885167.449 6  -6144277.481 6
  24380341.337    20267319.606 6  15792709.112 2
  21766042.586     3890788.275 7   3031785.297 8
  24885360.027     -136811.043 4   -106606.530 1
  24015584.461     2499126.361 6   1947379.875 3
  21275403.748   -14458492.428 8 -11266339.770 9
 91  3 16  0 37 30.0000000  0  6  6 18 19 15 11  2
  22668656.808    -7945820.170 6  -6191539.157 6
  24401656.290    20379359.982 6  15880013.479 1
  21774456.557     3934973.689 7   3066215.456 8
  24873387.520     -199720.974 4   -155627.416 2
  24030536.611     2577747.644 6   2008643.112 5
  21271227.928   -14480443.583 8 -11283444.490 9
 91  3 16  0 38  0.0000000  0  6  6 18 19 15 11  2
  22657120.801    -8006464.012 6  -6238793.915 5
  24422988.622    20491447.461 6  15967354.561
  21782911.903     3979418.511 7   3100847.756 9
  24861447.976     -262481.469 4   -204531.476 3
  24045578.995     2656766.814 6   2070216.377 4
  21267094.390   -14502159.527 8 -11300365.941 9
 91  3 16  0 38 30.0000000  0  6  6 18 19 15 11  2
  22645580.885    -8067096.674 6  -6286039.957 6
  24444324.253    20603581.359 5  16054731.752 3
  21791418.518     4024124.132 7   3135683.271 8
  24849522.829     -325088.942 4   -253316.681 2
  24060691.529     2736182.703 6   2132098.778 5
  21263006.118   -14523639.244 8 -11317103.312 9
 91  3 16  0 39  0.0000000  0  6  6 18 19 15 11  2
  22634046.971    -8127717.696 6  -6333276.928 6
  24465675.467    20715758.840 5  16142142.915 3
  21799974.586     4069090.957 7   3170722.320 8
  24837647.450     -387540.775 4   -301980.593 2
  24075882.014     2815992.206 6   2194287.909 5
  21258962.833   -14544884.038 8 -11333657.629 9
 91  3 16  0 39 30.0000000  0  6  6 18 19 15 11  2
  22622511.557    -8188328.228 6  -6380505.731 5
  24487028.182    20827975.478 5  16229584.551 4
  21808577.736     4114316.974 7   3205963.331 8
  24825790.655     -449835.686 4   -350522.278 2
  24091140.850     2896190.608 6   2256780.061 5
  21254967.187   -14565896.475 8 -11350030.886 9
 91  3 16  0 40  0.0000000  0  6  6 18 19 15 11  2
  22610976.143    -8248924.254 6  -6427723.222 5
  24508389.587    20940231.240 5  16317056.745 3
  21817239.936     4159805.909 7   3241409.221 7
  24813972.844     -511967.427 4   -398936.864 2
  24106479.435     2976778.147 6   2319575.424 5
  21251012.025   -14586673.662 8 -11366220.822 9
 91  3 16  0 40 30.0000000  0  6  6 18 19 15 11  2
  22599451.234    -8309506.470 6  -6474929.962 5
  24529758.198    21052522.638 5  16404556.661 3
  21825950.405     4205556.618 6   3277059.100 8
  24802166.114     -573935.041 4   -447223.530 2
  24121886.668     3057750.343 6   2382670.540 4
  21247101.536   -14607217.621 8 -11382229.031 9
 91  3 16  0 41  0.0000000  0  6  6 18 19 15 11  2
  22587926.901    -8370071.180 6  -6522123.062 6
  24551132.202    21164850.213 5  16492084.791 2
  21834700.450     4251572.086 7   3312915.265 8
  24790407.965     -635732.226 3   -495377.333 2
  24137371.538     3139107.541 6   2446065.624 5
  21243238.110   -14627526.600 8 -11398054.134 9
 91  3 16  0 41 30.0000000  0  6  6 18 19 15 11  2
  22576404.086    -8430619.943 6  -6569303.749 5
  24572519.695    21277209.135 5  16579637.356 2
  21843510.157     4297849.979 6   3348975.928 8
  24778689.062     -697359.075 3   -543397.997
  24152920.886     3220844.687 6   2509756.778 4
  21239414.558   -14647603.826 8 -11413698.660 9
 91  3 16  0 42  0.0000000  0  6  6 18 19 15 11  2
  22564886.645    -8491152.358 6  -6616471.692 5
  24593905.687    21389596.350 5  16667211.934 1
  21852362.723     4344390.739 6   3385241.418 8
  24766996.858     -758812.888 4   -591284.263 2
  24168549.964     3302958.261 6   2573741.242 4
  21235641.368   -14667450.179 8 -11429163.284 9
 91  3 16  0 42 30.0000000  0  6  6 18 19 15 11  2
  22553370.723    -8551666.910 6  -6663625.715 5
  24615299.480    21502009.654 5  16754806.477 2
  21861269.558     4391194.860 6   3421712.126 8
  24755330.148     -820090.100 4   -639032.962 2
  24184245.301     3385446.394 6   2638017.612 4
  21231909.255   -14687066.233 8 -11444448.448 9
 91  3 16  0 43  0.0000000  0  6  6 18 19 15 11  2
  22541857.802    -8612162.699 7  -6710765.111 4
  24636689.678    21614447.282 5  16842420.354 2
  21870228.849     4438262.778 6   3458388.386 8
  24743694.605     -881187.581 4   -686641.554 1
  24200014.975     3468306.290 6   2702583.664 3
  21228220.907   -14706452.502 8 -11459554.576 9
 91  3 16  0 43 30.0000000  0  6  6 18 19 15 11  2
  22530348.459    -8672638.772 7  -6757889.176 6
  24658088.862    21726906.465 4  16930051.037 3
  21879237.018     4485594.682 6   3495270.350 8
  24732121.708     -942102.584 4   -734108.035 1
  24215851.519     3551534.857 6   2767436.973 4
  21224576.027   -14725609.519 8 -11474482.044 9
 91  3 16  0 44  0.0000000  0  6  6 18 19 15 11  2
  22518842.728    -8733091.936 6  -6804995.353 5
  24679490.437    21839386.388 4  17017697.813 4
  21888292.250     4533193.176 6   3532360.052 8
  24720556.907    -1002829.188 5   -781427.209 2
  24231758.509     3635131.474 6   2832577.079 3
  21220970.725   -14744535.732 8 -11489229.675 9
 91  3 16  0 44 30.0000000  0  6  6 18 19 15 11  2
  22507342.999    -8793525.481 7  -6852086.272 6
  24700904.315    21951881.058 5  17105356.128 3
  21897392.748     4581054.180 6   3569654.294 8
  24709042.189    -1063369.307 5   -828601.550 4
  24247739.837     3719089.209 6   2897998.573 2
  21217412.783   -14763236.035 8 -11503801.277 9
 91  3 16  0 45  0.0000000  0  6  6 18 19 15 11  2
  22495847.442    -8853936.868 6  -6899159.908 5
  24722318.803    22064389.398 5  17193025.111 2
  21906555.316     4629179.470 6   3607154.496 7
  24697550.244    -1123717.878 4   -875626.181 3
  24263780.828     3803406.916 6   2963700.594 4
  21213898.030   -14781709.687 9 -11518196.257 9
 91  3 16  0 45 30.0000000  0  6  6 18 19 15 11  2
  22484354.903    -8914318.743 6  -6946210.562 6
  24743727.568    22176914.978 5  17280707.541 2
  21915770.322     4677575.623 6   3644865.748 8
  24686114.662    -1183866.400 5   -922495.357 2
  24279896.785     3888088.166 6   3029685.850 4
  21210423.726   -14799950.607 8 -11532409.898 9
 91  3 16  0 46  0.0000000  0  6  6 18 19 15 11  2
  22472871.054    -8974669.075 6  -6993236.614 5
  24765137.554    22289456.959 5  17368402.698 2
  21925024.627     4726244.215 6   3682789.283 8
  24674692.570    -1243810.271 5   -969204.611 2
  24296077.481     3973131.120 6   3095952.964 5
  21206998.598   -14817958.637 8 -11546442.065 9
 91  3 16  0 46 30.0000000  0  6  6 18 19 15 11  2
  22461395.302    -9034989.118 6  -7040239.073 6
  24786564.014    22402010.389 4  17456106.838 2
  21934341.263     4775182.911 6   3720923.272 7
  24663325.934    -1303549.381 5  -1015754.402 1
  24312329.532     4058530.502 6   3162497.794 5
  21203620.235   -14835736.830 8 -11560295.136 9
 91  3 16  0 47  0.0000000  0  6  6 18 19 15 11  2
  22449923.738    -9095276.230 6  -7087215.889 6
  24807979.985    22514574.651 4  17543819.339 2
  21943701.699     4824393.929 6   3759269.451 8
  24652004.268    -1363078.711 5  -1062141.094 2
  24328648.121     4144285.379 6   3229319.632 5
  21200278.152   -14853284.146 8 -11573968.303 9
 91  3 16  0 47 30.0000000  0  6  6 18 19 15 11  2
  22438456.677    -9155537.079 6  -7134172.236 6
  24829402.257    22627139.363 5  17631532.209 2
  21953113.980     4873869.775 6   3797821.989 7
  24640711.098    -1422403.182 5  -1108368.218 1
  24345033.282     4230384.961 6   3296410.049 4
  21196982.242   -14870609.174 8 -11587468.271 9
 91  3 16  0 48  0.0000000  0  6  6 18 19 15 11  2
  22426995.915    -9215770.021 6  -7181106.905 6
  24850824.528    22739702.914 5  17719244.090 3
  21962583.219     4923611.327 6   3836581.540 8
  24629476.368    -1481518.775 5  -1154432.133 4
  24361484.702     4316827.464 6   3363767.657 3
  21193725.596   -14887711.950 9 -11600795.077 9
 91  3 16  0 48 30.0000000  0  6  6 18 19 15 11  2
  22415538.747    -9275971.819 6  -7228017.296 6
  24872246.502    22852265.350 5  17806955.083 3
  21972104.023     4973620.359 6   3875549.512 7
  24618264.132    -1540421.012 4  -1200329.842 2
  24377994.859     4403611.887 6   3431391.678 5
  21190512.714   -14904591.117 9 -11613947.650 9
 91  3 16  0 49  0.0000000  0  6  6 18 19 15 11  2
  22404087.269    -9336138.612 7  -7274900.398 7
  24893661.584    22964826.617 4  17894665.170 2
  21981667.702     5023900.508 6   3914728.759 7
  24607089.065    -1599103.694 4  -1246056.417 3
  24394576.387     4490737.982 6   3499281.944 3
  21187346.599   -14921244.391 9 -11626924.198 9
 91  3 16  0 49 30.0000000  0  6  6 18 19 15 11  2
  22392644.201    -9396270.430 7  -7321756.348 6
  24915082.948    23077382.881 3  17982371.193 2
  21991288.652     5074451.266 6   3954118.785 7
  24595955.076    -1657565.279 4  -1291610.835 2
  24411216.967     4578201.832 6   3567435.721 4
  21184216.169   -14937673.551 9 -11639726.185 9
 91  3 16  0 50  0.0000000  0  6  6 18 19 15 11  2
  22381212.215    -9456368.274 7  -7368585.768 6
  24936501.328    23189929.934 4  18070070.096 3
  22000959.650     5125270.362 6   3993717.956 8
  24584875.043    -1715804.399 4  -1336991.839 3
  24427927.994     4665998.794 6   3635848.745 3
  21181133.710   -14953881.314 9 -11652355.603 9
 91  3 16  0 50 30.0000000  0  6  6 18 19 15 11  2
  22369779.617    -9516428.369 7  -7415385.757 6
  24957913.094    23302468.025 5  18157762.131 1
  22010682.528     5176359.904 6   4033527.886 7
  24573844.481    -1773816.437 4  -1382195.839 2
  24444698.386     4754128.366 6   3704520.931 4
  21178093.813   -14969865.671 9 -11664810.929 9
 91  3 16  0 51  0.0000000  0  6  6 18 19 15 11  2
  22358356.932    -9576451.638 7  -7462157.000 7
  24979326.675    23414993.051 5  18245444.187 3
  22020453.952     5227718.928 6   4073547.830 7
  24562846.289    -1831599.931 4  -1427221.737 2
  24461532.035     4842585.669 6   3773448.564 3
  21175093.789   -14985629.484 9 -11677094.367 9
 91  3 16  0 51 30.0000000  0  6  6 18 19 15 11  2
  22346943.826    -9636436.787 7  -7508898.551 5
  25000739.348    23527502.649 4  18333114.101 3
  22030279.349     5279347.463 6   4113777.773 8
  24551889.472    -1889151.809 4  -1472067.120 3
  24478432.239     4931368.250 5   3842629.629 5
  21172133.935   -15001173.111 9 -11689206.233 9
 91  3 16  0 52  0.0000000  0  6  6 18 19 15 11  2
  22335532.535    -9696385.664 7  -7555611.813 6
  25022143.332    23639991.322 3  18420767.723 2
  22040149.716     5331242.495 6   4154215.381 7
  24540976.141    -1946471.887 4  -1516732.315 2
  24495381.304     5020470.094 6   3912059.481 3
  21169219.051   -15016499.993 9 -11701149.207 9
 91  3 16  0 52 30.0000000  0  5  6 19 15 11  2
  22324133.216    -9756295.785 7  -7602294.890 6
  22050080.652     5383405.636 6   4194861.907 7
  24530118.545    -2003556.154 5  -1561213.291 2
  24512396.924     5109889.558 5   3981736.847 4
  21166343.150   -15031610.216 9 -11712923.344 9
 91  3 16  0 53  0.0000000  0  5  6 19 15 11  2
  22312740.806    -9816161.656 7  -7648943.486 5
  22060061.932     5435841.498 6   4235720.949 7
  24519302.342    -2060397.668 4  -1605505.139 1
  24529478.489     5199627.902 5   4051662.707 5
  21163509.811   -15046499.873 9 -11724525.618 9
 91  3 16  0 53 30.0000000  0  5  6 19 15 11  2
  22301355.289    -9875985.432 7  -7695559.282 5
  22070084.901     5488546.541 6   4276789.752 7
  24508533.499    -2116996.299 4  -1649608.187 3
  24546603.836     5289678.920 5   4121832.228 3
  21160718.142   -15061172.780 9 -11735958.994 9
 91  3 16  0 54  0.0000000  0  5  6 19 15 11  2
  22289980.574    -9935767.315 7  -7742142.425 5
  22080170.813     5541520.071 6   4318067.754 7
  24497807.216    -2173350.533 5  -1693520.787 2
  24563813.118     5380038.514 6   4192242.223 3
  21157964.847   -15075631.158 8 -11747225.191 9
 91  3 16  0 54 30.0000000  0  5  6 19 15 11  2
  22278618.127    -9995504.243 7  -7788690.528 6
  22090306.196     5594763.698 6   4359556.235 7
  24487127.107    -2229456.215 4  -1737239.655 3
  24581060.181     5470705.477 6   4262891.738 3
  21155255.613   -15089873.942 8 -11758323.409 9
 91  3 16  0 55  0.0000000  0  6  6 19 15 11  2 13
  22267253.899   -10055193.246 7  -7835201.301 5
  22100491.051     5648279.754 6   4401257.022 7
  24476505.474    -2285307.947 5  -1780760.660 2
  24598372.908     5561678.872 6   4333780.016 3
  21152586.568   -15103899.870 8 -11769252.634 9
  24773293.402    -1008754.703 4   -786042.628 1
 91  3 16  0 55 30.0000000  0  6  6 19 15 11  2 13
  22255905.552   -10114832.207 7  -7881673.057 6
  22110725.062     5702069.031 6   4443170.694 7
  24465929.682    -2340902.479 5  -1824081.177 2
  24615741.075     5652956.550 6   4404905.375 3
  21149960.694   -15117708.820 8 -11780012.788 9
  24750498.392    -1128513.726 4   -879361.277 2
 91  3 16  0 56  0.0000000  0  6  6 19 15 11  2 13
  22244565.615   -10174421.722 7  -7928106.300 6
  22121010.343     5756129.839 6   4485295.949 7
  24455396.783    -2396238.588 5  -1867200.392 4
  24633170.719     5744533.864 6   4476264.212 5
  21147370.488   -15131303.309 8 -11790605.832 9
  24727716.854    -1248242.704 4   -972656.465 2
 91  3 16  0 56 30.0000000  0  5  6 19 15 11  2
  22233238.556   -10233960.771 7  -7974500.197 6
  22131348.689     5810461.968 6   4527632.628 7
  24444914.542    -2451313.553 5  -1910116.063 2
  24650646.205     5836407.414 5   4547853.879 6
  21144822.250   -15144684.101 8 -11801032.356 9
 91  3 16  0 57  0.0000000  0  5  6 19 15 11  2
  22221915.983   -10293447.013 7  -8020852.944 7
  22141740.695     5865066.387 6   4570181.471 7
  24434488.351    -2506123.738 5  -1952825.432 2
  24668192.172     5928575.470 5   4619673.036 5
  21142318.982   -15157851.192 9 -11811292.357 9
 91  3 16  0 57 30.0000000  0  5  6 19 15 11  2
  22210606.322   -10352877.750 7  -8067162.439 7
  22152183.656     5919944.465 6   4612943.577 7
  24424109.834    -2560665.350 5  -1995325.496 1
  24685785.185     6021036.557 5   4691720.518 4
  21139857.088   -15170803.402 8 -11821384.917 9
 91  3 16  0 58  0.0000000  0  5  6 19 15 11  2
  22199308.946   -10412254.859 7  -8113430.137 7
  22162676.106     5975093.301 6   4655916.653 7
  24413775.693    -2614937.865 5  -2037615.926 2
  24703427.076     6113784.636 5   4763991.676 3
  21137429.658   -15183544.484 8 -11831312.967 9
 91  3 16  0 58 30.0000000  0  6  6 19 15 11  2 13
  22188020.558   -10471576.858 7  -8159654.905 7
  22173217.695     6030513.511 6   4699101.194 7
  24403508.403    -2668938.323 5  -2079694.373 2
  24721137.319     6206816.837 5   4836484.247 4
  21135045.417   -15196075.419 8 -11841077.270 9
  24613912.345      -67733.20915    -52778.749 2
 91  3 16  0 59  0.0000000  0  6  6 19 15 11  2 13
  22176741.470   -10530837.798 7  -8205832.104 7
  22183821.355     6086209.481 6   4742500.605 7
  24393277.690    -2722659.188 5  -2121554.938 4
  24738894.626     6300135.086 5   4909199.712 3
  21132701.643   -15208391.683 9 -11850674.284 9
  24591160.786     -187213.777 5   -145880.338 2
 91  3 16  0 59 30.0000000  0  6  6 19 15 11  2 13
  22165473.759   -10590039.611 7  -8251963.235 7
  22194469.983     6142178.365 6   4786112.675 7
  24383107.232    -2776101.391 5  -2163198.347 2
  24756709.780     6393732.952 5   4982133.031 4
  21130398.337   -15220497.544 8 -11860107.361 9
  24568436.833     -306643.064 5   -238941.962 2
 91  3 16  1  0  0.0000000  0  6  6 19 15 11  2 13
  22154222.557   -10649177.368 7  -8298044.446 7
  22205175.273     6198423.414 6   4829939.942 6
  24372990.136    -2829258.206 5  -2204619.410 2
  24774572.015     6487611.342 5   5055284.932 4
  21128134.904   -15232389.875 8 -11869374.046 9
  24545727.852     -426014.294 4   -331958.411 1
 91  3 16  1  0 30.0000000  0  6  6 19 15 11  2 13
  22142979.137   -10708253.657 7  -8344077.783 7
  22215924.328     6254940.751 6   4873979.385 7
  24362933.000    -2882130.880 5  -2245819.133 3
  24792489.724     6581762.997 5   5128649.774 2
  21125912.531   -15244073.639 8 -11878478.206 9
  24523013.777     -545328.503 4   -424930.326 2
 91  3 16  1  1  0.0000000  0  6  6 19 15 11  2 13
  22131749.207   -10767263.831 7  -8390059.583 7
  22226743.254     6311733.721 6   4918233.600 6
  24352922.630    -2934712.998 5  -2286792.392 2
  24810459.871     6676188.430 6   5202227.968 5
  21123728.549   -15255546.041 8 -11887417.667 9
  24500329.977     -664579.243 4   -517852.863 2
 91  3 16  1  1 30.0000000  0  6  6 19 15 11  2 13
  22120535.470   -10826204.830 7  -8435987.484 7
  22237596.940     6368804.433 6   4962704.230 6
  24342977.612    -2986999.843 4  -2327535.570 3
  24828480.100     6770886.669 6   5276018.743 5
  21121586.238   -15266806.118 8 -11896191.676 9
  24477642.286     -783761.953 4   -610722.414 3
 91  3 16  1  2  0.0000000  0  6  6 19 15 11  2 13
  22109328.923   -10885073.933 7  -8481859.364 7
  22248505.787     6426154.232 6   5007392.333 7
  24333085.956    -3038987.539 5  -2368045.629 1
  24846549.486     6865855.818 6   5350020.599 5
  21119484.080   -15277852.906 8 -11904799.500 9
  24454979.775     -902872.683 5   -703535.915 2
 91  3 16  1  2 30.0000000  0  6  6 19 15 11  2 13
  22098142.775   -10943876.276 7  -8527679.236 6
  22259470.683     6483776.327 6   5052292.614 7
  24323248.570    -3090679.850 5  -2408325.578 3
  24864671.049     6961086.448 6   5424226.222 4
  21117420.906   -15288693.708 9 -11913246.810 9
  24432326.251    -1021914.732 5   -796295.860 2
 91  3 16  1  3  0.0000000  0  6  6 19 15 11  2 13
  22086968.318   -11002605.525 7  -8573442.158 7
  22270493.462     6541675.702 6   5097408.975 6
  24313468.735    -3142068.885 5  -2448368.727 2
  24882845.660     7056580.700 6   5498637.246 4
  21115397.309   -15299324.318 9 -11921530.331 9
  24409680.231    -1140879.895 4   -888995.938 1
 91  3 16  1  3 30.0000000  0  6  6 19 15 11  2 13
  22075804.332   -11061263.669 7  -8619149.658 6
  22281560.303     6599848.865 6   5142738.661 6
  24303747.358    -3193155.597 5  -2488176.297 1
  24901064.054     7152332.110 6   5573248.625 4
  21113415.680   -15309748.801 9 -11929653.241 9
  24387066.878    -1259768.405 4   -981636.329 1
 91  3 16  1  4  0.0000000  0  6  6 19 15 11  2 13
  22064656.261   -11119848.453 7  -8664800.002 7
  22292685.602     6658296.407 6   5188282.152 6
  24294080.566    -3243936.957 5  -2527745.929 3
  24919333.402     7248338.581 5   5648058.818 2
  21111468.829   -15319967.020 9 -11937615.420 9
  24364458.341    -1378576.963 4  -1074214.412 1
 91  3 16  1  4 30.0000000  0  5  6 19 15 11  2
  22053523.458   -11178360.520 7  -8710393.681 7
  22303856.761     6717016.387 6   5234037.923 6
  24284474.308    -3294410.955 5  -2567076.078 4
  24937650.424     7344595.083 5   5723063.789 2
  21109562.463   -15329981.944 9 -11945419.189 9
 91  3 16  1  5  0.0000000  0  6  6 19 15 11  2 13
  22042403.254   -11236801.678 7  -8755932.095 7
  22315086.988     6776005.753 6   5280003.600 6
  24274923.525    -3344579.072 5  -2606167.897 3
  24956009.118     7441095.281 5   5798258.684 3
  21107695.638   -15339797.133 9 -11953067.326 9
  24319287.702      -43496.37514    -33891.719 2
 91  3 16  1  5 30.0000000  0  6  6 19 15 11  2 13
  22031295.946   -11295160.560 7  -8801406.430 6
  22326370.875     6835274.237 6   5326186.787 6
  24265441.687    -3394428.496 5  -2645011.836 3
  24974423.565     7537846.326 5   5873649.020 4
  21105866.611   -15349403.952 8 -11960553.089 9
  24296725.024     -162050.078 5   -126271.191 2
 91  3 16  1  6  0.0000000  0  6  6 19 15 11  2 13
  22020207.834   -11353419.754 7  -8846803.067 6
  22337695.228     6894838.018 6   5372600.070 6
  24256018.605    -3443940.103 5  -2683592.054 2
  24992888.077     7634861.079 5   5949244.824 4
  21104080.756   -15358786.211 8 -11967863.881 9
  24274184.526     -280491.225 5   -218562.903 3
 91  3 16  1  6 30.0000000  0  6  6 19 15 11  2 13
  22009139.196   -11411584.714 7  -8892126.279 6
  22349090.639     6954689.767 6   5419237.747 6
  24246664.189    -3493118.680 5  -2721912.821 3
  25011392.165     7732129.581 5   6025038.363 4
  21102337.148   -15367951.959 9 -11975005.956 9
  24251672.209     -398823.667 5   -310769.974 2
 91  3 16  1  7  0.0000000  0  6  6 19 15 11  2 13
  21998088.549   -11469656.332 7  -8937376.765 6
  22360534.928     7014826.979 6   5466097.861 6
  24237366.119    -3541963.544 5  -2759973.485 3
  25029954.416     7829646.646 5   6101025.583 3
  21100635.228   -15376904.266 9 -11981981.716 9
  24229174.900     -517047.206 5   -402892.199 2
 91  3 16  1  7 30.0000000  0  6  6 19 15 11  2 13
  21987056.172   -11527621.451 7  -8982544.258 6
  22372031.062     7075261.390 6   5513189.562 7
  24228145.703    -3590460.394 5  -2797763.456 2
  25048561.042     7927420.973 5   6177213.272 3
  21098973.793   -15385632.220 9 -11988782.655 9
  24206697.955     -635146.903 5   -494917.817 1
 91  3 16  1  8  0.0000000  0  6  6 19 15 11  2 13
  21976046.899   -11585483.224 7  -9027631.231 7
  22383589.266     7135987.951 6   5560508.900 6
  24218975.649    -3638611.226 5  -2835283.347 3
  25067206.634     8025444.639 5   6253595.266 2
  21097350.416   -15394141.373 9 -11995413.102 9
  24184236.593     -753124.414 5   -586848.287 1
 91  3 16  1  8 30.0000000  0  6  6 19 15 11  2 13
  21965059.213   -11643243.240 7  -9072638.896 7
  22395200.519     7197003.968 6   5608053.781 6
  24209877.245    -3686416.230 5  -2872534.199 3
  25085914.577     8123711.980 5   6330167.183 3
  21095775.604   -15402434.894 9 -12001875.533 9
  24161817.530     -870979.676 5   -678683.472 2
 91  3 16  1  9  0.0000000  0  6  6 19 15 11  2 13
  21954086.202   -11700895.951 7  -9117562.940 7
  22406861.260     7258313.183 5   5655827.159 5
  24200843.913    -3733868.708 5  -2909509.919 3
  25104659.409     8222224.089 5   6406929.799 1
  21094239.758   -15410509.572 9 -12008167.425 9
  24139414.923     -988706.304 5   -770418.459 3
 91  3 16  1  9 30.0000000  0  6  6 19 15 11  2 13
  21943132.386   -11758440.575 7  -9162402.781 7
  22418585.241     7319914.503 5   5703828.132 6
  24191889.403    -3780967.217 5  -2946210.289 3
  25123448.302     8320977.251 5   6483880.188 2
  21092744.100   -15418367.021 9 -12014290.053 9
  24117031.826    -1106302.029 5   -862051.428 2
 91  3 16  1 10  0.0000000  0  6  6 19 15 11  2 13
  21932207.642   -11815870.506 7  -9207153.242 7
  22430362.585     7381812.919 5   5752060.607 6
  24182987.663    -3827703.984 5  -2982628.285 2
  25142286.964     8419973.431 5   6561019.972 4
  21091290.706   -15426002.658 9 -12020239.846 9
  24094687.101    -1223758.404 5   -953575.847 3
 91  3 16  1 10 30.0000000  0  6  6 19 15 11  2 13
  21921302.390   -11873185.247 7  -9251813.945 8
  22442203.186     7444007.370 5   5800523.772 6
  24174165.968    -3874077.521 5  -3018763.700 2
  25161171.485     8519208.536 5   6638345.917 4
  21089881.374   -15433418.234 9 -12026018.165 9
  24072349.252    -1341073.567 4  -1044990.207 2
 91  3 16  1 11  0.0000000  0  6  6 19 15 11  2 13
  21910414.536   -11930385.677 7  -9296385.568 7
  22454090.850     7506495.179 6   5849215.519 6
  24165417.126    -3920087.242 5  -3054615.653 4
  25180101.272     8618677.086 5   6715853.770 2
  21088507.134   -15440616.821 9 -12031627.400 9
  24050064.190    -1458246.844 5  -1136294.002 2
 91  3 16  1 11 30.0000000  0  6  6 19 15 11  2 13
  21899552.456   -11987468.967 7  -9340865.922 7
  22466042.976     7569277.237 5   5898136.535 6
  24156727.948    -3965729.247 5  -3090181.036 2
  25199075.434     8718377.566 5   6793542.354 2
  21087178.457   -15447598.166 9 -12037067.353 9
  24027789.615    -1575274.127 5  -1227484.039 3
 91  3 16  1 12  0.0000000  0  6  6 19 15 11  2 13
  21888712.556   -12044436.091 7  -9385255.755 7
  22478040.978     7632350.956 6   5947284.821 6
  24148110.105    -4011003.825 5  -3125460.164 2
  25218084.690     8818304.541 6   6871407.495 2
  21085893.231   -15454364.675 9 -12042339.906 9
  24005548.597    -1692154.824 4  -1318559.888 2
 91  3 16  1 12 30.0000000  0  6  6 19 15 11  2 13
  21877894.555   -12101282.000 7  -9429551.121 7
  22490102.830     7695719.292 6   5996662.693 6
  24139562.727    -4055904.592 5  -3160447.538 1
  25237148.494     8918458.573 5   6949449.595 2
  21084648.507   -15460913.824 9 -12047443.072 9
  23983336.389    -1808883.104 5  -1409516.990 1
 91  3 16  1 13  0.0000000  0  6  6 19 15 11  2 13
  21867101.421   -12158000.445 7  -9473747.171 7
  22502217.137     7759387.380 6   6046274.126 6
  24131089.093    -4100424.630 5  -3195138.683 3
  25256253.656     9018841.380 5   7027669.884 3
  21083444.233   -15467242.586 9 -12052374.522 9
  23961151.142    -1925451.466 5  -1500349.371 2
 91  3 16  1 13 30.0000000  0  5  6 19 15  2 13
  21856331.984   -12214592.350 7  -9517844.616 7
  22514393.201     7823352.026 5   6096116.639 6
  24122693.706    -4144563.066 5  -3229532.492 3
  21082280.146   -15473353.427 9 -12057136.162 9
  23939000.673    -2041858.711 6  -1591056.385 2
 91  3 16  1 14  0.0000000  0  5  6 19 15  2 13
  21845585.616   -12271057.801 7  -9561843.522 8
  22526616.939     7887611.197 5   6146188.654 6
  24114358.575    -4188320.286 5  -3263628.772 3
  21081157.120   -15479248.315 9 -12061729.524 9
  23916884.093    -2158103.802 6  -1681636.910 2
 91  3 16  1 14 30.0000000  0  5  6 19 15  2 13
  21834864.133   -12327403.039 7  -9605748.756 7
  22538894.040     7952156.965 6   6196483.965 6
  24106115.476    -4231701.452 5  -3297432.521 3
  21080074.875   -15484936.107 9 -12066161.512 9
  23894785.783    -2274191.449 5  -1772094.755 2
 91  3 16  1 15  0.0000000  0  5  6 19 15  2 13
  21824163.938   -12383624.341 7  -9649557.429 7
  22551238.307     8016991.034 5   6247003.976 5
  24097924.849    -4274701.747 5  -3330938.987 4
  21079033.987   -15490415.738 9 -12070431.303 9
  23872723.752    -2390116.951 5  -1862426.317 2
 91  3 16  1 15 30.0000000  0  5  6 19 15  2 13
  21813494.038   -12439708.816 7  -9693259.477 7
  22563630.230     8082124.508 5   6297757.282 6
  24089821.457    -4317307.021 5  -3364138.138 2
  21078033.880   -15495676.079 9 -12074530.218 9
  23850700.111    -2505866.355 5  -1952620.616 2
 91  3 16  1 16  0.0000000  0  5  6 19 15  2 13
  21802846.299   -12495663.350 8  -9736860.267 7
  22576083.595     8147548.631 5   6348737.058 5
  24081786.434    -4359523.715 5  -3397034.036 3
  21077069.442   -15500726.479 9 -12078465.535 9
  23828710.935    -2621444.676 5  -2042681.673 2
 91  3 16  1 16 30.0000000  0  5  6 19 15  2 13
  21792224.962   -12551482.567 8  -9780355.630 7
  22588590.341     8213267.121 5   6399946.209 6
  24073826.936    -4401346.072 5  -3429622.638 4
  21076150.583   -15505563.875 8 -12082234.884 9
  23806751.720    -2736845.511 5  -2132604.421 2
 91  3 16  1 17  0.0000000  0  5  6 19 15  2 13
  21781626.694   -12607168.573 8  -9823747.183 7
  22601145.947     8279275.822 6   6451381.484 6
  24065940.590    -4442775.341 5  -3461904.945 3
  21075269.190   -15510192.879 9 -12085841.840 9
  23784813.516    -2852070.225 5  -2222389.899 4
 91  3 16  1 17 30.0000000  0  5  6 19 15  2 13
  21771056.312   -12662720.081 8  -9867033.925 7
  22613761.826     8345573.623 6   6503042.032 6
  24058132.193    -4483808.948 5  -3493878.962 4
  21074425.873   -15514614.473 9 -12089287.189 9
  23762933.159    -2967115.809 5  -2312035.858 2
 91  3 16  1 18  0.0000000  0  5  6 19 15  2 13
  21760508.720   -12718130.349 8  -9910210.633 7
  22626442.131     8412165.553 5   6554931.783 5
  24050403.544    -4524439.045 5  -3525538.528 3
  21073626.636   -15518823.964 9 -12092567.262 9
  23741066.902    -3081973.909 5  -2401535.657 1
 91  3 16  1 18 30.0000000  0  5  6 19 15  2 13
  21749992.887   -12773389.315 8  -9953269.421 7
  22639166.534     8479059.368 6   6607056.777 6
  24042748.360    -4564655.180 5  -3556875.568 3
  21072867.551   -15522813.780 9 -12095676.155 9
  23719253.100    -3196633.562 5  -2490880.836 4
 91  3 16  1 19  0.0000000  0  5  6 19 15  2 13
  21739510.943   -12828499.706 7  -9996212.455 8
  22651959.567     8546250.574 5   6659413.494 6
  24035170.499    -4604460.002 5  -3587892.090 4
  21072148.655   -15526589.143 9 -12098617.951 9
  23697472.279    -3311096.123 5  -2580072.399 4
 91  3 16  1 19 30.0000000  0  5  6 19 15  2 13
  21729046.396   -12883465.210 7 -10039042.579 8
  22664793.993     8613733.375 5   6711997.414 6
  24027678.684    -4643856.221 6  -3618590.246 3
  21071470.522   -15530155.861 9 -12101397.154 9
  23675731.332    -3425363.837 6  -2669112.123 2
 91  3 16  1 20  0.0000000  0  5  6 19 15  2 13
  21718616.907   -12938278.018 8 -10081753.738 7
  22677694.660     8681513.836 5   6764813.287 6
  24020263.615    -4682835.500 6  -3648963.503 4
  21070832.263   -15533508.589 8 -12104009.625 9
  23654016.473    -3539428.146 6  -2757993.395 2
 91  3 16  1 20 30.0000000  0  5  6 19 15  2 13
  21708215.321   -12992941.628 8 -10124348.641 7
  22690651.988     8749585.796 5   6817856.294 6
  24012924.106    -4721400.247 6  -3679013.766 3
  21070232.377   -15536653.233 8 -12106459.948 9
  23632352.255    -3653291.456 6  -2846718.109 2
 91  3 16  1 21  0.0000000  0  5  6 19 15  2 13
  21697842.196   -13047452.132 8 -10166824.229 8
  22703656.989     8817951.201 5   6871127.959 6
  24005663.733    -4759546.514 5  -3708737.914 3
  21069675.959   -15539587.655 8 -12108746.469 9
  23610720.738    -3766948.509 6  -2935282.021 3
 91  3 16  1 21 30.0000000  0  5  6 19 15  2 13
  21687496.067   -13101804.779 7 -10209176.819 8
  22716722.543     8886612.822 5   6924630.441 6
  23998485.796    -4797267.900 6  -3738131.009 2
  21069155.524   -15542310.034 8 -12110867.750 9
  23589129.392    -3880393.375 6  -3023680.646 1
 91  3 16  1 22  0.0000000  0  5  6 19 15  2 13
  21677186.792   -13155999.817 7 -10251406.602 8
  22729845.962     8955568.282 5   6978361.903 6
  23991385.808    -4834565.201 6  -3767193.641 3
  21068678.853   -15544822.907 9 -12112825.791 9
  23567581.496    -3993625.049 5  -3111913.102 2
 91  3 16  1 22 30.0000000  0  5  6 19 15  2 13
  21666903.920   -13210035.256 7 -10293512.017 8
  22743021.539     9024817.133 5   7032321.978 5
  23984371.571    -4871435.567 6  -3795923.603 4
  21068241.464   -15547126.822 9 -12114620.999 9
  23546073.492    -4106640.685 5  -3199977.262
 91  3 16  1 23  0.0000000  0  5  6 19 15  2 13
  21656652.510   -13263915.861 7 -10335496.800 8
  22756256.779     9094352.286 5   7086505.123 6
  23977433.173    -4907884.068 6  -3824324.829 3
  21067840.929   -15549228.829 9 -12116258.873 9
  23524615.553    -4219443.337 6  -3287875.422
 91  3 16  1 23 30.0000000  0  5  6 19 15  2 13
  21646428.393   -13317634.771 8 -10377355.564 8
  22769538.175     9164178.823 5   7140915.326 6
  23970580.804    -4943902.469 6  -3852390.902 5
  21067481.786   -15551124.720 9 -12117736.142 9
  23503186.982    -4332025.906 6  -3375602.167 2
 91  3 16  1 24  0.0000000  0  5  6 19 15  2 13
  21636237.239   -13371186.117 8 -10419083.782 8
  22782884.031     9234300.539 5   7195555.541 6
  23963810.904    -4979484.282 6  -3880116.805 4
  21067157.404   -15552810.784 9 -12119049.904 9
  23481803.991    -4444381.044 5  -3463151.657 1
 91  3 16  1 24 30.0000000  0  5  6 19 15  2 13
  21626080.270   -13424559.826 7 -10460673.581 9
  22796281.768     9304724.948 5   7250431.625 5
  23957120.124    -5014618.967 6  -3907494.276 4
  21066879.195   -15554279.699 9 -12120194.470 9
  23460469.861    -4556497.128 6  -3550514.903 1
 91  3 16  1 25  0.0000000  0  5  6 19 15  2 13
  21615956.578   -13477760.460 7 -10502128.518 9
  22809746.042     9375445.255 6   7305538.275 5
  23950520.504    -5049310.985 6  -3934526.856 4
  21066639.970   -15555538.033 9 -12121174.933 9
  23439182.794    -4668378.155 5  -3637694.965 2
 91  3 16  1 25 30.0000000  0  5  6 19 15  2 13
  21605866.164   -13530779.045 7 -10543441.600 8
  22823254.691     9446467.956 6   7360880.550 5
  23944001.504    -5083551.560 6  -3961207.623 3
  21066444.196   -15556579.087 9 -12121986.093 9
  23417941.290    -4780013.632 6  -3724683.680 2
 91  3 16  1 26  0.0000000  0  5  6 19 15  2 13
  21595814.123   -13583620.201 7 -10584616.407 8
  22836837.993     9517786.449 5   7416453.324 5
  23937579.353    -5117343.860 6  -3987539.111 2
  21066284.108   -15557410.275 9 -12122633.702 9
  23396742.975    -4891407.010 6  -3811483.769 2
 91  3 16  1 26 30.0000000  0  5  6 19 15  2 13
  21585789.375   -13636286.679 7 -10625655.113 9
  22850458.464     9589395.289 6   7472252.344 6
  23931230.353    -5150691.091 6  -4013523.769 3
  21066164.504   -15558036.500 9 -12123121.624 9
  23375592.316    -5002560.295 6  -3898096.791 4
 91  3 16  1 27  0.0000000  0  5  6 19 15  2 13
  21575800.277   -13688779.451 8 -10666558.459 9
  22864137.393     9661291.424 6   7528275.235 6
  23924969.180    -5183593.232 6  -4039161.643 4
  21066082.662   -15558461.465 9 -12123452.709 9
  23354481.531    -5113473.229 6  -3984522.525 3
 91  3 16  1 27 30.0000000  0  5  6 19 15  2 13
  21565845.678   -13741096.917 8 -10707325.201 9
  22877873.576     9733474.206 6   7584521.471 6
  23918791.367    -5216048.845 6  -4064451.558 3
  21066040.381   -15558685.487 9 -12123627.207 9
  23333416.606    -5224143.601 5  -4070759.233 3
 91  3 16  1 28  0.0000000  0  5  6 19 15  2 13
  21555922.838   -13793239.768 8 -10747955.876 9
  22891666.438     9805940.253 6   7640988.449 5
  23912701.677    -5248058.485 6  -4089393.955 4
  21066038.286   -15558712.163 9 -12123647.953 9
  23312405.357    -5334571.288 6  -4156806.862 4
 91  3 16  1 28 30.0000000  0  5  6 19 15  2 13
  21546033.591   -13845206.183 8 -10788449.074 9
  22905507.549     9878689.101 6   7697675.776 5
  23906693.846    -5279620.220 6  -4113987.339 3
  21066067.062   -15558541.946 9 -12123515.233 9
  23291441.172    -5444753.141 6  -4242662.928 2
 91  3 16  1 29  0.0000000  0  5  6 19 15  2 13
  21536178.510   -13896995.676 8 -10828804.409 9
  22919405.932     9951719.018 6   7754582.115 6
  23900774.732    -5310732.731 5  -4138230.706 3
  21066140.213   -15558177.016 9 -12123230.823 9
  23270524.643    -5554687.570 6  -4328326.218 2
 91  3 16  1 29 30.0000000  0  5  6 19 15  2 13
  21526357.912   -13948606.262 8 -10869020.327 9
  22933357.660    10025029.179 5   7811706.821 5
  23894941.980    -5341394.342 5  -4162122.691 2
  21066242.140   -15557617.802 9 -12122795.008 9
  23249646.504    -5664371.695 6  -4413794.442 2
 91  3 16  1 30  0.0000000  0  5  6 19 15  2 13
  21516571.795   -14000032.685 8 -10909092.753 9
  22947363.676    10098622.803 5   7869052.427 5
  23889188.067    -5371599.808 5  -4185659.264 2
  21066385.738   -15556861.343 9 -12122205.498 9
  23228823.229    -5773799.656 6  -4499063.093 2
 91  3 16  1 30 30.0000000  0  5  6 19 15  2 13
  21506821.032   -14051274.611 8 -10949021.401 9
  22961416.738    10172497.525 5   7926617.068 6
  23883527.670    -5401348.551 5  -4208839.900 3
  21066568.616   -15555910.037 9 -12121464.173 9
  23208048.797    -5882970.081 5  -4584131.061 2
 91  3 16  1 31  0.0000000  0  5  6 19 15  2 13
  21497103.564   -14102333.086 8 -10988807.106 9
  22975527.071    10246649.697 6   7984397.905 4
  23877957.526    -5430641.359 5  -4231665.298 1
  21066785.976   -15554767.354 9 -12120573.713 9
  23187320.556    -5991882.921 5  -4668998.280 2
 91  3 16  1 31 30.0000000  0  5  6 19 15  2 13
  21487423.265   -14153207.064 8 -11028449.045 9
  22989695.863    10321078.187 5   8042394.039 6
  23872469.537    -5459476.505 5  -4254134.079 3
  21067040.784   -15553434.545 9 -12119535.107 9
  23166645.067    -6100535.913 5  -4753663.090 2
 91  3 16  1 32  0.0000000  0  5  6 19 15  2 13
  21477774.743   -14203894.095 8 -11067945.304 9
  23003910.531    10395782.792 5   8100605.350 5
  23867068.171    -5487852.750 5  -4276245.265 3
  21067329.795   -15551911.948 9 -12118348.623 9
  23146022.347    -6208926.196 6  -4838123.132 2
 91  3 16  1 32 30.0000000  0  5  6 19 15  2 13
  21468167.002   -14254395.221 8 -11107296.715 9
  23018187.549    10470759.945 5   8159029.003 5
  23861761.839    -5515770.129 5  -4297998.880 3
  21067655.067   -15550203.020 9 -12117016.939 9
  23125447.284    -6317053.597 6  -4922378.418 2
 91  3 16  1 33  0.0000000  0  5  6 19 15  2 13
  21458591.928   -14304705.836 8 -11146499.670 9
  23032501.736    10546011.662 5   8217666.616 3
  23856530.770    -5543224.510 6  -4319391.737 4
  21068014.210   -15548305.415 9 -12115538.229 9
  23104920.488    -6424912.715 6  -5006424.595 2
 91  3 16  1 33 30.0000000  0  5  6 19 15  2 13
  21449054.930   -14354825.160 8 -11185553.570 9
  23046869.878    10621536.141 5   8276516.783 5
  23851389.918    -5570214.586 5  -4340422.765 4
  21068412.040   -15546220.624 9 -12113913.682 9
  23084447.666    -6532501.910 6  -5090260.452 2
 91  3 16  1 34  0.0000000  0  5  6 19 15  2 13
  21439556.306   -14404743.211 8 -11224450.633 9
  23061297.701    10697340.830 5   8335585.302 3
  23846348.324    -5596731.010 5  -4361084.734 3
  21068844.334   -15543941.157 9 -12112137.433 9
  23064026.706    -6639810.520 6  -5173877.667 3
 91  3 16  1 34 30.0000000  0  5  6 19 15  2 13
  21430096.351   -14454464.502 8 -11263194.376 8
  23075768.381    10773418.714 5   8394866.685 4
  23841398.447    -5622778.341 5  -4381381.189 5
  21069314.425   -15541474.291 9 -12110215.155 9
  23043661.202    -6746842.086 6  -5257279.032 2
 91  3 16  1 35  0.0000000  0  5  6 19 15  2 13
  21420673.268   -14503987.457 8 -11301783.573 9
  23090298.113    10849768.451 5   8454359.908 5
  23836523.223    -5648355.144 6  -4401310.997 3
  21069819.871   -15538821.368 9 -12108147.896 9
  23023339.778    -6853593.998 6  -5340462.441 2
 91  3 16  1 35 30.0000000  0  5  6 19 15  2 13
  21411285.278   -14553312.870 8 -11340218.837 9
  23104876.130    10926386.407 5   8514062.125 6
  23831745.423    -5673461.914 6  -4420874.531 3
  21070359.501   -15535985.410 9 -12105938.014 9
  23003083.705    -6960066.286 6  -5423428.021 2
 91  3 16  1 36  0.0000000  0  5  6 19 15  2 13
  21401937.144   -14602435.691 8 -11378496.239 9
  23119511.104    11003275.601 5   8573975.708 5
  23827062.064    -5698093.931 6  -4440068.120 3
  21070933.003   -15532963.691 9 -12103583.384 9
  22982873.194    -7066253.455 6  -5506171.461 2
 91  3 16  1 36 30.0000000  0  5  6 19 15  2 13
  21392627.400   -14651356.637 8 -11416616.333 9
  23134194.328    11080432.665 5   8634098.013 4
  23822467.142    -5722252.241 5  -4458892.593 5
  21071546.675   -15529759.303 9 -12101086.419 9
  22962722.346    -7172155.271 6  -5588692.489 3
 91  3 16  1 37  0.0000000  0  5  6 19 15  2 13
  21383354.808   -14700072.511 8 -11454576.643 9
  23148929.135    11157857.728 5   8694429.157 4
  23817951.968    -5745934.423 5  -4477346.075 4
  21072190.919   -15526372.033 9 -12098446.947 9
  22942630.252    -7277767.993 6  -5670988.255 2
 91  3 16  1 37 30.0000000  0  5  6 19 15  2 13
  21374123.905   -14748581.526 8 -11492375.774 9
  23163713.395    11235549.732 5   8754968.308 5
  23813543.223    -5769138.330 6  -4495426.871 5
  21072869.959   -15522802.322 9 -12095665.314 9
  22922582.221    -7383088.701 6  -5753056.464 3
 91  3 16  1 38  0.0000000  0  5  6 19 15  2 13
  21364937.657   -14796878.423 8 -11530009.608 9
  23178548.332    11313511.229 5   8815717.447 4
  23809216.616    -5791858.686 6  -4513130.884 3
  21073580.166   -15519047.314 9 -12092739.288 9
  22902597.760    -7488112.066 6  -5834893.013 2
 91  3 16  1 38 30.0000000  0  5  6 19 15  2 13
  21355784.093   -14844963.257 8 -11567478.206 9
  23193434.205    11391739.502 5   8876674.472 5
  23804977.574    -5814096.629 5  -4530458.978 4
  21074331.136   -15515109.666 9 -12089670.948 9
  22882666.069    -7592836.491 6  -5916496.617 4
 91  3 16  1 39  0.0000000  0  5  6 19 15  2 13
  21346677.592   -14892832.175 8 -11604778.554 9
  23208376.791    11470235.705 5   8937840.266 4
  23800846.410    -5835847.704 5  -4547407.713 3
  21075118.385   -15510988.183 9 -12086459.362 9
  22862796.100    -7697257.853 6  -5997864.105 3
 91  3 16  1 39 30.0000000  0  5  6 19 15  2 13
  21337606.794   -14940479.502 8 -11641906.238 9
  23223352.324    11549003.037 5   8999217.332 5
  23796796.807    -5857106.460 6  -4563972.816 5
  21075937.149   -15506679.493 9 -12083101.894 9
  22842987.939    -7801369.760 6  -6078990.407 3
 91  3 16  1 40  0.0000000  0  5  6 19 15  2 13
  21328584.229   -14987905.187 8 -11678861.202 9
  23238401.287    11628038.256 5   9060803.130 5
  23792844.054    -5877873.651 6  -4580154.894 3
  21076790.325   -15502186.071 9 -12079600.479 9
  22823231.605    -7905171.258 6  -6159874.872 2
 91  3 16  1 40 30.0000000  0  5  6 19 15  2 13
  21319601.241   -15035111.386 8 -11715645.154 9
  23253491.956    11707336.394 5   9122593.815 5
  23788987.835    -5898152.300 6  -4595956.297 5
  21077679.239   -15497512.599 9 -12075958.759 9
  22803536.731    -8008664.024 6  -6240518.786 3
 91  3 16  1 41  0.0000000  0  5  6 19 15  2 13
  21310660.552   -15082094.913 8 -11752255.606 9
  23268633.545    11786897.972 5   9184589.781 5
  23785229.616    -5917939.277 6  -4611374.581 4
  21078603.473   -15492658.424 9 -12072176.235 9
  22783900.629    -8111844.824 6  -6320919.549 4
 91  3 16  1 41 30.0000000  0  5  6 19 15  2 13
  21301762.686   -15128854.115 8 -11788691.244 9
  23283817.154    11866722.064 5   9246790.312 5
  23781557.462    -5937233.039 5  -4626408.541 4
  21079561.629   -15487624.193 9 -12068253.413 9
  22764326.894    -8214710.549 6  -6401074.817 4
 91  3 16  1 42  0.0000000  0  5  6 19 15  2 13
  21292908.026   -15175374.189 8 -11824940.558 9
  23299057.406    11946820.396 5   9309204.522 4
  23777974.654    -5956019.719 5  -4641047.399 4
  21080556.047   -15482398.038 9 -12064181.035 9
  22744816.085    -8317245.824 6  -6480972.567 2
 91  3 16  1 42 30.0000000  0  5  6 19 15  2 13
  21284101.914   -15221657.942 8 -11861005.718 9
  23314369.588    12027186.934 4   9371827.718 5
  23774503.037    -5974302.894 6  -4655293.874 5
  21081585.506   -15476985.422 9 -12059963.359 9
  22725367.049    -8419452.750 6  -6560614.516 3
 91  3 16  1 43  0.0000000  0  5  6 19 15  2 13
  21275338.379   -15267703.906 8 -11896885.596 9
  23329706.375    12107820.832 4   9434659.252 4
  23771117.486    -5992081.280 6  -4669147.003 4
  21082652.482   -15471387.009 9 -12055600.911 9
  22705977.065    -8521329.983 6  -6639999.540 3
 91  3 16  1 43 30.0000000  0  5  6 19 15  2 13
  21266620.739   -15313507.121 8 -11932576.311 9
  23345092.023    12188724.147 5   9497700.727 4
  23767829.690    -6009350.480 6  -4682603.385 4
  21083754.533   -15465600.493 9 -12051091.876 9
  22686653.671    -8622871.823 6  -6719123.229 5
 91  3 16  1 44  0.0000000  0  5  6 19 15  2 13
  21257951.017   -15359068.115 8 -11968078.281 9
  23360547.820    12269893.105 4   9560949.183 3
  23764634.800    -6026111.333 6  -4695663.648 4
  21084890.437   -15459628.868 9 -12046438.611 9
  22667394.704    -8724077.930 6  -6797985.302 2
 91  3 16  1 44 30.0000000  0  5  6 19 15  2 13
  21249331.692   -15404377.951 8 -12003384.539 9
  23376047.697    12351333.788 4   9624409.375 3
  23761548.415    -6042355.860 5  -4708321.595 4
  21086062.917   -15453465.988 9 -12041636.311 9
  22648206.758    -8824938.887 6  -6876578.432 1
 91  3 16  1 45  0.0000000  0  5  6 19 15  2 13
  21240755.538   -15449430.609 8 -12038490.406 9
  23391590.432    12433049.518 4   9688083.909 4
  23758555.004    -6058078.408 6  -4720572.791 4
  21087274.067   -15447108.082 9 -12036682.048 9
  22629077.306    -8925447.876 6  -6954897.288 4
 91  3 16  1 45 30.0000000  0  5  6 19 15  2 13
  21232232.433   -15494219.868 8 -12073391.026 9
  23407196.126    12515043.007 4   9751974.876 2
  23755662.282    -6073273.484 6  -4732412.973 4
  21088520.327   -15440551.969 9 -12031573.338 9
  22610021.599    -9025598.265 6  -7032936.718 4
 91  3 16  1 46  0.0000000  0  5  6 19 15  2 13
  21223762.411   -15538743.864 8 -12108084.942 9
  23422847.087    12597313.345 4   9816081.532 4
  23752874.819    -6087940.098 5  -4743841.352 3
  21089805.815   -15433797.811 9 -12026310.308 9
  22591025.571    -9125387.482 6  -7110694.753 4
 91  3 16  1 46 30.0000000  0  5  6 19 15  2 13
  21215338.528   -15583006.284 8 -12142575.032 9
  23438554.726    12679853.627 4   9880398.552 5
  23750182.704    -6102082.681 5  -4754861.405 5
  21091128.506   -15426851.894 9 -12020897.853 9
  22572105.661    -9224819.110 6  -7188174.142 4
 91  3 16  1 47  0.0000000  0  5  6 19 15  2 13
  21206962.633   -15627006.348 8 -12176860.694 9
  23454312.133    12762662.321 4   9944924.700 3
  23747590.683    -6115700.472 5  -4765472.539 4
  21092485.959   -15419716.020 9 -12015337.368 9
  22553256.494    -9323892.285 6  -7265374.229 4
 91  3 16  1 47 30.0000000  0  5  6 19 15  2 13
  21198641.287   -15670743.331 8 -12210941.346 9
  23470116.272    12845737.010 4  10009658.134 4
  23745100.293    -6128794.262 5  -4775675.370 4
  21093877.928   -15412392.100 9 -12009630.365 9
  22534471.195    -9422605.013 6  -7342293.399 3
 91  3 16  1 48  0.0000000  0  5  6 19 15  2 13
  21190371.524   -15714215.342 8 -12244815.534 9
  23485980.684    12929076.038 4  10074597.536 5
  23742706.472    -6141362.865 6  -4785468.980 5
  21095307.310   -15404880.664 9 -12003777.241 9
  22515756.953    -9520955.324 6  -7418930.199 3
 91  3 16  1 48 30.0000000  0  5  6 19 15  2 13
  21182147.620   -15757422.588 8 -12278483.425 9
  23501890.989    13012676.628 5  10139740.782 3
  23740415.747    -6153406.947 6  -4794853.836 5
  21096773.303   -15397184.336 9 -11997780.045 9
  22497108.359    -9618942.858 6  -7495284.308 2
 91  3 16  1 49  0.0000000  0  5  6 19 15  2 13
  21173976.172   -15800363.430 8 -12311943.715 9
  23517846.840    13096537.169 5  10205086.573 3
  23738224.558    -6164926.286 5  -4803829.821 4
  21098271.683   -15389304.331 9 -11991639.724 9
  22478531.451    -9716565.614 6  -7571354.152 3
 91  3 16  1 49 30.0000000  0  5  6 19 15  2 13
  21165854.178   -15843041.829 8 -12345199.509 9
  23533857.555    13180650.826 5  10270629.611 4
  23736127.531    -6175925.037 5  -4812400.143 3
  21099801.823   -15381246.859 9 -11985361.123 9
  22460026.437    -9813827.043 7  -7647142.481 2
 91  3 16  1 50  0.0000000  0  5  6 19 15  2 13
  21157784.673   -15885448.592 8 -12378243.639 9
  23549911.720    13265023.551 5  10336374.508 4
  23734136.600    -6186395.229 5  -4820558.630 5
  21101373.913   -15373005.061 9 -11978938.887 9
  22441580.231    -9910717.840 6  -7722641.992 4
 91  3 16  1 50 30.0000000  0  5  6 19 15  2 13
  21149764.030   -15927588.210 8 -12411079.604 9
  23566009.686    13349647.503 5  10402315.145 4
  23732244.299    -6196342.021 6  -4828309.240 4
  21102976.297   -15364586.029 9 -11972378.553 9
  22423217.332   -10007241.944 7  -7797855.296 3
 91  3 16  1 51  0.0000000  0  5  6 19 15  2 13
  21141795.842   -15969459.763 8 -12443706.683 9
  23582171.798    13434520.629 5  10468449.952 4
  23730451.254    -6205766.257 6  -4835652.682 4
  21104612.569   -15355991.617 9 -11965681.563 9
  22404918.301   -10103398.406 7  -7872782.579 4
 91  3 16  1 51 30.0000000  0  5  6 19 15  2 13
  21133881.330   -16011061.109 8 -12476123.214 9
  23598359.981    13519642.016 5  10534778.204 5
  23728753.522    -6214666.029 6  -4842587.477 4
  21106278.820   -15347222.056 9 -11958848.084 9
  22386688.512   -10199184.186 7  -7947421.046 3
 91  3 16  1 52  0.0000000  0  5  6 19 15  2 13
  21126018.960   -16052388.530 8 -12508326.300 9
  23614598.840    13605012.123 5  10601300.264 4
  23727166.425    -6223038.796 6  -4849111.585 4
  21107983.741   -15338276.055 9 -11951877.125 9
  22368537.877   -10294595.284 7  -8021767.081 3
 91  3 16  1 52 30.0000000  0  5  6 19 15  2 13
  21118205.486   -16093445.145 8 -12540318.370 9
  23630888.374    13690625.106 4  10668011.575 4
  23725669.266    -6230888.955 6  -4855228.495 5
  21109716.548   -15329159.267 9 -11944773.093 9
  22350451.704   -10389634.611 7  -8095823.886 4
 91  3 16  1 53  0.0000000  0  5  6 19 15  2 13
  21110441.744   -16134238.053 8 -12572104.955 9
  23647236.366    13776470.305 4  10734903.841 3
  23724272.516    -6238223.699 6  -4860943.765 3
  21111482.929   -15319881.564 9 -11937543.661 9
  22332433.586   -10484309.003 7  -8169596.338 4
 91  3 16  1 53 30.0000000  0  5  6 19 15  2 13
  21102728.085   -16174760.470 8 -12603680.778 9
  23663607.427    13862551.502 4  10801979.994 4
  23722978.024    -6245038.263 6  -4866253.692 3
  21113275.974   -15310438.479 9 -11930185.367 9
  22314488.306   -10578611.246 7  -8243078.830 4
 91  3 16  1 54  0.0000000  0  5  6 19 15  2 13
  21095068.381   -16215013.475 8 -12635046.655 9
  23680037.261    13948864.719 4  10869236.952 2
  23721780.066    -6251335.160 6  -4871160.253 4
  21115107.723   -15300833.614 9 -11922701.013 9
  22296613.489   -10672542.121 7  -8316271.944 5
 91  3 16  1 54 30.0000000  0  5  6 19 15  2 13
  21087463.856   -16254991.471 8 -12666198.246 9
  23696511.453    14035411.797 5  10936676.147 3
  23720675.921    -6257109.391 6  -4875659.550 3
  21116964.321   -15291063.605 9 -11915087.969 9
  22278814.197   -10766096.067 7  -8389170.869 2
 91  3 16  1 55  0.0000000  0  5  6 19 15  2 13
  21079907.877   -16294697.198 8 -12697137.682 9
  23713024.629    14122187.090 4  11004293.162 4
  23719684.190    -6262364.900 5  -4879754.651 4
  21118855.122   -15281133.835 9 -11907350.445 9
  22261076.993   -10859275.718 6  -8461778.613 5
 91  3 16  1 55 30.0000000  0  5  6 19 15  2 13
  21072403.480   -16334122.975 8 -12727858.974 9
  23729577.661    14209195.176 4  11072091.552 4
  23718780.618    -6267095.394 5  -4883440.668 5
  21120776.775   -15271039.201 9 -11899484.459 9
  22243421.317   -10952073.163 7  -8534088.518 5
 91  3 16  1 56  0.0000000  0  5  6 19 15  2 13
  21064952.726   -16373268.015 8 -12758361.512 9
  23746175.959    14296433.219 5  11140069.184 4
  23717980.177    -6271300.895 5  -4886717.564 4
  21122731.444   -15260781.502 9 -11891491.395 9
  22225832.160   -11044487.268 7  -8606099.243 5
 91  3 16  1 56 30.0000000  0  5  6 19 15  2 13
  21057560.465   -16412126.866 8 -12788641.046 9
  23762830.028    14383903.786 4  11208227.960 3
  23717276.863    -6274977.094 5  -4889582.029 4
  21124710.368   -15250358.175 9 -11883369.288 9
  22208323.694   -11136511.837 7  -8677806.912 4
 91  3 16  1 57  0.0000000  0  5  6 19 15  2 13
  21050220.624   -16450697.708 8 -12818696.160 9
  23779512.297    14471605.149 4  11276566.588 5
  23716677.588    -6278123.715 5  -4892033.820 5
  21126728.277   -15239769.512 9 -11875118.337 9
  22190885.971   -11228144.768 7  -8749208.926 4
 91  3 16  1 57 30.0000000  0  5  6 19 15  2 13
  21042935.996   -16488981.100 8 -12848527.283 9
  23796255.990    14559533.800 4  11345082.314 2
  23716179.942    -6280742.443 5  -4894074.273 5
  21128772.256   -15229018.385 9 -11866740.787 9
  22173520.177   -11319387.535 7  -8820306.939 3
 91  3 16  1 58  0.0000000  0  5  6 19 15  2 13
  21035707.382   -16526969.062 8 -12878128.197 9
  23813026.382    14647694.218 4  11413778.672 2
  23715786.615    -6282826.459 5  -4895698.097 4
  21130851.030   -15218099.182 9 -11858232.271 9
  22156232.944   -11410231.511 7  -8891094.680 4
 91  3 16  1 58 30.0000000  0  5  6 19 15  2 13
  21028532.760   -16564657.788 8 -12907495.935 9
  23829850.451    14736086.852 4  11482655.940 4
  23715488.600    -6284373.659 6  -4896903.607 5
  21132963.658   -15207010.753 9 -11849591.887 9
  22139021.271   -11500672.429 7  -8961567.862 3
 91  3 16  1 59  0.0000000  0  5  6 19 15  2 13
  21021419.877   -16602045.256 8 -12936628.933 9
  23846702.685    14824710.535 4  11551713.246 3
  23715294.030    -6285383.001 6  -4897690.011 5
  21135100.891   -15195753.249 9 -11840819.751 9
  22121890.532   -11590708.566 7  -9031726.120 4
 91  3 16  1 59 30.0000000  0  5  6 19 15  2 13
  21014363.044   -16639128.300 8 -12965524.726 9
  23863618.472    14913565.120 4  11620950.463 3
  23715211.909    -6285853.291 6  -4898056.359 4
  21137277.352   -15184326.270 9 -11831915.565 9
  22104834.131   -11680336.100 7  -9101565.990 5
 91  3 16  2  0  0.0000000  0  5  6 19 15  2 13
  21007364.111   -16675903.101 8 -12994180.322 9
  23880563.925    15002651.168 4  11690368.045 4
  23715225.974    -6285782.267 6  -4898000.911 4
  21139482.047   -15172728.780 9 -11822878.507 9
  22087854.790   -11769551.496 7  -9171084.251 5
 91  3 16  2  0 30.0000000  0  5  6 19 15  2 13
  21000425.101   -16712367.092 8 -13022593.740 9
  23897566.370    15091967.800 4  11759965.333 3
  23715341.704    -6285168.572 6  -4897522.598 5
  21141723.877   -15160960.378 9 -11813708.272 9
  22070960.885   -11858352.120 7  -9240279.282 5
 91  3 16  2  1  0.0000000  0  5  6 19 15  2 13
  20993546.365   -16748512.765 8 -13050759.111 9
  23914614.361    15181519.401 4  11829745.692 3
  23715562.973    -6284006.010 6  -4896616.604 4
  21143998.129   -15149015.752 9 -11804400.729 9
  22054140.445   -11946730.073 7  -9309144.962 5
 91  3 16  2  1 30.0000000  0  5  6 19 15  2 13
  20986733.277   -16784331.376 8 -13078669.627 9
  23931696.518    15271311.303 4  11899713.290 3
  23715886.430    -6282287.024 6  -4895277.035 5
  21146303.826   -15136888.511 9 -11794950.874 9
  22037405.407   -12034677.360 7  -9377675.553 5
 91  3 16  2  2  0.0000000  0  5  6 19 15  2 13
  20979980.775   -16819813.617 8 -13106318.041 9
  23948832.981    15361349.424 4  11969872.755 3
  23716322.022    -6280003.774 6  -4893497.766 5
  21148647.286   -15124572.436 9 -11785353.878 9
  22020751.652   -12122184.328 7  -9445862.551 5
 91  3 16  2  2 30.0000000  0  5  6 19 15  2 13
  20973289.978   -16854960.738 8 -13133705.319 9
  23966000.889    15451628.878 4  12040220.295 3
  23716861.373    -6277159.303 6  -4891281.191 4
  21151028.857   -15112070.847 9 -11775612.345 9
  22004180.332   -12209251.396 7  -9513706.767 4
 91  3 16  2  3  0.0000000  0  5  6 19 15  2 13
  20966665.770   -16889770.650 8 -13160829.836 9
  23983230.850    15542148.973 4  12110755.304 2
  23717512.197    -6273753.335 6  -4888627.106 4
  21153442.780   -15099384.435 9 -11765726.774 9
  21987698.322   -12295877.059 7  -9581207.053 5
 91  3 16  2  3 30.0000000  0  5  6 19 15  2 13
  20960106.618   -16924241.247 8 -13187689.950 9
  24000515.675    15632908.073 4  12181476.597 1
  23718258.403    -6269785.181 6  -4885534.929 4
  21155890.592   -15086512.969 9 -11755697.000 9
  21971297.282   -12382059.447 7  -9648361.914 5
 91  3 16  2  4  0.0000000  0  5  6 19 15  2 13
  20953613.112   -16958376.395 8 -13214288.664 9
  24017818.822    15723899.009 4  12252378.488 2
  23719127.180    -6265260.115 6  -4882008.796 4
  21158372.257   -15073462.907 9 -11745528.077 9
  21954981.677   -12467802.199 7  -9715174.206 6
 91  3 16  2  4 30.0000000  0  5  6 19 15  2 13
  20947179.566   -16992173.202 8 -13240623.748 9
  24035175.297    15815121.345 4  12323460.716 2
  23720094.934    -6260177.312 6  -4878048.056 4
  21160890.219   -15060233.842 9 -11735219.664 9
  21938748.228   -12553102.045 7  -9781641.368 7
 91  3 16  2  5  0.0000000  0  5  6 19 15  2 13
  20940812.889   -17025631.907 8 -13266695.384 9
  24052579.761    15906571.006 4  12394720.076 4
  23721169.379    -6254538.146 6  -4873653.802 4
  21163441.755   -15046828.142 9 -11724773.602 9
  21922603.496   -12637959.701 7  -9847763.975 6
 91  3 16  2  5 30.0000000  0  5  6 19 15  2 13
  20934510.324   -17058759.546 8 -13292509.034 9
  24070029.455    15998237.877 4  12466148.681 4
  23722345.453    -6248351.699 5  -4868833.120 3
  21166025.364   -15033255.376 9 -11714197.374 9
  21906538.232   -12722382.444 7  -9913547.686 5
 91  3 16  2  6  0.0000000  0  5  6 19 15  2 13
  20928271.069   -17091549.293 8 -13318059.395 9
  24087510.350    16090125.345 4  12537749.185 2
  23723625.287    -6241612.428 5  -4863581.636 2
  21168641.047   -15019511.266 9 -11703487.633 9
  21890554.775   -12806362.661 7  -9978986.594 4
 91  3 16  2  6 30.0000000  0  5  6 19 15  2 13
  20922093.831   -17124004.801 8 -13343349.316 9
  24105032.916    16182226.545 4  12609516.278 4
  23725013.312    -6234325.840 5  -4857903.690 3
  21171287.931   -15005601.320 9 -11692648.651 9
  21874657.103   -12889904.711 7 -10044084.060 5
 91  3 16  2  7  0.0000000  0  5  6 19 15  2 13
  20915981.683   -17156124.177 8 -13368377.311 9
  24122606.158    16274539.988 4  12681448.664 3
  23726505.690    -6226491.910 6  -4851799.238 3
  21173968.354   -14991526.291 9 -11681681.042 9
  21858844.554   -12973006.907 7 -10108838.779 5
 91  3 16  2  7 30.0000000  0  5  6 19 15  2 13
  20909932.739   -17187905.682 8 -13393142.035 9
  24140210.880    16367063.692 4  12753544.938 2
  23728096.975    -6218110.830 6  -4845268.422 4
  21176676.105   -14977287.241 9 -11670585.626 9
  21843116.219   -13055667.818 7 -10173249.657 5
 91  3 16  2  8  0.0000000  0  5  6 19 15  2 13
  20903948.292   -17219351.941 8 -13417645.537 9
  24157862.962    16459791.449 4  12825800.232 3
  23729797.988    -6209187.097 5  -4838314.756 5
  21179414.986   -14962888.845 9 -11659366.037 9
  21827469.446   -13137889.708 7 -10237318.425 6
 91  3 16  2  8 30.0000000  0  5  6 19 15  2 13
  20898029.806   -17250459.364 8 -13441885.005 9
  24175539.335    16552723.584 4  12898214.737 3
  23731597.664    -6199719.006 5  -4830936.930 4
  21182185.383   -14948329.900 9 -11648021.361 9
  21811904.550   -13219669.306 7 -10301042.556 5
 91  3 16  2  9  0.0000000  0  5  6 19 15  2 13
  20892176.061   -17281216.385 8 -13465851.439 9
  24193270.850    16645868.266 4  12970794.870 3
  23733504.030    -6189696.574 5  -4823127.169 4
  21184990.540   -14933601.206 9 -11636544.410 9
  21796429.557   -13300995.080 7 -10364413.044 5
 91  3 16  2  9 30.0000000  0  5  6 19 15  2 13
  20886392.151   -17311622.277 8 -13489544.264 9
  24211031.437    16739223.032 4  13043538.704 2
  23735516.250    -6179120.946 6  -4814886.323 3
  21187821.489   -14918704.592 9 -11624936.609 9
  21781038.500   -13381866.759 7 -10427429.709 5
 91  3 16  2 10  0.0000000  0  5  6 19 15  2 13
  20880672.703   -17341671.427 8 -13512959.099 9
  24228849.331    16832789.626 4  13116447.593 2
  23737636.381    -6167988.139 6  -4806211.296 4
  21190689.293   -14903636.299 9 -11613195.035 9
  21765738.882   -13462278.942 7 -10490088.330 5
 91  3 16  2 10 30.0000000  0  5  6 19 15  2 13
  20875017.716   -17371372.402 8 -13536102.634 9
  24246680.382    16926556.091 4  13189512.241 1
  23739857.829    -6156308.637 5  -4797110.281 5
  21193589.484   -14888407.469 9 -11601328.385 9
  21750520.233   -13542240.187 7 -10552395.564 5
 91  3 16  2 11  0.0000000  0  5  6 19 15  2 13
  20869433.192   -17400722.402 8 -13558972.693 9
  24264561.481    17020522.016 4  13262732.331 3
  23742185.444    -6144081.953 5  -4787582.899 5
  21196518.154   -14873017.572 9 -11589336.205 9
  21735390.615   -13621748.046 7 -10614349.522 6
 91  3 16  2 11 30.0000000  0  5  6 19 15  2 13
  20863917.004   -17429723.410 8 -13581570.806 9
  24282480.691    17114681.686 4  13336103.360 3
  23744614.060    -6131311.724 5  -4777631.983 4
  21199476.210   -14857470.959 9 -11577221.922 9
  21720348.213   -13700804.900 7 -10675952.033 5
 91  3 16  2 12  0.0000000  0  5  6 19 15  2 13
  20858463.497   -17458368.932 8 -13603891.920 9
  24300430.752    17209038.010 4  13409627.634 2
  23747151.182    -6117993.101 6  -4767253.743 5
  21202463.932   -14841763.196 9 -11564982.065 9
  21705389.782   -13779404.041 7 -10737197.919 5
 91  3 16  2 12 30.0000000  0  5  6 19 15  2 13
  20853082.513   -17486658.500 8 -13625935.660 9
  24318424.893    17303587.978 4  13483302.776 2
  23749787.561    -6104128.410 6  -4756449.999 5
  21205481.668   -14825896.112 9 -11552618.053 9
  21690519.160   -13857545.369 7 -10798087.074 4
 91  3 16  2 13  0.0000000  0  5  6 19 15  2 13
  20847765.990   -17514587.659 8 -13647698.571 9
  24336458.612    17398332.766 4  13557129.797 1
  23752530.980    -6089715.838 5  -4745219.310 4
  21208532.629   -14809867.452 9 -11540128.146 9
  21675740.885   -13935224.909 8 -10858616.377 5
 91  3 16  2 13 30.0000000  0  5  6 19 15  2 13
  20842517.837   -17542154.054 8 -13669178.807 9
  24354527.405    17493271.303 4  13631107.708 1
  23755374.807    -6074753.859 5  -4733560.556 5
  21211613.011   -14793677.526 9 -11527512.581 9
  21661043.264   -14012440.940 7 -10918784.505 6
 91  3 16  2 14  0.0000000  0  5  6 19 15  2 13
  20837347.302   -17569352.639 8 -13690372.432 9
  24372621.989    17588404.850 3  13705237.628 2
  23758327.767    -6059239.840 5  -4721471.629 3
  21214724.839   -14777323.723 9 -11514769.317 9
  21646439.491   -14089187.909 7 -10978587.139 6
 91  3 16  2 14 30.0000000  0  4  6 15  2 13
  20832240.356   -17596182.084 8 -13711278.430 9
  23761389.234    -6043174.473 6  -4708953.093 5
  21217869.682   -14760806.625 9 -11501898.817 9
  21631923.842   -14165465.340 7 -11038023.903 5
 91  3 16  2 15  0.0000000  0  4  6 15  2 13
  20827206.527   -17622636.206 8 -13731891.960 9
  23764549.957    -6026553.936 6  -4696001.968 4
  21221043.283   -14744122.130 9 -11488897.868 9
  21617498.131   -14241267.425 7 -11097090.259 6
 91  3 16  2 15 30.0000000  0  4  6 15  2 13
  20822246.756   -17648714.604 8 -13752212.725 9
  23767821.593    -6009379.396 6  -4682619.141 4
  21224251.366   -14727272.274 9 -11475768.049 9
  21603161.730   -14316593.940 7 -11155786.035 7
 91  3 16  2 16  0.0000000  0  4  6 15  2 13
  20817352.040   -17674413.982 8 -13772238.146 9
  23771191.230    -5991649.505 5  -4668803.560 5
  21227488.800   -14710255.391 9 -11462508.101 9
  21588920.398   -14391442.066 7 -11214109.060 6
 91  3 16  2 16 30.0000000  0  4  6 15  2 13
  20812536.478   -17699729.576 8 -13791964.510 9
  23774674.538    -5973362.437 5  -4654553.847 4
  21230759.844   -14693069.718 9 -11449116.619 9
  21574771.691   -14465807.140 7 -11272055.669 6
 91  3 16  2 17  0.0000000  0  4  6 15  2 13
  20807788.972   -17724661.531 8 -13811391.931 9
  23778254.974    -5954520.450 5  -4639871.717 3
  21234061.774   -14675717.549 9 -11435595.391 9
  21560712.330   -14539689.579 7 -11329626.213 6
 91  3 16  2 17 30.0000000  0  4  6 15  2 13
  20803118.805   -17749210.118 8 -13830520.613 9
  23781945.695    -5935125.841 5  -4624758.963 4
  21237395.149   -14658200.841 9 -11421945.958 9
  21546744.408   -14613090.575 7 -11386821.600 6
 91  3 16  2 18  0.0000000  0  4  6 15  2 13
  20798522.383   -17773371.809 8 -13849347.830 9
  23785741.990    -5915177.499 5  -4609214.730 3
  21240759.412   -14640518.627 9 -11408167.557 9
  21532867.018   -14686007.118 7 -11443639.507 6
 91  3 16  2 18 30.0000000  0  4  6 15  2 13
  20793995.831   -17797141.359 9 -13867869.479 9
  23789645.254    -5894671.834 5  -4593236.202 4
  21244157.562   -14622667.539 9 -11394257.558 9
  21519086.441   -14758434.054 7 -11500075.891 6
 91  3 16  2 19  0.0000000  0  4  6 15  2 13
  20789551.086   -17820512.687 9 -13886080.824 9
  23793654.407    -5873605.609 5  -4576820.944 3
  21247584.820   -14604643.938 9 -11380213.141 9
  21505395.838   -14830365.782 7 -11556126.406 7
 91  3 16  2 19 30.0000000  0  4  6 15  2 13
  20785179.213   -17843488.355 8 -13903983.863 9
  23797770.844    -5851983.701 5  -4559972.641 4
  21251045.896   -14586452.194 9 -11366037.696 9
  21491802.048   -14901805.122 7 -11611793.246 6
 91  3 16  2 20  0.0000000  0  4  6 15  2 13
  20780879.584   -17866067.487 9 -13921577.905 9
  23801985.944    -5829807.077 5  -4542692.090 4
  21254540.896   -14568093.787 9 -11351732.385 9
  21478301.478   -14972752.128 7 -11667076.455 6
 91  3 16  2 20 30.0000000  0  4  6 15  2 13
  20776662.425   -17888251.567 8 -13938864.122 9
  23806317.018    -5807079.980 5  -4524982.558 3
  21258065.246   -14549572.535 9 -11337300.175 9
  21464894.162   -15043208.426 7 -11721977.282 5
 91  3 16  2 21  0.0000000  0  4  6 15  2 13
  20772513.601   -17910041.040 8 -13955842.854 9
  23810735.378    -5783804.673 5  -4506845.887 3
  21261620.484   -14530890.657 9 -11322742.811 9
  21451579.471   -15113175.003 7 -11776496.519 6
 91  3 16  2 21 30.0000000  0  4  6 15  2 13
  20768442.116   -17931436.325 9 -13972514.423 9
  23815271.842    -5759983.836 5  -4488284.127 5
  21265206.888   -14512050.388 9 -11308062.016 9
  21438355.626   -15182652.947 7 -11830634.987 6
 91  3 16  2 22  0.0000000  0  4  6 15  2 13
  20764446.470   -17952432.892 8 -13988875.316 9
  23819916.810    -5735615.674 5  -4469295.889 5
  21268822.084   -14493049.591 9 -11293256.132 9
  21425230.410   -15251637.646 8 -11884389.132 7
 91  3 16  2 22 30.0000000  0  4  6 15  2 13
  20760529.699   -17973033.778 8 -14004927.876 9
  23824652.346    -5710706.057 6  -4449885.752 5
  21272465.794   -14473893.695 9 -11278329.419 9
  21412195.760   -15320133.465 7 -11937762.316 6
 91  3 16  2 23  0.0000000  0  4  6 15  2 13
  20756684.229   -17993235.267 8 -14020669.222 9
  23829497.573    -5685253.098 6  -4430052.192 3
  21276141.229   -14454580.846 9 -11263280.393 9
  21399254.295   -15388137.081 7 -11990751.971 6
 91  3 16  2 23 30.0000000  0  4  6 15  2 13
  20752915.261   -18013035.082 8 -14036097.576 9
  23834443.244    -5659257.137 6  -4409795.532 4
  21279845.177   -14435110.772 9 -11248108.847 9
  21386408.213   -15455647.158 8 -12043357.062 6
 91  3 16  2 24  0.0000000  0  4  6 15  2 13
  20749226.006   -18032430.627 8 -14051210.913 9
  23839495.361    -5632717.567 6  -4389115.264 4
  21283583.572   -14415482.398 9 -11232813.950 9
  21373654.721   -15522660.687 8 -12095575.241 6
 91  3 16  2 24 30.0000000  0  4  6 15  2 13
  20745612.624   -18051417.633 8 -14066005.913 9
  23844649.981    -5605632.936 6  -4368010.285 4
  21287345.979   -14395693.846 9 -11217394.249 9
  21360998.392   -15589174.293 8 -12147403.869 6
 91  3 16  2 25  0.0000000  0  4  6 15  2 13
  20742078.955   -18069989.767 8 -14080477.648 9
  23849908.639    -5577999.383 6  -4346477.580 4
  21291143.740   -14375741.017 9 -11201846.546 9
  21348438.598   -15655182.639 8 -12198838.789 7
 91  3 16  2 25 30.0000000  0  4  6 15  2 13
  20738618.752   -18088145.225 8 -14094624.681 9
  23855270.428    -5549817.816 6  -4324517.877 5
  21294974.202   -14355623.742 9 -11186170.697 9
  21335974.710   -15720684.034 8 -12249878.684 6
 91  3 16  2 26  0.0000000  0  4  6 15  2 13
  20735243.984   -18105886.206 8 -14108448.756 9
  23860736.848    -5521092.822 6  -4302134.685 5
  21298830.735   -14335346.341 9 -11170370.077 9
  21323602.261   -15785681.442 8 -12300525.839 7
 91  3 16  2 26 30.0000000  0  4  6 15  2 13
  20731949.558   -18123210.128 8 -14121947.851 9
  23866300.396    -5491824.460 6  -4279328.091 4
  21302717.841   -14314908.498 9 -11154444.439 9
  21311332.385   -15850173.086 8 -12350778.919 7
 91  3 16  2 27  0.0000000  0  4  6 15  2 13
  20728732.505   -18140114.382 8 -14135119.929 9
  23871976.359    -5462012.252 6  -4256097.748 4
  21306640.336   -14294309.257 9 -11138393.028 9
  21299158.415   -15914156.757 8 -12400636.173 6
 91  3 16  2 27 30.0000000  0  4  6 15  2 13
  20725595.166   -18156598.350 8 -14147964.523
  23877754.859    -5431658.752 5  -4232445.610 4
  21310591.588   -14273549.925 9 -11122216.884 9
  21287076.164   -15977632.971 8 -12450098.013 7
 91  3 16  2 28  0.0000000  0  4  6 15  2 13
  20722538.481   -18172658.962 8 -14160479.217 9
  23883629.021    -5400763.205 5  -4208371.111 5
  21314571.634   -14252628.916 9 -11105914.756 9
  21275094.076   -16040599.156 8 -12499162.422 6
 91  3 16  2 28 30.0000000  0  4  6 15  2 13
  20719562.451   -18188291.496 8 -14172660.352 9
  23889619.471    -5369323.480 6  -4183872.548 5
  21318582.253   -14231543.936 9 -11089484.858 9
  21263208.803   -16103051.624 8 -12547826.540 7
 91  3 16  2 29  0.0000000  0  4  6 15  2 13
  20716672.730   -18203492.039 8 -14184504.858 9
  23895704.362    -5337337.301 6  -4158948.174 5
  21322626.166   -14210293.071 9 -11072925.710 9
  21251423.030   -16164986.318 8 -12596087.192 6
 91  3 16  2 29 30.0000000  0  4  6 15  2 13
  20713860.383   -18218256.852 8 -14196009.861 9
  23901895.071    -5304804.750 5  -4133598.093 5
  21326703.340   -14188874.215 9 -11056235.656 9
  21239738.644   -16226400.785 8 -12643942.467 7
 91  3 16  2 30  0.0000000  0  4  6 15  2 13
  20711135.880   -18232587.784 8 -14207176.747 9
  23908185.596    -5271730.220 5  -4107825.660 3
  21330812.273   -14167290.946 9 -11039417.473 9
  21228151.350   -16287297.432 8 -12691394.257 6
 91  3 16  2 30 30.0000000  0  4  6 15  2 13
  20708492.626   -18246479.485 8 -14218001.377 9
  23914587.662    -5238110.592 5  -4081628.486 3
  21334949.405   -14145539.624 9 -11022468.343 9
  21216661.219   -16347671.725 8 -12738439.024 7
 91  3 16  2 31  0.0000000  0  4  6 15  2 13
  20705932.365   -18259928.887 8 -14228481.363 9
  23921090.485    -5203945.543 6  -4055006.328 3
  21339119.518   -14123619.593 9 -11005387.751 9
  21205269.682   -16407521.482 8 -12785075.061 6
 91  3 16  2 31 30.0000000  0  4  6 15  2 13
  20703456.703   -18272936.254 8 -14238616.906 9
  23927691.903    -5169237.707 6  -4027961.189 4
  21343323.241   -14101532.313 9 -10988176.839 9
  21193980.404   -16466847.509 8 -12831302.988 7
 91  3 16  2 32  0.0000000  0  4  6 15  2 13
  20701067.942   -18285498.412 8 -14248405.533 9
  23934402.454    -5133987.530 5  -4000493.486 3
  21347558.095   -14079276.701 9 -10970834.764 9
  21182792.162   -16525647.793 8 -12877121.231 7
 91  3 16  2 32 30.0010000  0  4  6 15  2 13
  20698759.264   -18297612.359 8 -14257844.905 9
  23941207.152    -5098192.160 5  -3972600.937 4
  21351826.823   -14056850.746 9 -10953359.957 9
  21171700.126   -16583921.383 8 -12922529.102 7
 91  3 16  2 33  0.0010000  0  4  6 15  2 13
  20696542.598   -18309275.443 8 -14266932.959 9
  23948121.871    -5061854.927 5  -3944286.158 4
  21356124.951   -14034255.548 9 -10935753.260 9
  21160716.924   -16641662.718 8 -12967522.194 6
 91  3 16  2 33 30.0010000  0  4  6 15  2 13
  20694408.052   -18320488.406 8 -14275670.269 9
  23955139.685    -5024978.145 6  -3915550.963 5
  21360454.873   -14011492.216 9 -10918015.557 9
  21149827.569   -16698875.554 8 -13012103.490 7
 91  3 16  2 34  0.0010000  0  4  6 15  2 13
  20692360.165   -18331250.484 8 -14284056.240 9
  23962266.982    -4987563.371 5  -3886396.528 3
  21364821.651   -13988561.878 9 -10900147.719 9
  21139041.939   -16755559.769 8 -13056272.880 7
 91  3 16  2 34 30.0010000  0  4  6 15  2 13
  20690394.153   -18341561.799 8 -14292090.968 9
  23969481.461    -4949613.569 5  -3856825.181 4
  21369215.999   -13965466.230 9 -10882151.072 9
  21128354.029   -16811716.796 8 -13100031.464 6
 91  3 16  2 35  0.0010000  0  4  6 15  2 13
  20688523.141   -18351416.542 8 -14299769.927 9
  23976806.294    -4911125.507 5  -3826834.443 3
  21373640.921   -13942201.275 9 -10864022.505 9
  21117767.471   -16867340.970 8 -13143374.834 6
 91  3 16  2 35 30.0010000  0  4  6 15  2 13
  20686731.562   -18360813.072 8 -14307091.834 9
  23984230.978    -4872100.644 5  -3796425.422 5
  21378104.547   -13918766.938 9 -10845761.939 9
  21107285.230   -16922431.761 8 -13186302.585 7
 91  3 16  2 36  0.0010000  0  4  6 15  2 13
  20685032.364   -18369753.977 8 -14314058.720 9
  23991756.943    -4832544.519 5  -3765602.407 5
  21382593.930   -13895167.631 9 -10827372.816 9
  21096903.711   -16976992.829 8 -13228817.565 7
 91  3 16  2 36 30.0010000  0  4  6 15  2 13
  20683419.476   -18378231.596 8 -14320664.603 9
  23999393.856    -4792451.392 5  -3734360.964 5
  21387118.422   -13871397.277 9 -10808850.433 9
  21086619.949   -17031017.374 8 -13270914.471 7
 91  3 16  2 37  0.0010000  0  4  6 15  2 13
  20681891.709   -18386245.192 8 -14326908.910 9
  24007118.928    -4751823.576 5  -3702702.894 6
  21391673.138   -13847456.506 9 -10790195.248 9
  21076443.785   -17084505.392 8 -13312593.296 7
 91  3 16  2 37 30.0010000  0  4  6 15  2 13
  20680458.104   -18393791.214 8 -14332788.861 9
  24014955.506    -4710661.251 5  -3670628.293 5
  21396258.462   -13823343.607 9 -10771405.926 9
  21066367.471   -17137453.940 8 -13353851.764 8
 91  3 16  2 38  0.0010000  0  4  6 15  2 13
  20679110.249   -18400871.373 8 -14338305.810 9
  24022888.899    -4668968.007 5  -3638140.011 5
  21400880.362   -13799061.983 9 -10752485.138 9
  21056393.973   -17189865.843 8 -13394692.065 7
 91  3 16  2 38 30.0010000  0  4  6 15  2 13
  20677851.425   -18407480.955 8 -14343456.078 9
  24030919.733    -4626742.180 5  -3605236.755 6
  21405534.370   -13774608.238 9 -10733430.226 9
  21046522.385   -17241737.644 8 -13435111.518 7
 91  3 16  2 39  0.0010000  0  4  6 15  2 13
  20676686.135   -18413620.676 8 -14348240.218 9
  24039060.888    -4583987.306 5  -3571921.247 5
  21410221.324   -13749984.781 9 -10714243.071 9
  21036753.648   -17293070.695 8 -13475111.161 7
 91  3 16  2 39 30.0010000  0  4  6 15  2 13
  20675605.373   -18419286.076 8 -14352654.762 9
  24047295.018    -4540702.404 5  -3538192.726 5
  21414940.037   -13725188.979 9 -10694921.629 9
  21027090.451   -17343861.300 8 -13514688.126 7
 91  3 16  2 40  0.0010000  0  4  6 15  2 13
  20674615.771   -18424471.076 8 -14356694.964 9
  24055634.931    -4496883.387 5  -3504048.028 3
  21419692.953   -13700216.212 9 -10675462.284 9
  21017530.384   -17394104.658 8 -13553838.651 8
 91  3 16  2 40 30.0010000  0  4  6 15  2 13
  20673726.264   -18429172.368 8 -14360358.262 9
  24064078.602    -4452530.181 5  -3469487.093 2
  21424476.127   -13675064.444 9 -10655863.451 9
  21008071.912   -17443798.395 8 -13592560.899 8
 91  3 16  2 41  0.0010000  0  4  6 15  2 13
  20672920.727   -18433390.512 8 -14363645.065 9
  24072623.869    -4407646.044 5  -3434512.446 3
  21429297.413   -13649735.572 9 -10636126.629 9
  20998717.479   -17492943.643 8 -13630855.763 8
 91  3 16  2 41 30.0010000  0  4  6 15  2 13
  20672210.817   -18437122.146 8 -14366552.791 9
  24081255.794    -4362230.505 5  -3399123.700 3
  21434152.238   -13624227.574 9 -10616250.217 9
  20989470.678   -17541538.035 8 -13668721.394 8
 91  3 16  2 42  0.0010000  0  4  6 15  2 13
  20671598.943   -18440364.270 8 -14369079.072 9
  24089998.632    -4316283.851 5  -3363321.097 2
  21439040.044   -13598539.373 9 -10596233.385 9
  20980330.917   -17589579.943 8 -13706156.525 9
 91  3 16  2 42 30.0010000  0  4  6 15  2 13
  20671071.632   -18443118.711 8 -14371225.346 9
  24098844.008    -4269809.946 5  -3327107.612 4
  21443961.145   -13572674.044 9 -10576078.542 9
  20971292.472   -17637072.230 8 -13743163.372 8
 91  3 16  2 43  0.0010000  0  4  6 15  2 13
  20670642.601   -18445379.512 8 -14372986.966 9
  24107788.012    -4222806.368 6  -3290481.421 2
  21448917.915   -13546626.626 9 -10555781.812 9
  20962360.753   -17684009.403 8 -13779737.655 8
 91  3 16  2 43 30.0010000  0  4  6 15  2 13
  20670304.136   -18447144.929 8 -14374362.558 9
  24116835.148    -4175274.404 5  -3253443.496 4
  21453908.851   -13520397.221 9 -10535343.278 9
  20953532.164   -17730390.938 8 -13815878.994 8
 91  3 16  2 44  0.0010000  0  4  6 15  2 13
  20670064.929   -18448410.732 8 -14375348.853 9
  24125976.723    -4127212.166 5  -3215992.404 3
  21458935.770   -13493983.281 9 -10514760.951 9
  20944815.117   -17776214.248 8 -13851585.350 7
 91  3 16  2 44 30.0010000  0  4  6 15  2 13
  20669920.406   -18449177.344 8 -14375946.166 9
  24135226.525    -4078622.803 6  -3178130.525 2
  21463994.484   -13467385.917 9 -10494035.701 9
  20936200.573   -17821480.055 8 -13886857.282 8
 91  3 16  2 45  0.0010000  0  4  6 15  2 13
  20669871.546   -18449434.448 8 -14376146.492 9
  24144574.049    -4029499.539 6  -3139852.641 3
  21469097.556   -13440596.163 9 -10473160.519 9
  20927693.661   -17866179.414 8 -13921687.834 8
 91  3 16  2 45 30.0010000  0  4  6 15  2 13
  20669917.405   -18449189.478 8 -14375955.551 9
  24154026.832    -3979852.505 6  -3101166.571 2
  21474227.012   -13413623.064 9 -10452142.482 9
  20919296.163   -17910320.909 8 -13956083.688 7
 91  3 16  2 46  0.0010000  0  4  6 15  2 13
  20670060.427   -18448441.488 7 -14375372.662 9
  24163572.205    -3929683.337 6  -3062073.714 2
  21479395.139   -13386467.122 9 -10430981.964 9
  20911002.703   -17953904.382 8 -13990044.726 8
 91  3 16  2 46 30.0010000  0  4  6 15  2 13
  20670296.040   -18447187.648 8 -14374395.593 9
  24173214.428    -3878992.507 5  -3022574.323 3
  21484600.120   -13359126.503 9 -10409677.552 9
  20902814.467   -17996927.899 8 -14023569.431 8
 91  3 16  2 47  0.0010000  0  4  6 15  2 13
  20670629.408   -18445425.417 8 -14373022.382 9
  24182957.094    -3827780.371 5  -2982668.751 4
  21489836.895   -13331599.717 9 -10388228.083 9
  20894734.493   -18039389.397 8 -14056656.188 8
 91  3 16  2 47 30.0010000  0  4  6 15  2 13
  20671062.034   -18443160.309 7 -14371257.328 9
  24192803.763    -3776055.323 5  -2942363.518 4
  21495108.432   -13303893.957 9 -10366639.140 9
  20886760.895   -18081296.588 8 -14089311.037 9
 91  3 16  2 48  0.0010000  0  4  6 15  2 13
  20671588.752   -18440393.161 7 -14369101.064 9
  24202745.187    -3723821.137 6  -2901661.572 4
  21500415.671   -13276011.256 9 -10344912.326 9
  20878892.243   -18122651.276 8 -14121535.352 8
 91  3 16  2 48 30.0010000  0  4  6 15  2 13
  20672211.131   -18437122.966 8 -14366552.814 9
  24212777.457    -3671079.475 5  -2860564.137 2
  21505754.076   -13247951.134 9 -10323047.266 9
  20871122.813   -18163453.052 8 -14153328.837 9
 91  3 16  2 49  0.0010000  0  4  6 15  2 13
  20672927.637   -18433348.257 8 -14363611.443 9
  24222913.416    -3617832.241 5  -2819072.777 5
  21511129.651   -13219713.650 9 -10301043.997 9
  20863466.425   -18203701.939 8 -14184691.503 8
 91  3 16  2 49 30.0010000  0  4  6 15  2 13
  20673743.958   -18429070.086 7 -14360277.753 9
  24233136.347    -3564083.204 5  -2777190.407 4
  21516537.020   -13191300.773 9 -10278904.067 9
  20855911.946   -18243400.010 9 -14215624.960 9
 91  3 16  2 50  0.0010000  0  4  6 15  2 13
  20674655.348   -18424280.147 8 -14356545.296 9
  24243460.314    -3509827.432 5  -2734913.207 5
  21521979.743   -13162705.837 9 -10256622.267 9
  20848464.194   -18282540.062 8 -14246123.596 8
 91  3 16  2 50 30.0010000  0  4  6 15  2 13
  20675664.739   -18418979.300 8 -14352414.730 9
  24253879.002    -3455067.981 5  -2692243.543 4
  21527450.351   -13133930.731 9 -10234200.093 9
  20841121.386   -18321124.002 8 -14276188.896 8
 91  3 16  2 51  0.0010000  0  4  6 15  2 13
  20676767.976   -18413170.392 8 -14347888.267 9
  24264400.820    -3399811.268 5  -2649186.376 5
  21532961.130   -13104978.703 9 -10211640.044 9
  20833884.711   -18359156.044 8 -14305824.148 7
 91  3 16  2 51 30.0010000  0  4  6 15  2 13
  20677971.937   -18406851.015 8 -14342964.043 9
  24275012.542    -3344057.258 5  -2605741.682 4
  21538505.797   -13075848.710 9 -10188941.307 9
  20826752.947   -18396634.430 8 -14335027.990 8
 91  3 16  2 52  0.0010000  0  4  6 15  2 13
  20679268.837   -18400025.300 8 -14337645.258 9
  24285705.267    -3287813.321 5  -2561915.242 5
  21544080.129   -13046546.016 8 -10166108.009 9
  20819726.407   -18433564.738 8 -14363804.752 8
 91  3 16  2 52 30.0010000  0  4  6 15  2 13
  20680666.774   -18392691.385 8 -14331930.482 9
  24296514.560    -3231080.359 5  -2517707.744 4
  21549690.444   -13017070.059 8 -10143139.696 9
  20812801.184   -18469946.430 8 -14392154.009 7
 91  3 16  2 53  0.0010000  0  4  6 15  2 13
  20682158.837   -18384848.957 8 -14325819.466 9
  24307397.947    -3173861.081 5  -2473121.310 4
  21555329.552   -12987421.239 8 -10120036.692 9
  20805983.034   -18505780.221 8 -14420076.352 8
 91  3 16  2 53 30.0010000  0  4  6 15  2 13
  20683748.622   -18376493.272 8 -14319308.506 9
  24318379.648    -3116154.293 5  -2428154.968 4
  21561007.608   -12957595.942 8 -10096796.177 9
  20799269.482   -18541062.122 8 -14447568.635 8
 91  3 16  2 54  0.0010000  0  4  6 15  2 13
  20685432.882   -18367622.850 8 -14312396.457 9
  24329460.571    -3057960.841 5  -2382809.394 4
  21566718.087   -12927593.861 8 -10073417.895 9
  20792656.059   -18575791.829 8 -14474630.636 8
 91  3 16  2 54 30.0010000  0  4  6 15  2 13
  20687223.239   -18358234.981 8 -14305081.199 9
  24340616.740    -2999280.505 5  -2337084.410 5
  21572458.790   -12897412.771 8 -10049900.131 9
  20786153.829   -18609967.888 8 -14501261.236 8
 91  3 16  2 55  0.0010000  0  4  6 15  2 13
  20689107.130   -18348330.948 8 -14297363.735 9
  24351873.945    -2940118.130 6  -2290983.854 3
  21578236.104   -12867054.925 8 -10026244.636 9
  20779757.765   -18643593.201 8 -14527462.681 8
 91  3 16  2 55 30.0010000  0  4  6 15  2 13
  20691089.963   -18337909.924 8 -14289243.431 9
  24363222.904    -2880476.475 5  -2244509.836 4
  21584045.770   -12836520.075 8 -10002451.212 9
  20773461.517   -18676667.929 8 -14553235.092 8
 91  3 16  2 56  0.0010000  0  4  6 15  2 13
  20693173.798   -18326968.413 8 -14280717.539 9
  24374668.362    -2820354.446 6  -2197661.490 2
  21589892.640   -12805805.838 8  -9978518.005 9
  20767272.623   -18709189.990 8 -14578576.859 7
 91  3 16  2 56 30.0010000  0  4  6 15  2 13
  20695356.018   -18315505.800 8 -14271785.607 9
  24386197.197    -2759754.312 6  -2150440.600 4
  21595768.268   -12774912.536 8  -9954445.266 9
  20761188.640   -18741159.477 8 -14603488.055 8
 91  3 16  2 57  0.0010000  0  4  6 15  2 13
  20697633.830   -18303522.828 8 -14262448.197 9
  24397822.846    -2698679.697 6  -2102849.949 2
  21601680.750   -12743841.487 8  -9930234.021 9
  20755211.661   -18772578.464 8 -14627970.271 8
 91  3 16  2 57 30.0010000  0  4  6 15  2 13
  20700011.771   -18291016.479 8 -14252702.955 9
  24409536.026    -2637130.668 6  -2054889.634 1
  21607629.250   -12712591.046 8  -9905883.003 9
  20749337.534   -18803445.340 8 -14652022.288 8
 91  3 16  2 58  0.0010000  0  4  6 15  2 13
  20702493.157   -18277985.903 8 -14242549.229 9
  24421335.549    -2575109.630 5  -2006561.576 2
  21613607.416   -12681160.482 8  -9881391.621 9
  20743568.631   -18833760.015 8 -14675644.024 8
 91  3 16  2 58 30.0010000  0  4  6 15  2 13
  20705073.172   -18264429.166 8 -14231985.503 9
  24433228.919    -2512616.714 5  -1957865.766 2
  21619624.530   -12649548.600 8  -9856758.948 9
  20737904.046   -18863522.260 8 -14698835.277 9
 91  3 16  2 59  0.0010000  0  4  6 15  2 13
  20707753.316   -18250341.773 8 -14221008.289 9
  24445206.539    -2449650.256 5  -1908800.987 3
  21625676.754   -12617751.868 8  -9831982.245 9
  20732346.501   -18892728.159 8 -14721593.021 8
 91  3 16  2 59 30.0010000  0  4  6 15  2 13
  20710537.184   -18235721.083 8 -14209615.514 9
  24457282.788    -2386211.433 5  -1859368.152 3
  21631762.832   -12585768.461 8  -9807060.079 9
  20726894.460   -18921376.630 8 -14743916.403 8
 91  3 16  3  0  0.0010000  0  4  6 15  2 13
  20713420.902   -18220568.779 8 -14197808.502 9
  24469442.972    -2322304.258 5  -1809570.385 2
  21637883.705   -12553600.562 8  -9781994.147 9
  20721548.585   -18949470.579 8 -14765807.696 9
 91  3 16  3  0 30.0010000  0  4  6 15  2 13
  20716403.842   -18204883.011 8 -14185585.803 9
  24481689.465    -2257929.791 5  -1759408.391 3
  21644039.932   -12521246.751 8  -9756783.356 9
  20716310.903   -18977009.286 8 -14787266.325 8
 91  3 16  3  1  0.0010000  0  4  6 15  2 13
  20719492.287   -18188665.623 8 -14172948.854 9
  24494029.526    -2193093.203 5  -1708886.357 5
  21650232.456   -12488709.810 8  -9731429.869 9
  20711174.850   -19003996.105 8 -14808294.920 8
 91  3 16  3  1 30.0010000  0  4  6 15  2 13
  20722679.394   -18171911.468 8 -14159893.643 9
  24506452.022    -2127792.255 5  -1658002.539 5
  21656460.648   -12455985.030 8  -9705930.015 9
  20706144.336   -19030427.074 8 -14828890.390 8
 91  3 16  3  2  0.0010000  0  4  6 15  2 13
  20725969.005   -18154619.769 8 -14146419.576 9
  24518974.054    -2062028.290 5  -1606757.892 4
  21662723.322   -12423072.332 9  -9680283.729 9
  20701219.954   -19056302.334 8 -14849052.836 9
 91  3 16  3  2 30.0010000  0  4  6 15  2 13
  20729366.248   -18136792.131 8 -14132527.894 9
  24531573.146    -1995806.627 5  -1555156.644 4
  21669019.535   -12389974.200 8  -9654492.938 9
  20696399.297   -19081625.299 8 -14868784.919 8
 91  3 16  3  3  0.0010000  0  4  6 15  2 13
  20732851.929   -18118433.127 8 -14118222.146 9
  24544257.954    -1929134.780 5  -1503204.558 4
  21675354.174   -12356695.334 8  -9628561.330 9
  20691687.738   -19106401.681 8 -14888091.106 9
 91  3 16  3  3 30.0010000  0  4  6 15  2 13
  20736453.654   -18099539.086 8 -14103499.486 9
  24557036.330    -1862011.896 5  -1450901.012 3
  21681719.943   -12323232.322 8  -9602486.234 9
  20687076.343   -19130628.350 8 -14906968.933 9
 91  3 16  3  4  0.0010000  0  4  6 15  2 13
  20740151.006   -18080108.048 8 -14088358.392 9
  24569894.418    -1794438.946 5  -1398246.786 4
  21688122.323   -12289583.895 8  -9576266.655 9
  20682569.266   -19154304.730 8 -14925417.966 9
 91  3 16  3  4 30.0010000  0  4  6 15  2 13
  20743951.454   -18060134.257 8 -14072794.370 9
  24582840.665    -1726412.516 5  -1345239.181 3
  21694563.059   -12255745.006 9  -9549898.667 9
  20678169.508   -19177426.598 8 -14943434.927 9
 91  3 16  3  5  0.0010000  0  4  6 15  2 13
  20747856.569   -18039620.110 8 -14056809.300 9
  24595868.439    -1657937.821 5  -1291882.281 3
  21701035.868   -12221718.271 9  -9523384.294 9
  20673874.660   -19199997.764 8 -14961022.762 9
 91  3 16  3  5 30.0010000  0  4  6 15  2 13
  20751860.870   -18018561.940 8 -14040400.309 9
  24608991.247    -1589014.611 5  -1238175.905 1
  21707550.070   -12187500.378 9  -9496720.970 9
  20669686.259   -19222015.385 8 -14978179.260 8
 91  3 16  3  6  0.0010000  0  4  6 15  2 13
  20755971.653   -17996961.003 8 -14023568.393 9
  24622182.111    -1519646.694 5  -1184123.002 2
  21714099.032   -12153093.238 9  -9469910.178 9
  20665600.116   -19243482.099 8 -14994906.496 9
 91  3 16  3  6 30.0010000  0  4  6 15  2 13
  20760187.311   -17974815.875 8 -14006312.436 9
  24635470.731    -1449836.232 5  -1129725.262 2
  21720681.289   -12118495.896 9  -9442951.173 9
  20661619.442   -19264398.201 8 -15011204.667 9
 91  3 16  3  7  0.0010000  0  4  6 15  2 13
  20764501.633   -17952125.890 8 -13988631.915 9
  24648845.660    -1379583.999 5  -1074983.254 3
  21727301.901   -12083707.646 9  -9415843.411 9
  20657742.248   -19284763.798 8 -15027073.875 9
 91  3 16  3  7 30.0010000  0  4  6 15  2 13
  20768922.681   -17928890.145 7 -13970526.124 9
  24662289.237    -1308892.723 5  -1019899.167 3
  21733959.090   -12048727.800 9  -9388586.355 9
  20653974.153   -19304578.830 8 -15042514.081 9
 91  3 16  3  8  0.0010000  0  4  6 15  2 13
  20773448.046   -17905123.405 7 -13952006.565 9
  24675824.569    -1237780.479 5   -964487.067 4
  21740647.479   -12013572.114 9  -9361192.293 9
  20650304.407   -19323860.065 8 -15057538.332 9
 91  3 16  3  8 30.0010000  0  4  6 15  2 13
  20778076.542   -17880792.788 7 -13933047.617 9
  24689439.368    -1166216.642 5   -908723.062 4
  21747376.597   -11978207.351 9  -9333635.306 8
  20646741.666   -19342575.893 8 -15072122.005 8
 91  3 16  3  9  0.0010000  0  4  6 15  2 13
  20782814.764   -17855901.722 7 -13913651.948 9
  24703142.885    -1094207.155 5   -852611.802 4
  21754146.514   -11942637.391 9  -9305918.425 9
  20643286.558   -19360730.941 8 -15086268.717 9
 91  3 16  3  9 30.0010000  0  4  6 15  2 13
  20787654.303   -17830457.755 7 -13893825.451 9
  24716926.114    -1021762.565 6   -796161.463 4
  21760954.507   -11906869.439 9  -9278047.281 9
  20639936.360   -19378333.927 8 -15099985.244 9
 91  3 16  3 10  0.0010000  0  4  6 15  2 13
  20792602.068   -17804468.364 7 -13873573.945 9
  24730796.035     -948893.373 6   -739380.259 3
  21767793.666   -11870912.075 9  -9250028.532 9
  20636693.830   -19395393.349 8 -15113278.211 9
 91  3 16  3 10 30.0010000  0  4  6 15  2 13
  20797653.592   -17777927.328 7 -13852892.601 9
  24744742.668     -875595.512 6   -682265.017 3
  21774673.903   -11834758.493 9  -9221856.876 9
  20633550.174   -19411904.104 8 -15126143.659 9
 91  3 16  3 11  0.0010000  0  5  6 12 15  2 13
  20802806.432   -17750837.162 7 -13831783.366 9
  25070222.245     -789673.244 4   -615329.904 2
  24758771.771     -801874.638 5   -624820.220 3
  21781591.623   -11798411.720 9  -9193534.697 9
  20630512.998   -19427870.243 8 -15138584.720 9
 91  3 16  3 11 30.0010000  0  5  6 12 15  2 13
  20808066.590   -17723199.646 7 -13810247.612 9
  25051792.197     -886481.519 3   -690765.065 2
  24772886.589     -727735.785 5   -567049.696 3
  21788542.603   -11761873.731 8  -9165063.508 9
  20627576.825   -19443295.008 8 -15150603.929 9
 91  3 16  3 12  0.0010000  0  5  6 12 15  2 13
  20813428.379   -17695015.544 8 -13788285.953 9
  25033373.248     -983313.980 3   -766219.159 1
  24787067.368     -653181.962 5   -508955.786 2
  21795534.382   -11725145.512 8  -9136444.088 9
  20624743.188   -19458180.368 8 -15162202.827 9
 91  3 16  3 12 30.0010000  0  5  6 12 15  2 13
  20818898.674   -17666281.139 8 -13765895.475 9
  25014949.203    -1080165.002 4   -841687.609 2
  24801326.988     -578212.396 4   -450537.966 3
  21802561.200   -11688223.085 8  -9107673.353 9
  20622014.184   -19472523.109 8 -15173378.905 9
 91  3 16  3 13  0.0010000  0  5  6 12 15  2 13
  20824470.005   -17636996.793 8 -13743076.474 9
  24996513.188    -1177033.695 5   -917169.866 3
  24815680.770     -502830.024 4   -391798.469 4
  21809621.907   -11651107.085 8  -9078751.773 9
  20619388.310   -19486325.400 8 -15184133.849 9
 91  3 16  3 13 30.0010000  0  5  6 12 15  2 13
  20830145.374   -17607163.482 7 -13719829.714 9
  24978077.731    -1273919.692 5   -992665.585 3
  24830094.196     -427038.862 4   -332740.425 2
  21816721.912   -11613798.436 8  -9049680.081 9
  20616861.344   -19499589.791 8 -15194469.666 9
 91  3 16  3 14  0.0010000  0  5  6 12 15  2 13
  20835925.689   -17576777.145 7 -13696152.035 9
  24959632.711    -1370817.237 5  -1068170.315 3
  24844599.340     -350837.254 4   -273362.539 2
  21823858.144   -11576292.915 8  -9020454.978 9
  20614442.011   -19512312.648 8 -15204383.500 9
 91  3 16  3 14 30.0010000  0  5  6 12 15  2 13
  20841817.196   -17545837.616 7 -13672043.306 9
  24941190.379    -1467724.855 5  -1143682.898 1
  24859177.950     -274227.631 5   -213666.754 2
  21831033.674   -11538590.625 8  -8991076.561 9
  20612124.936   -19524495.222 8 -15213876.332 9
 91  3 16  3 15  0.0010000  0  4  6 12  2 13
  20847807.053   -17514347.140 7 -13647505.248 9
  24922746.546    -1564643.256 5  -1219203.892 3
  21838245.186   -11500693.727 8  -8961546.505 9
  20609909.456   -19536142.099 8 -15222951.743 9
 91  3 16  3 15 30.0010000  0  4  6 12  2 13
  20853907.824   -17482299.099 7 -13622532.741 9
  24904302.119    -1661563.687 5  -1294726.471 3
  21845495.088   -11462595.101 8  -8931859.248 9
  20607794.420   -19547246.662 8 -15231604.567 9
 91  3 16  3 16  0.0010000  0  4  6 12  2 13
  20860110.259   -17449695.693 7 -13597127.478 9
  24885864.568    -1758487.159 5  -1370251.389 3
  21852784.218   -11424297.306 8  -8902016.803 9
  20605785.202   -19557812.816 8 -15239837.852 8
 91  3 16  3 16 30.0010000  0  4  6 12  2 13
  20866420.886   -17416535.344 7 -13571288.224 9
  24867415.360    -1855410.315 5  -1445776.070 4
  21860107.272   -11385798.451 8  -8872017.680 9
  20603878.521   -19567840.483 8 -15247651.543 9
 91  3 16  3 17  0.0010000  0  4  6 12  2 13
  20872838.832   -17382820.757 7 -13545017.112 9
  24848970.899    -1952334.142 4  -1521301.275 2
  21867472.555   -11347101.122 8  -8841863.908 9
  20602068.375   -19577333.295 8 -15255048.466 9
 91  3 16  3 17 30.0010000  0  4  6 12  2 13
  20879358.408   -17348549.494 7 -13518312.227 9
  24830517.189    -2049254.275 3  -1596823.618 2
  21874874.728   -11308202.445 8  -8811553.233 9
  20600364.362   -19586290.101 8 -15262027.720 8
 91  3 16  3 18  0.0010000  0  4  6 12  2 13
  20885988.932   -17313717.502 7 -13491170.412 9
  24812089.864    -2146165.016 3  -1672338.638 2
  21882315.571   -11269098.604 8  -8781082.697 9
  20598762.257   -19594708.265 8 -15268587.251 9
 91  3 16  3 18 30.0010000  0  4  6 12  2 13
  20892721.959   -17278326.151 7 -13463592.724 9
  24793642.436    -2243065.714 5  -1747845.830 2
  21889798.119   -11229790.808 8  -8750453.233 9
  20597262.411   -19602590.083 8 -15274728.856 8
 91  3 16  3 19  0.0010000  0  4  6 12  2 13
  20899565.341   -17242375.686 7 -13435579.378 9
  24775213.261    -2339954.836 5  -1823344.055 1
  21897314.801   -11190278.816 8  -8719664.648 9
  20595862.066   -19609937.364 8 -15280453.940 9
 91  3 16  3 19 30.0010000  0  4  6 12  2 13
  20906510.912   -17205868.442 7 -13407132.162 9
  24756783.842    -2436832.708 5  -1898833.514 1
  21904873.188   -11150564.721 8  -8688718.598 9
  20594566.981   -19616753.843 8 -15285765.409 9
 91  3 16  3 20  0.0010000  0  4  6 12  2 13
  20913564.430   -17168802.577 7 -13378249.667 9
  24738351.386    -2533695.538 5  -1974311.264 1
  21912468.430   -11110646.507 8  -8657613.480 9
  20593370.210   -19623038.248 8 -15290662.284 9
 91  3 16  3 20 30.0010000  0  4  6 12  2 13
  20920721.078   -17131176.794 7 -13348930.868 9
  24719915.964    -2630540.309 5  -2049774.962 2
  21920102.935   -11070522.061 8  -8626347.673 9
  20592275.348   -19628790.757 8 -15295144.688 8
 91  3 16  3 21  0.0010000  0  4  6 12  2 13
  20927989.861   -17092996.906 7 -13319180.310 9
  24701490.105    -2727370.537 6  -2125226.860 4
  21927776.424   -11030196.960 8  -8594925.496 8
  20591283.652   -19634018.377 8 -15299218.088 9
 91  3 16  3 21 30.0010000  0  4  6 12  2 13
  20935363.242   -17054258.767 7 -13288994.746 9
  24683065.467    -2824180.179 6  -2200663.146 3
  21935490.084   -10989667.089 8  -8563343.762 8
  20590387.863   -19638718.129 8 -15302880.181 9
 91  3 16  3 22  0.0010000  0  4  6 12  2 13
  20942841.567   -17014957.480 7 -13258370.367 9
  24664650.112    -2920962.145 6  -2276077.424 2
  21943242.099   -10948926.959 8  -8531598.195 9
  20589593.110   -19642886.734 8 -15306128.377 9
 91  3 16  3 22 30.0010000  0  4  6 12  2 13
  20950425.118   -16975095.381 7 -13227308.988 9
  24646233.851    -3017716.781 5  -2351470.898 3
  21951034.912   -10907978.881 8  -8499690.586 8
  20588902.710   -19646527.406 8 -15308965.195 9
 91  3 16  3 23  0.0010000  0  4  6 12  2 13
  20958117.209   -16934674.685 7 -13195812.354 9
  24627832.910    -3114444.169 5  -2426842.646 2
  21958866.081   -10866824.335 8  -8467622.101 9
  20588308.495   -19649643.248 8 -15311393.074 8
 91  3 16  3 23 30.0010000  0  4  6 12  2 13
  20965911.802   -16893693.907 7 -13163879.283 9
  24609424.152    -3211140.251 5  -2502190.000 3
  21966737.142   -10825461.414 8  -8435391.248 8
  20587814.758   -19652234.504 8 -15313412.167 9
 91  3 16  3 24  0.0010000  0  4  6 12  2 13
  20973823.312   -16852148.652 7 -13131506.359 9
  24591032.495    -3307798.544 5  -2577508.389 3
  21974647.779   -10783885.072 8  -8402994.095 9
  20587425.025   -19654297.387 8 -15315019.560 8
 91  3 16  3 24 30.0010000  0  4  6 12  2 13
  20981832.578   -16810042.244 7 -13098696.167 9
  24572650.401    -3404420.254 5  -2652797.781 3
  21982599.180   -10742097.986 8  -8370432.706 8
  20587130.326   -19655836.990 8 -15316219.183 9
 91  3 16  3 25  0.0010000  0  4  6 12  2 13
  20989954.258   -16767365.537 7 -13065441.588 9
  24554268.341    -3500993.625 5  -2728050.013 3
  21990593.718   -10700090.539 8  -8337699.628 8
  20586937.850   -19656845.244 8 -15317004.773 9
 91  3 16  3 25 30.0010000  0  4  6 12  2 13
  20998182.944   -16724126.833 7 -13031749.094 9
  24535895.251    -3597524.910 4  -2803269.433 2
  21998627.275   -10657870.749 8  -8304801.083 8
  20586846.411   -19657331.911 9 -15317383.941 9
 91  3 16  3 26  0.0010000  0  4  6 12  2 13
  21006517.796   -16680326.107 7 -12997618.656 9
  24517535.947    -3694011.682 5  -2878453.706 3
  22006701.560   -10615438.052 8  -8271736.637 8
  20586853.321   -19657297.499 8 -15317357.067 9
 91  3 16  3 26 30.0010000  0  4  6 12  2 13
  21014960.839   -16635960.306 7 -12963047.897 9
  24499190.463    -3790448.483 5  -2953599.029 3
  22014820.553   -10572788.691 8  -8238503.360 8
  20586956.138   -19656740.811 8 -15316923.233 9
 91  3 16  3 27  0.0010000  0  4  6 12  2 13
  21023510.329   -16591034.039 7 -12928040.427 9
  24480848.260    -3886837.442 5  -3028707.116 2
  22022973.714   -10529926.577 8  -8205104.300 8
  20587161.492   -19655667.354 8 -15316086.725 9
 91  3 16  3 27 30.0010000  0  4  6 12  2 13
  21032166.824   -16545546.743 7 -12892595.802 9
  24462514.154    -3983175.751 5  -3103775.730 2
  22031173.048   -10486850.451 8  -8171538.499 9
  20587464.602   -19654077.827 8 -15314848.071 9
 91  3 16  3 28  0.0010000  0  4  6 12  2 13
  21040928.264   -16499499.868 7 -12856715.127 9
  24444194.148    -4079462.056 5  -3178803.819 1
  22039411.331   -10443561.078 8  -8137806.499 8
  20587864.526   -19651974.140 8 -15313208.773 8
 91  3 16  3 28 30.0010000  0  4  6 12  2 13
  21049793.428   -16452889.896 7 -12820395.676 9
  24425875.014    -4175690.149 5  -3253786.532 2
  22047690.098   -10400054.148 8  -8103904.999 8
  20588363.987   -19649354.385 9 -15311167.370 9
 91  3 16  3 29  0.0010000  0  4  6 12  2 13
  21058772.822   -16405722.345 7 -12783641.739 9
  24407577.483    -4271863.344 5  -3328726.470 3
  22056012.944   -10356334.609 8  -8069837.812 9
  20588955.479   -19646225.365 9 -15308729.115 9
 91  3 16  3 29 30.0010000  0  4  6 12  2 13
  21067856.218   -16357992.804 7 -12746449.895 9
  24389289.550    -4367974.159 6  -3403618.264 2
  22064372.960   -10312397.107 8  -8035600.794 8
  20589650.975   -19642583.613 9 -15305891.334 9
 91  3 16  3 30  0.0010000  0  4  6 12  2 13
  21077047.562   -16309701.408 7 -12708820.238 9
  24371014.496    -4464020.574 6  -3478459.395 2
  22072773.739   -10268241.272 8  -8001193.647 8
  20590442.133   -19638430.476 9 -15302655.081 9
 91  3 16  3 30 30.0010000  0  4  6 12  2 13
  21086341.129   -16260851.331 7 -12670755.261 9
  24352748.445    -4560002.788 6  -3553250.553 2
  22081215.596   -10223869.618 8  -7966618.323 8
  20591326.824   -19633770.428 9 -15299023.826 9
 91  3 16  3 31  0.0010000  0  4  6 12  2 13
  21095742.015   -16211445.128 7 -12632256.939 9
  24334492.272    -4655920.651 5  -3627991.504 1
  22089699.717   -10179283.643 8  -7931876.014 7
  20592312.552   -19628606.911 9 -15295000.248 9
 91  3 16  3 31 30.0010000  0  4  6 12  2 13
  21105249.034   -16161481.022 7 -12593323.881 9
  24316258.016    -4751769.354 5  -3702679.022 3
  22098227.604   -10134480.942 8  -7896964.794 7
  20593390.278   -19622939.185 9 -15290583.789 9
 91  3 16  3 32  0.0010000  0  4  6 12  2 13
  21114865.186   -16110960.946 7 -12553957.601 8
  24298027.634    -4847548.460 6  -3777311.821 3
  22106794.474   -10089462.181 8  -7861885.240 8
  20594562.793   -19616770.425 9 -15285776.910 9
 91  3 16  3 32 30.0010000  0  4  6 12  2 13
  21124582.967   -16059882.444 7 -12514156.179 9
  24279818.541    -4943252.716 6  -3851886.341 2
  22115403.015   -10044224.159 8  -7826634.827 8
  20595831.807   -19610099.373 9 -15280578.632 9
 91  3 16  3 33  0.0010000  0  4  6 12  2 13
  21134409.848   -16008247.265 7 -12473920.989 8
  24261617.231    -5038880.865 5  -3926402.029 2
  22124054.728    -9998767.753 8  -7791214.252 7
  20597195.856   -19602928.701 9 -15274991.046 9
 91  3 16  3 33 30.0010000  0  4  6 12  2 13
  21144343.769   -15956058.599 7 -12433254.503 8
  24243435.116    -5134433.169 5  -4000858.107 4
  22132742.424    -9953095.235 8  -7755625.262 7
  20598654.659   -19595262.545 9 -15269017.359 9
 91  3 16  3 34  0.0010000  0  4  6 12  2 13
  21154378.132   -15903319.103 7 -12392158.795 8
  24225262.006    -5229909.441 5  -4075255.408 3
  22141477.165    -9907208.223 8  -7719869.144 7
  20600209.962   -19587104.609 9 -15262660.470 9
 91  3 16  3 34 30.0010000  0  4  6 12  2 13
  21164518.594   -15850030.431 7 -12350635.169 9
  24207111.057    -5325308.528 6  -4149592.125 3
  22150246.388    -9861107.669 8  -7683946.628 7
  20601853.738   -19578458.151 9 -15255922.933 9
 91  3 16  3 35  0.0010000  0  4  6 12  2 13
  21174761.906   -15796196.604 7 -12308686.751 8
  24188972.428    -5420631.323 5  -4223869.870 1
  22159060.912    -9814796.533 8  -7647860.032 8
  20603592.512   -19569327.955 9 -15248808.440 9
 91  3 16  3 35 30.0010000  0  4  6 12  2 13
  21185112.538   -15741818.392 7 -12266314.126 9
  24170844.270    -5515875.646 5  -4298085.992 4
  22167911.977    -9768274.381 8  -7611609.007 8
  20605419.166   -19559715.933 9 -15241318.501 9
 91  3 16  3 36  0.0010000  0  4  6 12  2 13
  21195560.925   -15686892.685 7 -12223514.892 9
  24152740.995    -5611035.089 5  -4372235.966 3
  22176807.400    -9721536.859 8  -7575190.162 7
  20607338.132   -19549619.750 9 -15233451.294 9
 91  3 16  3 36 30.0010000  0  4  6 12  2 13
  21206118.726   -15631419.969 7 -12180289.403 9
  24134644.037    -5706107.366 5  -4446318.482 4
  22185744.215    -9674583.597 7  -7538603.200 7
  20609351.538   -19539041.132 9 -15225208.158 9
 91  3 16  3 37  0.0010000  0  4  6 12  2 13
  21216778.715   -15575402.925 7 -12136639.777 9
  24116574.057    -5801091.944 5  -4520332.210 5
  22194718.513    -9627416.127 7  -7501849.324 7
  20611460.885   -19527983.804 9 -15216592.006 9
 91  3 16  3 37 30.0010000  0  4  6 12  2 13
  21227543.091   -15518838.673 7 -12092563.745 9
  24098518.736    -5895982.648 5  -4594272.778 4
  22203735.983    -9580030.625 7  -7464925.560 7
  20613653.854   -19516445.669 9 -15207601.208 9
 91  3 16  3 38  0.0010000  0  4  6 12  2 13
  21238412.343   -15461726.010 7 -12048060.380 8
  24080472.140    -5990775.081 5  -4668137.225 4
  22212793.902    -9532424.957 7  -7427830.225 7
  20615941.264   -19504426.701 9 -15198235.728 9
 91  3 16  3 38 30.0010000  0  4  6 12  2 13
  21249384.168   -15404063.809 7 -12003128.813 9
  24062456.709    -6085464.906 6  -4741921.724 2
  22221894.714    -9484596.823 7  -7390561.549 7
  20618319.519   -19491926.694 9 -15188495.410 9
 91  3 16  3 39  0.0010000  0  4  6 12  2 13
  21260456.680   -15345852.625 7 -11957769.471 9
  24044456.565    -6180049.442 6  -4815623.698 4
  22231038.070    -9436545.071 7  -7353118.614 7
  20620792.529   -19478947.684 9 -15178381.860 9
 91  3 16  3 39 30.0010000  0  4  6 12  2 13
  21271641.641   -15287091.388 7 -11911981.507 8
  24026482.806    -6274524.159 6  -4889240.588 5
  22240225.819    -9388267.368 7  -7315499.644 7
  20623350.068   -19465488.980 9 -15167894.505 9
 91  3 16  3 40  0.0010000  0  4  6 12  2 13
  21282925.824   -15227781.948 7 -11865766.376 8
  24008524.054    -6368887.681 6  -4962770.842 5
  22249455.832    -9339764.539 7  -7277705.213 7
  20626005.014   -19451553.481 9 -15157035.622 9
 91  3 16  3 40 30.0010000  0  4  6 12  2 13
  21294317.362   -15167928.216 7 -11819127.121 9
  23990588.057    -6463140.586 6  -5036214.432 4
  22258727.203    -9291039.553 7  -7239737.691 7
  20628743.302   -19437146.434 9 -15145809.308 9
 91  3 16  3 41  0.0010000  0  4  6 12  2 13
  21305812.588   -15107530.847 8 -11772064.259 8
  23972670.976    -6557280.016 6  -5109569.625 4
  22268045.061    -9242091.765 7  -7201596.551 7
  20631573.971   -19422268.950 9 -15134216.409 9
 91  3 16  3 41 30.0010000  0  4  6 12  2 13
  21317410.072   -15046586.016 7 -11724574.799 8
  23954782.339    -6651298.795 6  -5182830.764 3
  22277401.867    -9192916.099 7  -7163277.853 6
  20634495.731   -19406918.583 9 -15122255.031 9
 91  3 16  3 42  0.0010000  0  4  6 12  2 13
  21329111.560   -14985098.402 7 -11676662.391 8
  23936917.714    -6745198.358 6  -5255999.020 4
  22286800.659    -9143515.581 7  -7124783.947 6
  20637506.557   -19391100.443 9 -15109929.175 9
 91  3 16  3 42 30.0010000  0  4  6 12  2 13
  21340913.177   -14923067.855 7 -11628326.923 9
  23919069.876    -6838975.103 6  -5329071.627 3
  22296243.845    -9093888.860 7  -7086113.779 7
  20640604.005   -19374815.422 9 -15097239.505 9
 91  3 16  3 43  0.0010000  0  4  6 12  2 13
  21352823.056   -14860492.357 7 -11579566.828 8
  23901249.294    -6932623.214 6  -5402043.932 2
  22305734.355    -9044032.602 7  -7047264.755 6
  20643792.893   -19358062.629 9 -15084185.344 9
 91  3 16  3 43 30.0010000  0  4  6 12  2 13
  21364831.248   -14797376.051 7 -11530385.297 8
  23883456.319    -7026143.498 6  -5474916.696 2
  22315262.069    -8993949.806 7  -7008239.214 7
  20647071.126   -19340846.990 9 -15070770.524 9
 91  3 16  3 44  0.0010000  0  4  6 12  2 13
  21376944.945   -14733719.379 7 -11480782.712 8
  23865680.132    -7119532.918 6  -5547687.431 3
  22324835.642    -8943639.017 7  -6969036.006 7
  20650431.514   -19323170.055 9 -15056996.255 9
 91  3 16  3 44 30.0010000  0  4  6 12  2 13
  21389162.994   -14669518.295 7 -11430755.908 9
  23847936.331    -7212783.586 6  -5620350.096 2
  22334452.074    -8893095.397 7  -6929651.375 7
  20653885.122   -19305028.528 9 -15042859.971 9
 91  3 16  3 45  0.0010000  0  4  6 12  2 13
  21401482.045   -14604775.847 7 -11380307.283 9
  23830209.877    -7305895.052 6  -5692904.297 3
  22344112.898    -8842320.225 7  -6890086.312 7
  20657425.352   -19286426.683 9 -15028364.991 9
 91  3 16  3 45 30.0010000  0  4  6 12  2 13
  21413903.669   -14539496.016 7 -11329439.902 8
  23812528.723    -7398867.316 6  -5765350.016 4
  22353824.084    -8791315.865 7  -6850342.679 7
  20661051.961   -19267368.679 9 -15013514.567 9
 91  3 16  3 46  0.0010000  0  4  6 12  2 13
  21426429.889   -14473681.404 7 -11278155.820 9
  23794859.261    -7491699.297 6  -5837686.429 5
  22363569.123    -8740083.835 7  -6810421.623 6
  20664764.286   -19247858.238 9 -14998311.598 9
 91  3 16  3 46 30.0010000  0  4  6 12  2 13
  21439058.053   -14407329.875 7 -11226453.348 8
  23777219.184    -7584384.929 6  -5909908.825 5
  22373368.432    -8688620.253 7  -6770320.146 7
  20668560.860   -19227894.134 9 -14982755.119 9
 91  3 16  3 47  0.0010000  0  4  6 12  2 13
  21451784.846   -14340445.583 7 -11174335.748 9
  23759608.180    -7676925.105 6  -5982017.855 5
  22383200.443    -8636927.925 7  -6730040.411 7
  20672447.965   -19207481.295 9 -14966848.988 9
 91  3 16  3 47 30.0010000  0  4  6 12  2 13
  21464609.953   -14273031.482 7 -11121805.302 8
  23742030.436    -7769319.165 6  -6054013.043 4
  22393082.188    -8585008.238 7  -6689583.525 6
  20676419.321   -19186623.692 9 -14950596.275 9
 91  3 16  3 48  0.0010000  0  4  6 12  2 13
  21477541.507   -14205087.443 7 -11068861.921 8
  23724477.577    -7861562.750 6  -6125890.979 5
  22403005.010    -8532859.228 7  -6648947.948 7
  20680472.518   -19165321.525 9 -14933997.153 9
 91  3 16  3 48 30.0010000  0  4  6 12  2 13
  21490570.782   -14136616.292 7 -11015507.792 8
  23706951.730    -7953654.881 6  -6197650.901 5
  22412971.632    -8480482.492 7  -6608134.943 7
  20684608.429   -19143579.253 9 -14917055.100 9
 91  3 16  3 49  0.0010000  0  4  6 12  2 13
  21503702.001   -14067611.939 7 -10961738.199 8
  23689457.014    -8045585.235 6  -6269284.770 4
  22422983.206    -8427870.388 7  -6567138.503 7
  20688828.624   -19121391.374 9 -14899765.809 9
 91  3 16  3 49 30.0010000  0  4  6 12  2 13
  21516933.628   -13998077.440 7 -10907555.518 8
  23671994.406    -8137353.235 6  -6340792.106 4
  22433041.825    -8375024.568 7  -6525959.962 6
  20693135.443   -19098761.500 9 -14882132.115 9
 91  3 16  3 50  0.0010000  0  4  6 12  2 13
  21530264.792   -13928013.248 7 -10852960.072 8
  23654566.001    -8228955.542 6  -6412170.368 3
  22443141.523    -8321943.308 7  -6484597.954 6
  20697527.383   -19075690.685 9 -14864154.837 9
 91  3 16  3 50 30.0010000  0  4  6 12  2 13
  21543700.308   -13857421.401 7 -10797953.463 7
  23637164.540    -8320390.133 6  -6483417.946 3
  22453286.207    -8268627.382 7  -6443053.100 7
  20701997.606   -19052181.928 9 -14845836.301 9
 91  3 16  3 51  0.0010000  0  4  6 12  2 13
  21557231.137   -13786304.697 7 -10742537.888 7
  23619792.743    -8411655.505 6  -6554533.649 4
  22463477.657    -8215077.948 7  -6401326.285 6
  20706554.765   -19028238.776 9 -14827179.275 9
 91  3 16  3 51 30.0010000  0  4  6 12  2 13
  21570866.283   -13714664.882 7 -10686714.697 8
  23602463.839    -8502749.906 6  -6625516.157 4
  22473712.280    -8161295.018 7  -6359417.530 7
  20711193.731   -19003863.670 9 -14808185.651 9
 91  3 16  3 52  0.0010000  0  4  6 12  2 13
  21584598.907   -13642500.625 7 -10630482.844 8
  23585159.819    -8593667.616 6  -6696360.944 4
  22483990.353    -8107275.221 7  -6317324.185 7
  20715914.573   -18979055.704 9 -14788854.750 9
 91  3 16  3 52 30.0010000  0  4  6 12  2 13
  21598427.122   -13569817.777 7 -10573846.910 7
  23567888.781    -8684410.346 6  -6767069.387 5
  22494315.822    -8053022.747 7  -6275049.550 6
  20720716.943   -18953821.788 9 -14769191.927 9
 91  3 16  3 53  0.0010000  0  4  6 12  2 13
  21612359.969   -13496618.377 7 -10516808.466 7
  23550658.226    -8774976.003 7  -6837639.858 4
  22504684.427    -7998537.861 7  -6232593.805 7
  20725599.374   -18928164.725 9 -14749199.381 9
 91  3 16  3 53 30.0010000  0  4  6 12  2 13
  21626381.254   -13422904.371 7 -10459369.009 8
  23533459.710    -8865362.542 7  -6908070.765 4
  22515095.017    -7943821.177 7  -6189957.454 7
  20730560.646   -18902086.778 9 -14728878.888 9
 91  3 16  3 54  0.0010000  0  4  6 12  2 13
  21640509.579   -13348674.366 7 -10401527.507 8
  23516295.711    -8955564.222 7  -6978357.648 3
  22525550.595    -7888869.391 7  -6147137.886 6
  20735604.631   -18875587.706 9 -14708230.233 9
 91  3 16  3 54 30.0010000  0  4  6 12  2 13
  21654734.124   -13273935.269 7 -10343289.303 7
  23499160.156    -9045583.876 6  -7048502.695 4
  22536054.404    -7833687.511 7  -6104139.041 7
  20740722.396   -18848674.587 8 -14687258.951 9
 91  3 16  3 55  0.0010000  0  4  6 12  2 13
  21669053.109   -13198681.205 7 -10284649.817 7
  23482070.808    -9135411.192 6  -7118497.846 4
  22546599.326    -7778267.999 7  -6060955.020 6
  20745925.283   -18821342.316 8 -14665961.059 9
 91  3 16  3 55 30.0010000  0  4  6 12  2 13
  21683471.945   -13122916.150 7 -10225612.148 7
  23465009.905    -9225046.140 6  -7188343.105 4
  22557189.794    -7722613.015 7  -6017587.521 7
  20751205.230   -18793595.625 9 -14644340.236 9
 91  3 16  3 56  0.0010000  0  4  6 12  2 13
  21697986.408   -13046642.391 7 -10166178.078 7
  23447989.800    -9314486.826 6  -7258037.000 4
  22567826.120    -7666723.080 7  -5974036.957 7
  20756566.740   -18765437.434 9 -14622398.766 9
 91  3 16  3 56 30.0010000  0  4  6 12  2 13
  21712594.997   -12969863.197 7 -10106350.196 7
  23431006.865    -9403732.220 6  -7327578.709 6
  22578506.212    -7610599.579 7  -5930304.381 6
  20762001.959   -18736871.291 9 -14600139.412 9
 91  3 16  3 57  0.0010000  0  4  6 12  2 13
  21727303.088   -12892580.765 7 -10046130.146 6
  23414061.098    -9492780.080 6  -7396966.502 5
  22589228.289    -7554242.854 7  -5886390.077 7
  20767512.459   -18707900.238 9 -14577564.552 9
 91  3 16  3 57 30.0010000  0  4  6 12  2 13
  21742102.652   -12814796.346 7  -9985518.945 7
  23397155.187    -9581627.204 6  -7466197.873 5
  22600000.134    -7497652.235 7  -5842293.525 6
  20773101.764   -18678526.371 8 -14554675.797 9
 91  3 16  3 58  0.0010000  0  4  6 12  2 13
  21757002.032   -12736506.843 7  -9924514.174 6
  23380289.761    -9670265.984 6  -7535266.901 6
  22610811.870    -7440823.058 7  -5798011.083 7
  20778768.757   -18648747.255 8 -14531471.266 9
 91  3 16  3 58 30.0010000  0  4  6 12  2 13
  21771997.074   -12657715.462 7  -9863118.342 7
  23363462.726    -9758695.377 7  -7604172.770 5
  22621673.339    -7383756.197 7  -5753543.433 6
  20784513.368   -18618566.452 8 -14507953.732 9
 91  3 16  3 59  0.0010000  0  4  6 12  2 13
  21787082.334   -12578426.602 7  -9801334.862 8
  23346672.545    -9846915.000 7  -7672915.192 5
  22632575.293    -7326454.286 7  -5708892.626 7
  20790330.259   -18587988.614 8 -14484126.813 9
 91  3 16  3 59 30.0010000  0  4  6 12  2 13
  21802266.815   -12498636.605 7  -9739160.884 7
  23329926.129    -9934916.895 7  -7741487.962 5
  22643523.699    -7268911.274 7  -5664053.950 7
  20796227.455   -18557011.262 8 -14459988.599 9
 91  3 16  4  0  0.0010000  0  4  6 12  2 13
  21817547.238   -12418350.557 7  -9676600.366 7
  23313220.477   -10022701.908 7  -7809891.710 4
  22654522.187    -7211130.841 7  -5619030.262 6
  20802195.151   -18525639.500 8 -14435543.046 9
 91  3 16  4  0 30.0010000  0  4  6 12  2 13
  21832917.599   -12337566.368 7  -9613651.681 6
  23296558.311   -10110263.261 7  -7878121.183 4
  22665564.441    -7153108.681 7  -5573818.236 6
  20808241.965   -18493871.521 9 -14410788.766 9
 91  3 16  4  1  0.0010000  0  4  6 12  2 13
  21848385.961   -12256286.339 7  -9550316.648 6
  23279938.724   -10197598.731 7  -7946174.659 5
  22676647.772    -7094845.688 7  -5528418.535 6
  20814361.931   -18461710.664 9 -14385728.334 9
 91  3 16  4  1 30.0010000  0  4  6 12  2 13
  21863948.205   -12174513.838 7  -9486597.862 6
  23263364.403   -10284707.284 7  -8014051.286 4
  22687781.186    -7036342.699 7  -5482831.824 6
  20820556.514   -18429160.653 9 -14360364.662 9
 91  3 16  4  2  0.0010000  0  4  6 12  2 13
  21879603.353   -12092251.867 7  -9422497.658 6
  23246828.157   -10371587.108 7  -8081749.711 6
  22698962.831    -6977600.687 7  -5437058.852 6
  20826822.189   -18396224.969 9 -14334700.471 9
 91  3 16  4  2 30.0010000  0  4  6 12  2 13
  21895347.882   -12009498.158 7  -9358014.286 7
  23230342.553   -10458231.176 7  -8149264.398 5
  22710185.276    -6918615.555 7  -5391096.453 6
  20833163.703   -18362901.558 9 -14308734.150 9
 91  3 16  4  3  0.0010000  0  4  6 12  2 13
  21911186.816   -11926259.866 7  -9293153.328 6
  23213898.654   -10544642.392 7  -8216597.655 5
  22721454.452    -6859392.637 7  -5344948.760 6
  20839578.961   -18329198.280 9 -14282471.823 9
 91  3 16  4  3 30.0010000  0  4  6 12  2 13
  21927119.563   -11842538.815 6  -9227916.200 7
  23197500.022   -10630817.712 7  -8283747.120 5
  22732773.117    -6799930.713 7  -5298614.825 6
  20846065.556   -18295117.281 9 -14255915.181 9
 91  3 16  4  4  0.0010000  0  4  6 12  2 13
  21943143.470   -11758333.727 7  -9162301.890 6
  23181147.213   -10716751.215 7  -8350708.142 5
  22744132.860    -6740227.135 7  -5252092.590 6
  20852620.835   -18260657.581 9 -14229063.447 9
 91  3 16  4  4 30.0010000  0  4  6 12  2 13
  21959257.629   -11673645.600 7  -9096311.187 7
  23164844.208   -10802439.373 7  -8417477.994 5
  22755539.683    -6680281.072 7  -5205381.405 5
  20859249.859   -18225820.840 9 -14201917.914 9
 91  3 16  4  5  0.0010000  0  4  6 12  2 13
  21975465.008   -11588480.750 7  -9029949.005 6
  23148583.781   -10887883.770 7  -8484057.898 5
  22766995.053    -6620096.120 7  -5158484.085 5
  20865949.905   -18190613.833 9 -14174483.856 9
 91  3 16  4  5 30.0010000  0  4  6 12  2 13
  21991765.326   -11502840.659 7  -8963216.523 6
  23132367.084   -10973081.020 7  -8550445.211 5
  22778489.686    -6559671.834 7  -5111400.263 5
  20872719.822   -18155038.099 9 -14146762.491 9
 91  3 16  4  6  0.0010000  0  4  6 12  2 13
  22008151.988   -11416721.944 6  -8896111.082 6
  23116203.191   -11058022.488 7  -8616633.216 5
  22790037.996    -6499002.784 7  -5064125.718 7
  20879558.667   -18119089.921 9 -14118750.901 9
 91  3 16  4  6 30.0010000  0  4  6 12  2 13
  22024625.866   -11330130.516 6  -8828637.287 5
  23100090.533   -11142709.756 7  -8682623.148 5
  22801624.347    -6438092.986 7  -5016663.578 6
  20886469.791   -18082776.645 9 -14090454.830 9
 91  3 16  4  7  0.0010000  0  4  6 12  2 13
  22041197.500   -11243067.741 6  -8760796.212 6
  23084023.454   -11227139.443 7  -8748412.365 6
  22813265.317    -6376941.770 6  -4969013.311 6
  20893450.471   -18046100.003 9 -14061875.623 8
 91  3 16  4  7 30.0010000  0  4  6 12  2 13
  22057854.850   -11155536.577 7  -8692590.165 6
  23068007.051   -11311309.900 7  -8813999.609 5
  22824943.736    -6315549.499 6  -4921175.229 5
  20900497.672   -18009063.140 9 -14033015.715 9
 91  3 16  4  8  0.0010000  0  4  6 12  2 13
  22074598.857   -11067536.739 7  -8624018.924 7
  23052040.416   -11395215.794 7  -8879380.674 6
  22836676.983    -6253913.863 7  -4873147.516 5
  20907614.464   -17971665.688 9 -14003874.816 9
 91  3 16  4  8 30.0010000  0  4  6 12  2 13
  22091432.803   -10979069.352 7  -8555083.363 6
  23036122.013   -11478853.110 7  -8944552.486 6
  22848453.158    -6192033.846 6  -4824929.340 4
  20914798.090   -17933909.517 9 -13974454.411 9
 91  3 16  4  9  0.0010000  0  4  6 12  2 13
  22108356.408   -10890140.868 7  -8485788.509 6
  23020259.102   -11562223.262 7  -9009516.121 5
  22860271.562    -6129913.592 6  -4776524.007 6
  20922050.959   -17895801.334 9 -13944759.717 9
 91  3 16  4  9 30.0010000  0  4  6 12  2 13
  22125367.229   -10800746.621 7  -8416130.719 6
  23004445.645   -11645316.862 7  -9074264.248 5
  22872140.956    -6067546.223 6  -4727926.110 6
  20929370.383   -17857336.518 9 -13914787.126 9
 91  3 16  4 10  0.0010000  0  4  6 12  2 13
  22142465.301   -10710885.625 6  -8346109.230 7
  22988688.552   -11728128.238 7  -9138792.477 5
  22884054.708    -6004928.660 7  -4679133.253 5
  20936758.491   -17818514.321 9 -13884536.048 9
 91  3 16  4 10 30.0010000  0  4  6 12  2 13
  22159654.185   -10620565.747 6  -8275730.159 6
  22972983.636   -11810660.160 7  -9203102.954 6
  22896016.414    -5942066.699 6  -4630149.957 5
  20944211.933   -17779342.746 9 -13854012.748 9
 91  3 16  4 11  0.0010000  0  4  6 12  2 13
  22176926.445   -10529787.033 6  -8204993.575 6
  22957330.581   -11892907.685 7  -9267191.816 6
  22908026.107    -5878957.892 6  -4580974.325 5
  20951733.710   -17739822.385 9 -13823217.641 9
 91  3 16  4 11 30.0010000  0  4  6 12  2 13
  22194290.703   -10438549.959 7  -8133899.837 6
  22941733.855   -11974866.437 7  -9331055.690 6
  22920080.753    -5815600.453 6  -4531604.933 5
  20959318.761   -17699953.976 9 -13792151.335 9
 91  3 16  4 12  0.0010000  0  4  6 12  2 13
  22211737.431   -10346855.967 6  -8062450.028 6
  22926195.030   -12056532.648 7  -9394691.585 7
  22932186.073    -5751993.588 6  -4482041.185 5
  20966971.868   -17659738.736 9 -13760814.775 9
 91  3 16  4 12 30.0010000  0  4  6 12  2 13
  22229273.190   -10254707.692 6  -7990646.243 6
  22910709.253   -12137904.341 7  -9458098.012 6
  22944340.255    -5688138.055 6  -4432283.681 5
  20974690.623   -17619179.515 9 -13729210.186 9
 91  3 16  4 13  0.0010000  0  4  6 12  2 13
  22246894.105   -10162112.471 7  -7918494.182 6
  22895281.620   -12218983.419 7  -9521276.416 7
  22956540.924    -5624038.752 6  -4382336.236 5
  20982471.745   -17578284.124 9 -13697343.630 9
 91  3 16  4 13 30.0010000  0  4  6 12  2 13
  22264597.735   -10069074.879 6  -7845997.426 5
  22879908.572   -12299769.155 7  -9584226.244 5
  22968783.543    -5559697.660 6  -4332200.383 5
  20990317.921   -17537057.540 9 -13665219.012 9
 91  3 16  4 14  0.0010000  0  4  6 12  2 13
  22282389.523    -9975596.569 6  -7773157.256 5
  22864592.166   -12380258.349 7  -9646945.014 4
  22981070.834    -5495114.302 6  -4281875.726 6
  20998224.021   -17495501.077 9 -13632837.343 9
 91  3 16  4 14 30.0010000  0  4  6 12  2 13
  22300256.836    -9881684.180 6  -7699978.860 6
  22849329.124   -12460452.516 7  -9709433.877 6
  22993401.891    -5430293.096 6  -4231365.765 5
  21006195.804   -17453621.389 9 -13600203.818 9
 91  3 16  4 15  0.0010000  0  4  6 12  2 13
  22318212.622    -9787336.427 6  -7626461.192 6
  22834126.355   -12540345.401 7  -9771687.978 6
  23005783.344    -5365229.999 6  -4180667.310 4
  21014226.360   -17411417.588 9 -13567317.732 9
 91  3 16  4 15 30.0010000  0  4  6 12  2 13
  22336249.620    -9692558.144 6  -7552608.063 5
  22818980.857   -12619936.850 7  -9833707.195 6
  23018210.342    -5299928.021 6  -4129782.709 4
  21022318.968   -17368894.983 9 -13534183.215 9
 91  3 16  4 16  0.0010000  0  4  6 12  2 13
  22354365.180    -9597350.627 7  -7478420.447 4
  22803893.783   -12699222.844 7  -9895488.373 5
  23030684.979    -5234386.010 6  -4078711.070 5
  21030468.813   -17326054.291 9 -13500800.859 9
 91  3 16  4 16 30.0010000  0  4  6 12  2 13
  22372565.897    -9501715.351 6  -7403899.516 4
  22788860.699   -12778199.852 7  -9957028.810 5
  23043204.638    -5168603.036 6  -4027451.659 4
  21038682.212   -17282897.178 9 -13467171.917 9
 91  3 16  4 17  0.0010000  0  4  6 12  2 13
  22390843.325    -9405658.970 6  -7329050.480 5
  22773892.077   -12856869.187 7 -10018329.478 6
  23055761.431    -5102583.378 6  -3976007.830 4
  21046952.882   -17239430.572 9 -13433301.830 9
 91  3 16  4 17 30.0010000  0  4  6 12  2 13
  22409203.816    -9309181.521 7  -7253873.321 5
  22758982.786   -12935225.579 7 -10079386.315 5
  23068373.994    -5036324.644 6  -3924377.716 5
  21055284.139   -17195654.464 9 -13399190.566 9
 91  3 16  4 18  0.0010000  0  4  6 12  2 13
  22427641.960    -9212287.925 7  -7178371.891 5
  22744128.078   -13013268.840 7 -10140199.150 5
  23081027.322    -4969829.313 6  -3872563.238 4
  21063672.913   -17151574.017 9 -13364842.146 9
 91  3 16  4 18 30.0010000  0  4  6 12  2 13
  22446160.445    -9114972.672 6  -7102541.900 5
  22729340.205   -13090988.467 7 -10200759.809 4
  23093728.358    -4903089.745 6  -3820558.431 4
  21072118.993   -17107183.755 9 -13330252.331 9
 91  3 16  4 19  0.0010000  0  4  6 12  2 13
  22464755.990    -9017240.651 6  -7026387.149 5
  22714616.514   -13168384.006 7 -10261067.931 5
  23106474.032    -4836108.695 6  -3768365.464 4
  21080625.276   -17062488.798 9 -13295425.083 9
 91  3 16  4 19 30.0010000  0  4  6 12  2 13
  22483432.749    -8919095.256 6  -6949910.294 5
  22699946.151   -13245453.395 7 -10321121.904 6
  23119268.252    -4768886.929 6  -3715984.944 4
  21089188.551   -17017491.722 9 -13260362.428 9
 91  3 16  4 20  0.0010000  0  4  6 12  2 13
  22502188.662    -8820536.330 6  -6873111.202 4
  22685343.565   -13322191.340 7 -10380917.629 6
  23132101.771    -4701421.921 6  -3663414.856 3
  21097807.598   -16972192.560 9 -13225064.379 9
 91  3 16  4 20 30.0010000  0  4  6 12  2 13
  22521021.321    -8721567.111 6  -6795992.425 5
  22670806.626   -13398596.004 7 -10440453.631 6
  23144990.467    -4633714.191 6  -3610655.646 4
  21106485.975   -16926594.406 9 -13189533.355 9
 91  3 16  4 21  0.0010000  0  4  6 12  2 13
  22539932.541    -8622187.895 6  -6718554.170 5
  22656330.239   -13474662.243 7 -10499725.932 7
  23157919.612    -4565761.925 6  -3557705.886 4
  21115217.436   -16880697.913 9 -13153769.852 9
 91  3 16  4 21 30.0010000  0  4  6 12  2 13
  22558924.974    -8522405.653 6  -6640801.858 4
  22641920.722   -13550391.965 7 -10558736.005 7
  23170896.711    -4497569.516 6  -3504568.998 4
  21124005.854   -16834509.929 9 -13117779.216 9
 91  3 16  4 22  0.0010000  0  4  6 12  2 13
  22577989.686    -8422220.465 6  -6562735.524 5
  22627574.758   -13625779.507 7 -10617479.455 8
  23183919.704    -4429134.593 6  -3451243.143 4
  21132853.324   -16788030.432 9 -13081561.410 9
 91  3 16  4 22 30.0010000  0  4  6 12  2 13
  22597127.828    -8321634.035 6  -6484356.569 5
  22613290.848   -13700821.440 7 -10675953.590 7
  23196991.871    -4360456.641 6  -3397727.921 5
  21141749.968   -16741261.114 9 -13045117.792 9
 91  3 16  4 23  0.0010000  0  4  6 12  2 13
  22616341.530    -8220646.853 6  -6405665.347 5
  22599080.368   -13775512.964 7 -10734154.690 8
  23210105.675    -4291533.773 6  -3344021.846 4
  21150706.572   -16694202.244 9 -13008448.546 9
 91  3 16  4 23 30.0010000  0  4  6 12  2 13
  22635639.167    -8119264.644 6  -6326666.303 5
  22584934.663   -13849854.722 7 -10792083.245 7
  23223264.186    -4222369.077 6  -3290127.350 5
  21159715.037   -16646859.526 9 -12971558.123 9
 91  3 16  4 24  0.0010000  0  4  6 12  2 13
  22655002.766    -8017488.667 6  -6247360.430 5
  22570855.234   -13923842.664 8 -10849736.100 6
  23236473.338    -4152961.352 6  -3236043.451 5
  21168779.274   -16599233.901 9 -12934447.248 9
 91  3 16  4 24 30.0010000  0  4  6 12  2 13
  22674441.297    -7915324.475 6  -6167752.039 5
  22556841.138   -13997476.879 8 -10907113.324 6
  23249726.255    -4083314.055 6  -3181772.905 4
  21177896.838   -16551330.658 9 -12897120.035 9
 91  3 16  4 25  0.0010000  0  4  6 12  2 13
  22693959.889    -7812771.574 6  -6087840.781 5
  22542899.880   -14070751.396 8 -10964210.255 7
  23263027.125    -4013423.903 6  -3127313.118 6
  21187063.018   -16503149.067 9 -12859575.932 9
 91  3 16  4 25 30.0010000  0  4  6 12  2 13
  22713553.726    -7709831.826 6  -6007628.080 5
  22529024.584   -14143662.634 7 -11021024.116 6
  23276370.608    -3943290.231 6  -3072663.583 5
  21196284.621   -16454691.175 9 -12821816.519 9
 91  3 16  4 26  0.0010000  0  4  6 12  2 13
  22733212.025    -7606509.104 6  -5927116.949 4
  22515218.251   -14216208.843 7 -11077553.541 7
  23289767.734    -3872914.703 6  -3017825.574 5
  21205559.900   -16405960.507 9 -12783844.572 9
 91  3 16  4 26 30.0010000  0  4  6 12  2 13
  22752947.069    -7502799.023 6  -5846303.965 5
  22501483.254   -14288380.151 7 -11133790.849 7
  23303200.213    -3802290.187 6  -2962793.537 5
  21214884.040   -16356952.307 9 -12745656.366 9
 91  3 16  4 27  0.0010000  0  4  6 12  2 13
  22772759.139    -7398709.275 6  -5765195.174 6
  22487822.316   -14360179.174 7 -11189738.054 6
  23316690.593    -3731421.565 6  -2907571.285 4
  21224263.044   -16307674.368 9 -12707257.980 9
 91  3 16  4 27 30.0010000  0  4  6 12  2 13
  22792639.300    -7294245.263 6  -5683794.751 5
  22474229.400   -14431606.095 8 -11245395.330 5
  23330225.610    -3660312.501 6  -2852161.708 4
  21233689.128   -16258131.555 9 -12668653.190 9
 91  3 16  4 28  0.0010000  0  4  6 12  2 13
  22812588.668    -7189405.130 6  -5602101.228 5
  22460709.390   -14502653.597 8 -11300756.931 6
  23343798.738    -3588958.655 6  -2796561.351 5
  21243167.946   -16208321.787 9 -12629840.379 9
 91  3 16  4 28 30.0010000  0  4  6 12  2 13
  22832609.721    -7084190.157 6  -5520115.634 4
  22447265.498   -14573317.508 8 -11355819.636 5
  23357426.695    -3517358.447 6  -2740769.060 5
  21252696.847   -16158246.390 9 -12590820.577 9
 91  3 16  4 29  0.0010000  0  4  6 12  2 13
  22852696.423    -6978607.598 6  -5437843.597 5
  22433886.939   -14643599.615 8 -11410584.838 7
  23371095.416    -3445516.700 6  -2684788.569 4
  21262274.050   -16107912.067 9 -12551599.013 9
 91  3 16  4 29 30.0010000  0  4  6 12  2 13
  22872861.650    -6872656.334 6  -5355284.272 4
  22420591.165   -14713493.431 7 -11465047.468 6
  23384818.127    -3373430.145 6  -2628617.288 4
  21271903.360   -16057317.887 9 -12512174.981 9
 91  3 16  4 30  0.0010000  0  4  6 12  2 13
  22893092.525    -6766340.525 6  -5272440.857 4
  22407365.191   -14782997.475 8 -11519206.405 6
  23398580.102    -3301099.936 6  -2572256.179 4
  21281579.470   -16006466.978 9 -12472550.891 9
 91  3 16  4 30 30.0010000  0  4  6 12  2 13
  22913393.585    -6659659.386 6  -5189312.786 5
  22394208.529   -14852105.667 8 -11573056.877 6
  23412384.934    -3228523.029 6  -2515702.827 3
  21291305.943   -15955358.766 9 -12432726.325 9
 91  3 16  4 31  0.0010000  0  4  6 12  2 13
  22933758.792    -6552624.353 6  -5105908.984 5
  22381136.048   -14920824.159 7 -11626603.699 7
  23426248.260    -3155708.519 6  -2458964.326 5
  21301075.587   -15904003.772 9 -12392709.445 9
 91  3 16  4 31 30.0010000  0  4  6 12  2 13
  22954192.054    -6445236.743 6  -5022230.425 4
  22368132.878   -14989148.749 8 -11679843.576 7
  23440143.938    -3082654.795 6  -2402039.417 4
  21310897.058   -15852403.473 9 -12352501.425 8
 91  3 16  4 32  0.0010000  0  4  6 12  2 13
  22974695.153    -6337495.110 6  -4938276.009 5
  22355206.420   -15057072.451 7 -11732771.078 7
  23454101.355    -3009358.627 6  -2344925.611 4
  21320763.236   -15800555.718 9 -12312100.574 9
 91  3 16  4 32 30.0010000  0  4  6 12  2 13
  22995267.215    -6229402.332 6  -4854047.970 4
  22342359.989   -15124592.554 7 -11785384.081 7
  23468088.473    -2935819.653 6  -2287622.600 3
  21330675.274   -15748463.707 9 -12271509.405 9
 91  3 16  4 33  0.0010000  0  4  6 12  2 13
  23015904.017    -6120962.208 6  -4769549.281 4
  22329587.058   -15191707.669 7 -11837681.507 8
  23482126.579    -2862039.427 6  -2230131.593 4
  21340634.078   -15696130.169 9 -12230730.023 8
 91  3 16  4 33 30.0010000  0  4  6 12  2 13
  23036601.999    -6012175.537 5  -4684780.561 2
  22316893.525   -15258412.800 8 -11889659.472 8
  23496217.107    -2788016.206 6  -2172451.237 4
  21350639.370   -15643555.564 9 -12189762.811 7
 91  3 16  4 34  0.0010000  0  4  6 12  2 13
  23057372.225    -5903048.442 6  -4599746.554 4
  22304279.460   -15324708.727 8 -11941318.576 9
  23510346.339    -2713753.448 6  -2114584.231 4
  21360688.113   -15590745.649 9 -12148612.230 9
 91  3 16  4 34 30.0010000  0  4  6 12  2 13
  23078198.502    -5793582.476 6  -4514448.481 4
  22291740.641   -15390591.507 8 -11992655.753 8
  23524525.897    -2639250.262 6  -2056529.888 4
  21370780.307   -15537702.229 9 -12107279.713 8
 91  3 16  4 35  0.0010000  0  4  6 12  2 13
  23099098.837    -5683781.192 6  -4428889.166 4
  22279283.978   -15456059.156 8 -12043669.446 8
  23538751.070    -2564507.900 6  -1998289.171 4
  21380920.489   -15484427.760 9 -12065767.134 8
 91  3 16  4 35 30.0010000  0  4  6 12  2 13
  23120055.502    -5573646.243 6  -4343069.850 5
  22266904.654   -15521107.935 8 -12094356.747 7
  23553019.694    -2489525.532 6  -1939861.416 4
  21391101.155   -15430923.588 9 -12024075.572 9
 91  3 16  4 36  0.0010000  0  4  6 12  2 13
  23141075.475    -5463181.908 6  -4256993.863 4
  22254605.671   -15585736.710 8 -12144716.770 7
  23567334.178    -2414304.794 6  -1881247.946 5
  21401327.053   -15377193.284 9 -11982207.822 9
 91  3 16  4 36 30.0010000  0  4  6 12  2 13
  23162158.654    -5352385.922 6  -4170659.462 4
  22242390.030   -15649937.761 8 -12194743.500 7
  23581691.240    -2338840.977 6  -1822445.054 4
  21411592.562   -15323233.782 9 -11940161.461 8
 91  3 16  4 37  0.0010000  0  4  6 12  2 13
  23183305.735    -5241258.313 6  -4084066.616 5
  22230255.323   -15713705.600 8 -12244432.660 8
  23596097.756    -2263131.469 6  -1763450.728 3
  21421906.339   -15269045.076 9 -11897936.500 8
 91  3 16  4 37 30.0010000  0  4  6 12  2 13
  23204514.241    -5129808.403 6  -3997222.634 4
  22218200.049   -15777044.149 8 -12293787.315 8
  23610549.851    -2187183.201 6  -1704270.348 3
  21432260.251   -15214636.544 9 -11855540.244 8
 91  3 16  4 38  0.0010000  0  4  6 12  2 13
  23225778.832    -5018038.192 6  -3910129.082 4
  22206230.247   -15839949.734 8 -12342804.591 7
  23625048.121    -2110995.613 6  -1644903.488 3
  21442654.962   -15160008.971 9 -11812973.312 9
 91  3 16  4 38 30.0010000  0  4  6 12  2 13
  23247109.944    -4905948.765 6  -3822786.810 4
  22194341.693   -15902417.903 8 -12391481.026 7
  23639593.156    -2034566.917 6  -1585348.756 3
  21453089.843   -15105162.788 9 -11770236.017 8
 91  3 16  4 39  0.0010000  0  4  6 12  2 13
  23268506.458    -4793544.532 6  -3735199.202 4
  22182538.540   -15964447.838 8 -12439815.981 7
  23654184.958    -1957899.169 6  -1525607.728 4
  21463567.582   -15050101.811 9 -11727331.360 9
 91  3 16  4 39 30.0010000  0  4  6 12  2 13
  23289956.301    -4680823.379 5  -3647364.673 3
  22170820.544   -16026031.988 8 -12487803.573 7
  23668819.304    -1880987.910 6  -1465676.977 3
  21474088.493   -14994823.669 9 -11684257.471 9
 91  3 16  4 40  0.0010000  0  4  6 12  2 13
  23311464.322    -4567788.800 6  -3559285.907 4
  22159187.706   -16087168.252 8 -12535442.157 7
  23683500.452    -1803834.001 6  -1405557.103 3
  21484648.073   -14939331.177 9 -11641016.582 8
 91  3 16  4 40 30.0010000  0  4  6 12  2 13
  23333032.268    -4454450.252 6  -3470970.270 5
  22147636.115   -16147860.861 8 -12582735.045 8
  23698230.146    -1726444.152 6  -1345253.422 3
  21495248.138   -14883632.888 9 -11597615.307 7
 91  3 16  4 41  0.0010000  0  4  6 12  2 13
  23354652.704    -4340810.242 5  -3382419.756 4
  22136172.055   -16208106.582 8 -12629679.705 8
  23712995.543    -1648818.653 5  -1284766.098 3
  21505886.593   -14827730.970 9 -11554055.365 8
 91  3 16  4 41 30.0010000  0  4  6 12  2 13
  23376338.787    -4226870.653 5  -3293635.790 4
  22124794.932   -16267901.623 8 -12676273.197 8
  23727814.268    -1570956.694 5  -1224094.539 4
  21516563.684   -14771626.714 9 -11510337.763 8
 91  3 16  4 42  0.0010000  0  4  6 12  2 13
  23398074.639    -4112630.479 6  -3204617.586 3
  22113501.151   -16327239.643 8 -12722510.565 7
  23742677.072    -1492855.294 5  -1163236.369 2
  21527276.477   -14715319.046 9 -11466461.653 7
 91  3 16  4 42 30.0010000  0  4  6 12  2 13
  23419876.453    -3998089.547 5  -3115365.053 5
  22102298.809   -16386115.200 8 -12768387.576 8
  23757574.986    -1414511.536 5  -1102189.391 4
  21538030.942   -14658806.446 9 -11422425.861 8
 91  3 16  4 43  0.0010000  0  4  6 12  2 13
  23441723.846    -3883252.919 5  -3025882.111 5
  22091182.183   -16444527.799 8 -12813903.841 8
  23772542.701    -1335928.213 5  -1040955.715 4
  21548822.261   -14602093.265 9 -11378233.762 8
 91  3 16  4 43 30.0010000  0  4  6 12  2 13
  23463635.980    -3768121.686 5  -2936169.614 4
  22080153.715   -16502472.895 8 -12859055.820 8
  23787539.837    -1257103.511 6   -979533.957 2
  21559651.971   -14545180.119 9 -11333885.877 8
 91  3 16  4 44  0.0010000  0  4  6 12  2 13
  23485597.253    -3652705.553 6  -2846235.125 4
  22069218.187   -16559954.932 8 -12903846.975 8
  23802579.830    -1178044.344 5   -917929.492 4
  21570519.443   -14488075.869 9 -11289389.056 8
 91  3 16  4 44 30.0010000  0  4  6 12  2 13
  23507615.205    -3536998.122 5  -2756073.600 3
  22058370.818   -16616962.097 8 -12948268.088 8
  23817675.560    -1098741.828 6   -856135.419 3
  21581423.491   -14430773.191 9 -11244737.620 8
 91  3 16  4 45  0.0010000  0  4  6 12  2 13
  23529697.618    -3421000.999 5  -2665686.369 2
  22047612.444   -16673490.477 8 -12992316.142 8
  23832811.181    -1019195.128 6   -794151.062 2
  21592365.301   -14373273.163 9 -11199932.404 8
 91  3 16  4 45 30.0010000  0  4  6 12  2 13
  23551816.327    -3304718.484 5  -2575076.764 2
  22036944.638   -16729538.886 8 -13035990.177 8
  23847998.384     -939406.594 5   -731978.244 3
  21603344.908   -14315580.070 9 -11154976.750 7
 91  3 16  4 46  0.0010000  0  4  6 12  2 13
  23574000.370    -3188152.611 5  -2484246.326 3
  22026372.144   -16785104.095 8 -13079287.694 8
  23863222.722     -859375.178 5   -669616.185 3
  21614358.997   -14257695.128 9 -11109871.604 7
 91  3 16  4 46 30.0010000  0  4  6 12  2 13
  23596237.462    -3071306.676 5  -2393197.708 4
  22015892.032   -16840184.128 8 -13122207.155 9
  23878499.550     -779102.026 5   -607065.750 3
  21625410.534   -14199620.377 9 -11064618.555 7
 91  3 16  4 47  0.0010000  0  4  6 12  2 13
  23618521.355    -2954186.303 5  -2301935.199 3
  22005499.415   -16894778.968 8 -13164748.543 9
  23893826.740     -698590.039 6   -544329.224 2
  21636497.180   -14141360.262 8 -11019221.081 8
 91  3 16  4 47 30.0010000  0  4  6 12  2 13
  23640862.171    -2836795.565 5  -2210462.056 4
  21995206.020   -16948887.442 8 -13206910.950 9
  23909192.319     -617840.855 5   -481407.877 3
  21647617.960   -14082918.694 9 -10973682.224 8
 91  3 16  4 48  0.0010000  0  4  6 12  2 13
  23663251.568    -2719141.456 6  -2118783.682 4
  21985000.190   -17002510.826 8 -13248695.361 9
  23924599.535     -536858.686 6   -418304.957 4
  21658773.535   -14024301.505 9 -10928006.490 8
 91  3 16  4 48 30.0010000  0  4  6 12  2 13
  23685691.047    -2601226.787 5  -2026902.265 3
  21974889.988   -17055646.360 8 -13290099.630 8
  23940054.146     -455644.113 6   -355020.978 3
  21669959.683   -13965510.942 9 -10882195.660 7
 91  3 16  4 49  0.0010000  0  4  6 12  2 13
  23708174.571    -2483054.294 5  -1934819.917 3
  21964872.446   -17108291.624 8 -13331121.865 9
  23955551.929     -374197.396 6   -291556.082 4
  21681180.941   -13906549.437 9 -10836251.635 8
 91  3 16  4 49 30.0010000  0  4  6 12  2 13
  23730711.178    -2364629.381 5  -1842540.903 2
  21954948.717   -17160446.885 8 -13371762.292 9
  23971097.665     -292521.502 6   -227912.650 3
  21692433.051   -13847420.872 9 -10790177.438 7
 91  3 16  4 50  0.0010000  0  4  6 12  2 13
  23753297.239    -2245952.525 5  -1750065.570 4
  21945116.706   -17212107.274 8 -13412017.100 9
  23986683.850     -210614.460 6   -164089.043 3
  21703714.826   -13788124.833 9 -10743972.737 7
 91  3 16  4 50 30.0010000  0  4  6 12  2 13
  23775929.160    -2127021.122 5  -1657391.932 4
  21935382.451   -17263264.772 8 -13451880.049 9
  24002313.243     -128471.396 6   -100081.558 2
  21715031.711   -13728657.717 9 -10697634.736 7
 91  3 16  4 51  0.0010000  0  4  6 12  2 13
  23798610.255    -2007842.453 5  -1564525.595 4
  21925741.729   -17313921.377 8 -13491352.693 9
  24017983.398      -46096.877 5    -35893.696 4
  21726378.540   -13669026.479 9 -10651168.858 8
 91  3 16  4 51 30.0010000  0  4  6 12  2 13
  23821333.928    -1888419.457 5  -1471468.867 1
  21916196.041   -17364074.532 8 -13530433.035 9
  24033708.697       36508.939 5     28474.395 2
  21737760.445   -13609233.025 9 -10604576.551 7
 91  3 16  4 52  0.0010000  0  4  6 12  2 13
  23844102.868    -1768755.392 5  -1378224.295 4
  21906751.355   -17413722.260 8 -13569119.535 8
  24049467.884      119344.711 5     93021.640 5
  21749166.954   -13549279.564 9 -10557859.564 7
 91  3 16  4 52 30.0010000  0  4  6 12  2 13
  23866925.170    -1648859.308 5  -1284798.968 2
  21897397.236   -17462868.089 8 -13607414.948 9
  24065279.247      202404.075 5    157743.131 5
  21760604.630   -13489173.834 9 -10511023.933 8
 91  3 16  4 53  0.0010000  0  4  6 12  2 13
  23889777.137    -1528733.619 5  -1191194.694 2
  21888142.059   -17511509.346 8 -13645317.187 9
  24081127.465      285686.841 5    222638.678 5
  21772073.506   -13428918.256 9 -10464071.556 7
 91  3 16  4 53 30.0010000  0  4  6 12  2 13
  23912684.003    -1408385.545 5  -1097417.125 2
  21878981.881   -17559647.948 8 -13682827.742 9
  24097017.668      369188.793 6    287705.050 5
  21783565.452   -13368518.873 9 -10417007.112 8
 91  3 16  4 54  0.0010000  0  4  6 12  2 13
  23935626.503    -1287811.666 5  -1003463.613 3
  21869920.681   -17607275.365 8 -13719939.976 9
  24112948.356      452915.523 5    352946.544 4
  21795085.876   -13307970.680 9 -10369826.719 8
 91  3 16  4 54 30.0010000  0  4  6 12  2 13
  23958610.987    -1167030.076 5   -909348.252 4
  21860949.070   -17654404.224 8 -13756663.727 9
  24128919.807      536851.299 5    418350.949 2
  21806632.999   -13247291.833 8 -10322544.511 8
 91  3 16  4 55  0.0010000  0  4  6 12  2 13
  23981641.645    -1046014.740 5   -815050.751 2
  21852083.906   -17701002.892 8 -13792974.334 9
  24144938.619      621024.554 5    483940.414 5
  21818210.067   -13186454.931 8 -10275139.148 8
 91  3 16  4 55 30.0010000  0  4  6 12  2 13
  24004707.098     -924770.503 4   -720574.928 2
  21843316.184   -17747071.226 8 -13828871.692 9
  24160998.473      705432.743 5    549712.914 3
  21829816.835   -13125463.512 9 -10227613.350 8
 91  3 16  4 56  0.0010000  0  4  6 12  2 13
  24027822.285     -803302.942 5   -625925.067 3
  21834650.685   -17792609.859 8 -13864356.294 9
  24177106.036      790072.880 5    615666.160 3
  21841449.988   -13064322.368 8 -10179970.891 7
 91  3 16  4 56 30.0010000  0  4  6 12  2 13
  24050979.457     -681617.243 5   -531105.180 1
  21826085.001   -17837618.544 8 -13899427.953 9
  24193256.771      874942.162 5    681797.972 4
  21853113.399   -13003035.402 8 -10132214.840 8
 91  3 16  4 57  0.0010000  0  4  6 12  2 13
  24074171.110     -559714.436 5   -436116.135 3
  21817623.077   -17882093.002 8 -13934083.335 9
  24209448.863      960042.083 5    748109.506 4
  21864805.010   -12941602.765 8 -10084345.255 8
 91  3 16  4 57 30.0010000  0  4  6 12  2 13
  24097410.403     -437605.816 5   -340966.699 2
  21809258.873   -17926039.581 9 -13968327.382 9
  24225690.094     1045363.763 5    814593.835 3
  21876520.284   -12880034.821 8 -10036370.239 8
 91  3 16  4 58  0.0010000  0  4  6 12  2 13
  24120692.309     -315283.002 5   -245650.425 2
  21801000.174   -17969444.442 8 -14002149.311 9
  24241958.932     1130917.951 5    881259.327 2
  21888262.884   -12818321.748 8  -9988282.136 7
 91  3 17 18  0  0.0010000  0  3 14 21 15
  30939883.664      -85490.320 7    -66615.616 6
  32819229.521       96434.685 5     75144.145 2
  30287860.850       50796.668 7     39598.336 7
 91  3 17 18  0 30.0010000  0  3 14 21 15
  22529106.124      -85714.752 7    -66790.492 6
  24443688.986       96364.179 5     75089.504 2
  21903544.491       50995.595 8     39753.421 7
 91  3 17 18  1  0.0010000  0  3 14 21 15
  22512513.812     -172905.602 7   -134731.286 7
  24462297.704      194174.027 5    151304.912 2
  21913443.638      103023.240 7     80294.301 7
 91  3 17 18  1 30.0010000  0  3 14 21 15
  22495908.008     -260179.685 7   -202736.930 6
  24480900.724      291911.956 5    227464.243 2
  21923388.953      155283.716 7    121016.596 7
 91  3 17 18  2  0.0010000  0  3 14 21 15
  22479291.411     -347494.053 7   -270773.977 7
  24499499.849      389617.076 5    303598.010 2
  21933385.834      207816.123 8    161950.796 7
 91  3 17 18  2 30.0010000  0  3 14 21 15
  22462682.909     -434770.366 7   -338781.345 7
  24518095.975      487363.985 5    379764.328 2
  21943450.465      260693.123 7    203153.500 7
 91  3 17 18  3  0.0010000  0  3 14 21 15
  22446078.604     -522030.480 7   -406776.106 7
  24536698.096      585127.130 5    455943.279 3
  21953569.061      313888.424 7    244604.233 7
 91  3 17 18  3 30.0010000  0  3 14 21 15
  22429479.095     -609249.504 7   -474738.843 6
  24555310.113      682927.326 5    532151.125 2
  21963758.407      367421.408 7    286318.097 8
 91  3 17 18  4  0.0010000  0  3 14 21 15
  22412890.979     -696424.348 7   -542667.174 6
  24573927.523      780763.913 5    608387.322 1
  21974008.010      421290.352 7    328293.737 7
 91  3 17 18  4 30.0010000  0  3 14 21 15
  22396330.443     -783459.175 7   -610486.383 7
  24592568.319      878729.296 5    684723.854 2
  21984340.057      475587.282 7    370602.890 7
 91  3 17 18  5  0.0010000  0  3 14 21 15
  22379792.693     -870352.340 7   -678195.215 7
  24611237.295      976820.622 5    761158.501 1
  21994757.246      530307.850 7    413242.131 7
 91  3 17 18  5 30.0010000  0  3 14 21 15
  22363286.419     -957094.048 7   -745786.033 7
  24629927.857     1075044.407 4    837696.388 2
  22005248.483      585457.004 7    456215.344 7
 91  3 17 18  6  0.0010000  0  3 14 21 15
  22346812.824    -1043665.706 7   -813244.338 7
  24648654.091     1173415.156 4    914348.782 2
  22015826.661      641048.221 7    499533.010 8
 91  3 17 18  6 30.0010000  0  3 14 21 15
  22330375.203    -1130045.673 7   -880553.276 8
  24667395.917     1271950.609 5    991129.488 2
  22026494.474      697098.315 7    543208.250 8
 91  3 17 18  7  0.0010000  0  3 14 21 15
  22313977.755    -1216224.540 7   -947705.532 7
  24686177.316     1370656.007 5   1068042.614 2
  22037249.829      753610.998 7    587243.937 7
 91  3 17 18  7 30.0010000  0  3 14 21 15
  22297613.283    -1302207.927 7  -1014705.456 7
  24704995.288     1469522.030 5   1145080.932 2
  22048087.027      810576.115 7    631632.169 7
 91  3 17 18  8  0.0010000  0  3 14 21 15
  22281294.980    -1387966.661 7  -1081530.328 7
  24723845.038     1568573.802 5   1222263.950 2
  22059017.459      868017.864 7    676391.815 7
 91  3 17 18  8 30.0010000  0  3 14 21 15
  22265014.752    -1473508.378 7  -1148186.102 8
  24742734.061     1667800.024 5   1299582.937 2
  22070038.131      925923.292 7    721512.764 7
 91  3 17 18  9  0.0010000  0  3 14 21 15
  22248785.188    -1558814.863 7  -1214658.579 8
  24761649.466     1767214.590 5   1377048.672 1
  22081148.438      984305.522 7    767005.240 6
 91  3 17 18  9 30.0010000  0  3 14 21 15
  22232592.797    -1643892.828 7  -1280952.997 7
  24780604.445     1866807.412 5   1454653.324 3
  22092347.487     1043152.542 7    812859.889 6
 91  3 17 18 10  0.0010000  0  3 14 21 15
  22216451.969    -1728724.299 7  -1347055.350 7
  24799593.298     1966591.947 5   1532407.345 2
  22103636.471     1102477.321 7    859086.827 7
 91  3 17 18 10 30.0010000  0  3 14 21 15
  22200356.414    -1813302.869 8  -1412960.627 7
  24818617.229     2066570.257 5   1610312.348 1
  22115019.291     1162280.320 7    905686.408 6
 91  3 17 18 11  0.0010000  0  3 14 21 15
  22184312.719    -1897611.225 8  -1478655.354 7
  24837676.835     2166756.789 5   1688379.630 2
  22126488.750     1222574.258 7    952668.517 7
 91  3 17 18 11 30.0010000  0  3 14 21 15
  22168320.890    -1981651.151 8  -1544140.919 7
  24856782.908     2267145.750 5   1766604.658 1
  22138056.242     1283352.540 7   1000028.045 6
 91  3 17 18 12  0.0010000  0  3 14 21 15
  22152379.726    -2065428.281 8  -1609421.708 7
  24875927.954     2367726.998 4   1844979.508 1
  22149712.473     1344603.719 7   1047756.063 6
 91  3 17 18 12 30.0010000  0  3 14 21 15
  22136488.026    -2148936.396 8  -1674492.877 7
  24895105.977     2468502.108 4   1923505.435 3
  22161456.544     1406328.799 7   1095853.341 6
 91  3 17 18 13  0.0010000  0  3 14 21 15
  22120649.995    -2232161.785 8  -1739343.729 7
  24914320.573     2569481.000 4   2002190.158 2
  22173296.547     1468535.801 7   1144326.159 6
 91  3 17 18 13 30.0010000  0  3 14 21 15
  22104866.818    -2315100.742 8  -1803971.400 8
  24933569.350     2670663.618 4   2081033.632 1
  22185227.985     1531223.331 7   1193173.401 7
 91  3 17 18 14  0.0010000  0  3 14 21 15
  22089143.906    -2397732.265 8  -1868359.508 8
  24952864.893     2772067.287 5   2160049.354 2
  22197247.564     1594407.330 7   1242407.513 6
 91  3 17 18 14 30.0010000  0  3 14 21 15
  22073479.146    -2480043.344 8  -1932497.915 8
  24972197.008     2873700.836 4   2239244.227 2
  22209367.875     1658095.091 7   1292034.161 6
 91  3 17 18 15  0.0010000  0  2 14 15
  22057872.252    -2562051.336 8  -1996400.154 8
  22221576.322     1722264.179 7   1342035.866 6
 91  3 17 18 15 30.0010000  0  2 14 15
  22042326.516    -2643754.054 8  -2060064.505 8
  22233881.905     1786911.174 7   1392409.960 6
 91  3 17 18 16  0.0010000  0  2 14 15
  22026838.937    -2725138.777 8  -2123481.089 7
  22246276.525     1852043.480 7   1443162.214 6
 91  3 17 18 16 30.0010000  0  2 14 15
  22011411.915    -2806211.857 8  -2186654.825 8
  22258758.382     1917649.197 7   1494283.359 6
 91  3 17 18 17  0.0010000  0  3 18 14 15
  24907942.492      -12748.28914     -9938.383 3
  21996043.958    -2886973.299 8  -2249585.725 8
  22271333.777     1983722.828 7   1545769.122 6
 91  3 17 18 17 30.0010000  0  3 18 14 15
  24893406.155      -89134.595 4    -69460.106 4
  21980735.353    -2967409.903 8  -2312263.503 8
  22283995.210     2050272.441 7   1597625.762 6
 91  3 17 18 18  0.0010000  0  3 18 14 15
  24878887.504     -165423.426 4   -128905.859 3
  21965488.810    -3047528.163 8  -2374693.218 8
  22296748.383     2117286.319 7   1649844.176 6
 91  3 17 18 18 30.0010000  0  3 18 14 15
  24864392.538     -241612.382 5   -188273.773 3
  21950306.719    -3127322.962 8  -2436870.895 8
  22309586.992     2184763.352 7   1702423.491 6
 91  3 17 18 19  0.0010000  0  3 18 14 15
  24849910.467     -317701.570 5   -247563.993 3
  21935181.590    -3206791.826 8  -2498794.596 8
  22322518.842     2252701.122 7   1755361.820 6
 91  3 17 18 19 30.0010000  0  3 18 14 15
  24835452.076     -393690.553 5   -306776.146 2
  21920123.614    -3285931.512 8  -2560461.796 8
  22335534.633     2321096.652 7   1808656.842 7
 91  3 17 18 20  0.0010000  0  3 18 14 15
  24821005.677     -469584.045 5   -365913.902 2
  21905127.394    -3364744.310 8  -2621874.277 9
  22348634.062     2389942.126 7   1862302.462 6
 91  3 17 18 20 30.0010000  0  3 18 14 15
  24806593.451     -545377.927 5   -424974.012 2
  21890190.837    -3443223.862 8  -2683027.095 8
  22361822.832     2459239.311 7   1916300.054 6
 91  3 17 18 21  0.0010000  0  3 18 14 15
  24792191.123     -621073.855 5   -483957.779 3
  21875320.232    -3521368.590 8  -2743919.016 8
  22375094.346     2528983.271 7   1970645.792 6
 91  3 17 18 21 30.0010000  0  3 18 14 15
  24777789.995     -696665.055 5   -542859.944 2
  21860514.080    -3599169.525 8  -2804543.043 8
  22388450.097     2599177.951 7   2025342.742 6
 91  3 17 18 22  0.0010000  0  3 18 14 15
  24763431.432     -772159.029 5   -601686.375 3
  21845775.085    -3676630.842 8  -2864902.429 9
  22401889.496     2669813.559 7   2080383.262 6
 91  3 17 18 22 30.0010000  0  3 18 14 15
  24749087.864     -847550.657 5   -660432.999 1
  21831100.242    -3753745.551 8  -2924991.729 9
  22415422.127     2740891.695 7   2135768.609 6
 91  3 17 18 23  0.0010000  0  3 18 14 15
  24734752.985     -922851.819 5   -719109.137 2
  21816491.657    -3830522.822 8  -2984818.094 9
  22429025.509     2812396.914 7   2191486.758 6
 91  3 17 18 23 30.0010000  0  3 18 14 15
  24720446.891     -998057.041 5   -777710.533 2
  21801946.028    -3906954.765 8  -3044375.372 9
  22442714.634     2884331.754 7   2247539.668 6
 91  3 17 18 24  0.0010000  0  3 18 14 15
  24706151.289    -1073148.806 5   -836223.431 1
  21787471.447    -3983020.465 8  -3103647.277 9
  22456487.096     2956711.520 7   2303939.275 5
 91  3 17 18 24 30.0010000  0  3 18 14 15
  24691887.760    -1148135.144 5   -894654.197 3
  21773065.219    -4058725.655 8  -3162638.258 9
  22470342.604     3029524.763 7   2360676.657 6
 91  3 17 18 25  0.0010000  0  3 18 14 15
  24677640.124    -1223022.147 5   -953007.601 3
  21758725.250    -4134074.010 8  -3221351.188 9
  22484284.455     3102762.317 7   2417744.652 6
 91  3 17 18 25 30.0010000  0  3 18 14 15
  24663401.780    -1297799.410 5  -1011275.392 3
  21744457.223    -4209051.939 8  -3279775.479 9
  22498297.953     3176431.552 7   2475149.038 6
 91  3 17 18 26  0.0010000  0  3 18 14 15
  24649184.425    -1372480.996 4  -1069468.725 2
  21730258.156    -4283672.233 8  -3337921.095 9
  22512396.891     3250515.182 7   2532876.812 6
 91  3 17 18 26 30.0010000  0  3 18 14 15
  24635001.542    -1447064.796 4  -1127585.834 2
  21716128.038    -4357928.737 8  -3395783.239 8
  22526573.478     3325013.268 7   2590927.075 6
 91  3 17 18 27  0.0010000  0  3 18 14 15
  24620822.861    -1521553.757 4  -1185629.031 3
  21702065.972    -4431821.966 8  -3453362.317 9
  22540828.910     3399918.894 7   2649294.876 6
 91  3 17 18 27 30.0010000  0  3 18 14 15
  24606660.661    -1595949.190 4  -1243599.406 2
  21688074.060    -4505351.408 8  -3510657.918 9
  22555161.987     3475228.083 7   2707977.140 6
 91  3 17 18 28  0.0010000  0  3 18 14 15
  24592535.644    -1670250.130 4  -1301496.051 3
  21674151.697    -4578513.020 8  -3567666.909 9
  22569567.312     3550938.201 7   2766971.813 6
 91  3 17 18 28 30.0010000  0  3 18 14 15
  24578409.422    -1744441.184 4  -1359307.120 2
  21660302.484    -4651288.377 8  -3624374.916 9
  22584053.885     3627062.468 7   2826289.209 6
 91  3 17 18 29  0.0010000  0  3 18 14 15
  24564303.586    -1818544.753 4  -1417050.007 3
  21646524.023    -4723697.581 8  -3680797.617 9
  22598616.004     3703574.822 7   2885909.010 6
 91  3 17 18 29 30.0010000  0  3 18 14 15
  24550219.934    -1892555.057 4  -1474720.277 1
  21632817.811    -4795732.627 8  -3736928.765 9
  22613248.274     3780477.846 7   2945833.212 6
 91  3 17 18 30  0.0010000  0  3 18 14 15
  24536160.870    -1966461.777 4  -1532309.837 2
  21619181.753    -4867380.158 8  -3792757.955 9
  22627958.489     3857778.697 7   3006067.424 7
 91  3 17 18 30 30.0010000  0  3 18 14 15
  24522120.089    -2040279.039 4  -1589829.642 2
  21605619.439    -4938651.593 8  -3848294.082 9
  22642739.757     3935460.214 7   3066598.253 6
 91  3 17 18 31  0.0010000  0  3 18 14 15
  24508086.506    -2113998.447 4  -1647273.197 2
  21592132.379    -5009535.991 8  -3903528.615 9
  22657599.869     4013527.888 6   3127430.484 5
 91  3 17 18 31 30.0010000  0  3 18 14 15
  24494079.002    -2187629.955 4  -1704648.258 2
  21578714.567    -5080040.910 8  -3958467.452 9
  22672526.838     4091968.384 6   3188552.707 5
 91  3 17 18 32  0.0010000  0  3 18 14 15
  24480074.199    -2261173.040 4  -1761954.413 4
  21565369.905    -5150163.410 8  -4013108.300 9
  22687520.357     4170778.901 6   3249963.761 5
 91  3 17 18 32 30.0010000  0  3 18 14 15
  24466091.876    -2334627.890 4  -1819191.770 2
  21552098.993    -5219900.944 8  -4067449.182 9
  22702587.626     4249956.340 6   3311660.731 5
 91  3 17 18 33  0.0010000  0  3 18 14 15
  24452136.540    -2407994.879 4  -1876360.700 3
  21538901.529    -5289251.186 8  -4121488.259 9
  22717722.348     4329496.701 6   3373640.004 7
 91  3 17 18 33 30.0010000  0  3 18 14 15
  24438193.489    -2481268.732 5  -1933457.036 3
  21525778.712    -5358206.757 8  -4175219.807 9
  22732930.518     4409402.502 6   3435904.521 5
 91  3 17 18 34  0.0010000  0  3 18 14 15
  24424270.828    -2554449.434 5  -1990480.766 2
  21512732.946    -5426765.016 8  -4228641.757 9
  22748210.343     4489670.568 6   3498451.315 5
 91  3 17 18 34 30.0010000  0  3 18 14 15
  24410369.754    -2627539.284 5  -2047433.710 3
  21499765.122    -5494924.925 8  -4281753.302 9
  22763546.825     4570295.030 6   3561275.811 5
 91  3 17 18 35  0.0010000  0  3 18 14 15
  24396460.883    -2700542.589 5  -2104319.219 4
  21486869.551    -5562688.637 8  -4334556.121 9
  22778952.858     4651268.694 6   3624371.935 6
 91  3 17 18 35 30.0010000  0  3 18 14 15
  24382593.383    -2773467.977 5  -2161143.999 4
  21474047.127    -5630061.800 8  -4387054.617 9
  22794425.146     4732580.613 6   3687732.118 6
 91  3 17 18 36  0.0010000  0  3 18 14 15
  24368727.981    -2846312.548 5  -2217905.804 4
  21461303.547    -5697039.298 8  -4439244.804 9
  22809967.889     4814229.650 6   3751355.007 5
 91  3 17 18 36 30.0010000  0  3 18 14 15
  24354887.463    -2919071.783 5  -2274601.105 3
  21448634.318    -5763614.450 8  -4491121.472 9
  22825569.387     4896216.491 6   3815241.101 5
 91  3 17 18 37  0.0010000  0  3 18 14 15
  24341052.642    -2991749.921 5  -2331233.212 4
  21436040.640    -5829788.718 8  -4542685.767 9
  22841234.444     4978534.338 6   3879385.132 5
 91  3 17 18 37 30.0010000  0  3 18 14 15
  24327235.507    -3064346.554 5  -2387801.818 4
  21423525.204    -5895558.858 8  -4593935.155 9
  22856959.755     5061180.859 6   3943785.257 5
 91  3 17 18 38  0.0010000  0  3 18 14 15
  24313437.559    -3136858.694 5  -2444304.586 4
  21411087.714    -5960919.664 8  -4644865.585 9
  22872748.926     5144154.049 6   4008439.451 6
 91  3 17 18 38 30.0010000  0  3 18 14 15
  24299651.302    -3209291.943 5  -2500745.846 3
  21398727.869    -6025873.973 8  -4695479.260 9
  22888600.451     5227446.209 7   4073342.680 5
 91  3 17 18 39  0.0010000  0  3 18 14 15
  24285889.027    -3281645.338 5  -2557124.943 3
  21386445.673    -6090418.204 9  -4745773.406 9
  22904514.033     5311055.233 7   4138492.809 5
 91  3 17 18 39 30.0010000  0  3 18 14 15
  24272131.851    -3353917.100 5  -2613440.399 3
  21374242.618    -6154548.915 8  -4795745.321 9
  22920482.479     5394979.727 7   4203888.764 5
 91  3 17 18 40  0.0010000  0  3 18 14 15
  24258390.865    -3426110.625 5  -2669694.971 3
  21362117.216    -6218265.876 8  -4845394.838 9
  22936511.485     5479212.817 6   4269525.172 5
 91  3 17 18 40 30.0010000  0  3 18 14 15
  24244674.461    -3498228.436 5  -2725890.507 3
  21350068.556    -6281569.447 8  -4894722.229 9
  22952600.145     5563748.364 6   4335397.264 5
 91  3 17 18 41  0.0010000  0  3 18 14 15
  24230964.052    -3570270.812 5  -2782027.228 2
  21338103.238    -6344457.626 8  -4943725.945 9
  22968738.874     5648582.632 6   4401502.133 6
 91  3 17 18 41 30.0010000  0  3 18 14 15
  24217271.630    -3642238.705 5  -2838105.965 2
  21326214.968    -6406928.751 8  -4992404.683 9
  22984939.059     5733712.034 6   4467836.964 5
 91  3 17 18 42  0.0010000  0  3 18 14 15
  24203586.706    -3714130.108 5  -2894125.047 2
  21314408.242    -6468978.257 8  -5040754.885 9
  23001199.202     5819135.558 6   4534400.959 5
 91  3 17 18 42 30.0010000  0  3 18 14 15
  24189923.962    -3785945.692 5  -2950085.073 2
  21302681.260    -6530604.724 8  -5088775.447 9
  23017504.913     5904848.610 6   4601190.104 6
 91  3 17 18 43  0.0010000  0  3 18 14 15
  24176267.217    -3857687.197 5  -3005987.372 2
  21291033.723    -6591807.704 8  -5136466.023 9
  23033873.282     5990845.384 6   4668200.798 5
 91  3 17 18 43 30.0010000  0  3 18 14 15
  24162631.159    -3929351.190 5  -3061829.304 3
  21279468.631    -6652580.531 9  -5183821.414 9
  23050291.717     6077126.404 6   4735432.972 4
 91  3 17 18 44  0.0010000  0  3 18 14 15
  24149012.189    -4000939.560 5  -3117612.251 2
  21267984.782    -6712922.828 8  -5230841.335 9
  23066767.109     6163687.047 6   4802883.035 5
 91  3 17 18 44 30.0010000  0  3 18 14 15
  24135398.013    -4072455.177 5  -3173338.529 2
  21256584.572    -6772834.839 9  -5277525.972 9
  23083288.970     6250521.440 6   4870546.438 4
 91  3 17 18 45  0.0010000  0  3 18 14 15
  24121805.122    -4143896.354 5  -3229006.786 2
  21245265.908    -6832312.873 9  -5323872.443 9
  23099866.594     6337627.137 6   4938421.216 5
 91  3 17 18 45 30.0010000  0  3 18 14 15
  24108224.525    -4215260.460 5  -3284615.039 5
  21234030.886    -6891351.606 9  -5369876.611 9
  23116488.289     6425003.746 6   5006507.104 5
 91  3 17 18 46  0.0010000  0  3 18 14 15
  24094660.414    -4286546.118 5  -3340162.106 1
  21222880.105    -6949947.588 9  -5415535.761 9
  23133169.340     6512648.939 6   5074802.266 5
 91  3 17 18 46 30.0010000  0  3 18 14 15
  24081110.093    -4357748.146 5  -3395644.011 2
  21211815.965    -7008093.473 9  -5460844.206 9
  23149898.659     6600563.999 6   5143307.718 4
 91  3 17 18 47  0.0010000  0  3 18 14 15
  24067578.662    -4428869.418 5  -3451063.047 2
  21200837.265    -7065789.044 9  -5505801.751 9
  23166679.242     6688743.737 6   5212019.419 3
 91  3 17 18 47 30.0010000  0  3 18 14 15
  24054056.824    -4499918.184 5  -3506425.544 3
  21189942.509    -7123040.343 9  -5550413.119 9
  23183509.890     6777176.672 6   5280928.391 4
 91  3 17 18 48  0.0010000  0  3 18 14 15
  24040550.273    -4570896.687 5  -3561733.336 2
  21179130.791    -7179847.256 9  -5594678.218 9
  23200386.109     6865856.923 6   5350030.102 2
 91  3 17 18 48 30.0010000  0  3 18 14 15
  24027053.018    -4641797.959 5  -3616980.889 4
  21168407.518    -7236200.521 9  -5638589.820 9
  23217305.792     6954787.894 6   5419327.157 4
 91  3 17 18 49  0.0010000  0  3 18 14 15
  24013580.045    -4712627.498 5  -3672172.612 4
  21157770.581    -7292103.728 9  -5682150.738 9
  23234280.042     7043960.692 6   5488812.632 3
 91  3 17 18 49 30.0010000  0  3 18 14 15
  24000111.867    -4783382.030 5  -3727305.839 2
  21147218.784    -7347550.364 9  -5725355.878 9
  23251287.268     7133375.465 6   5558486.678 4
 91  3 17 18 50  0.0010000  0  3 18 14 15
  23986663.778    -4854068.676 5  -3782386.203 3
  21136753.631    -7402545.807 9  -5768209.432 9
  23268349.956     7223021.716 6   5628341.090 3
 91  3 17 18 50 30.0010000  0  3 18 14 15
  23973231.277    -4924680.146 5  -3837407.975 2
  21126376.614    -7457080.944 9  -5810704.313 9
  23285454.616     7312902.961 6   5698378.618 4
 91  3 17 18 51  0.0010000  0  3 18 14 15
  23959796.677    -4995220.367 6  -3892374.192 4
  21116086.238    -7511156.941 9  -5852841.418 9
  23302602.744     7403012.424 6   5768593.963 4
 91  3 17 18 51 30.0010000  0  3 18 14 15
  23946395.054    -5065684.784 6  -3947281.363 4
  21105885.199    -7564766.600 9  -5894615.150 9
  23319791.043     7493350.652 6   5838987.572 3
 91  3 17 18 52  0.0010000  0  3 18 14 15
  23932998.530    -5136077.960 6  -4002132.984 3
  21095771.402    -7617912.809 9  -5936027.741 9
  23337026.112     7583909.882 6   5909553.387 4
 91  3 17 18 52 30.0010000  0  3 18 14 15
  23919616.992    -5206401.550 6  -4056930.410 2
  21085746.640    -7670594.674 9  -5977078.506 9
  23354305.253     7674685.438 6   5980287.764 4
 91  3 17 18 53  0.0010000  0  3 18 14 15
  23906245.950    -5276652.681 6  -4111671.363 4
  21075809.722    -7722807.388 9  -6017763.707 9
  23371620.065     7765676.800 6   6051190.301 5
 91  3 17 18 53 30.0010000  0  3 18 14 15
  23892889.898    -5346840.944 6  -4166363.330 3
  21065963.638    -7774557.932 9  -6058088.765 9
  23388969.054     7856870.573 6   6122250.553 3
 91  3 17 18 54  0.0010000  0  3 18 14 15
  23879545.835    -5416959.427 6  -4221000.924 4
  21056204.193    -7825837.270 9  -6098046.656 9
  23406360.914     7948269.941 6   6193471.006 4
 91  3 17 18 54 30.0010000  0  3 18 14 15
  23866213.764    -5487012.986 6  -4275587.945 4
  21046535.586    -7876647.971 9  -6137639.376 9
  23423795.645     8039866.762 6   6264845.328 3
 91  3 17 18 55  0.0010000  0  3 18 14 15
  23852899.082    -5556999.183 6  -4330122.473 5
  21036957.816    -7926985.518 9  -6176863.404 9
  23441261.550     8131661.022 6   6336373.470 4
 91  3 17 18 55 30.0010000  0  3 18 14 15
  23839593.094    -5626922.175 6  -4384607.774 4
  21027468.785    -7976851.414 9  -6215719.914 9
  23458770.929     8223645.145 6   6408049.569 4
 91  3 17 18 56  0.0010000  0  3 18 14 15
  23826295.501    -5696783.246 6  -4439044.812 2
  21018067.593    -8026245.276 9  -6254208.599 9
  23476307.590     8315813.322 6   6479869.083 5
 91  3 17 18 56 30.0010000  0  3 18 14 15
  23813018.289    -5766582.034 6  -4493433.340 4
  21008758.138    -8075165.114 9  -6292327.922 9
  23493874.227     8408162.181 5   6551829.357 5
 91  3 17 18 57  0.0010000  0  3 18 14 15
  23799749.475    -5836318.146 6  -4547773.057 3
  20999540.719    -8123607.574 9  -6330075.263 9
  23511484.939     8500689.529 5   6623928.724 5
 91  3 17 18 57 30.0010000  0  3 18 14 15
  23786489.957    -5905986.500 5  -4602059.940 3
  20990415.337    -8171566.168 9  -6367445.559 9
  23529128.025     8593396.636 5   6696168.141 4
 91  3 17 18 58  0.0010000  0  3 18 14 15
  23773241.826    -5975595.870 5  -4656300.887 3
  20981379.592    -8219047.030 9  -6404443.605 9
  23546795.695     8686271.666 5   6768538.434 4
 91  3 17 18 58 30.0010000  0  3 18 14 15
  23760010.486    -6045138.824 5  -4710490.088 4
  20972436.783    -8266040.617 9  -6441061.946 9
  23564509.232     8779319.196 5   6841043.117 5
 91  3 17 18 59  0.0010000  0  3 18 14 15
  23746792.038    -6114617.123 5  -4764628.905 3
  20963586.910    -8312546.966 9  -6477300.639 9
  23582244.351     8872532.919 5   6913677.332 5
 91  3 17 18 59 30.0010000  0  3 18 14 15
  23733575.086    -6184039.635 5  -4818724.260 4
  20954828.475    -8358572.704 9  -6513164.815 9
  23600012.154     8965900.712 5   6986431.560 4
 91  3 17 19  0  0.0010000  0  3 18 14 15
  23720375.528    -6253401.946 5  -4872772.706 2
  20946163.574    -8404111.540 9  -6548649.584 9
  23617809.932     9059424.035 6   7059306.999 3
 91  3 17 19  0 30.0010000  0  3 18 14 15
  23707185.558    -6322704.378 5  -4926774.471 1
  20937588.908    -8449161.519 9  -6583753.444 9
  23635641.585     9153098.706 6   7132300.361 3
 91  3 17 19  1  0.0010000  0  3 18 14 15
  23694008.480    -6391948.344 5  -4980730.701 4
  20929110.179    -8493722.559 9  -6618476.302 9
  23653489.131     9246919.322 6   7205407.462 5
 91  3 17 19  1 30.0010000  0  3 18 14 15
  23680847.892    -6461128.335 5  -5034637.044 2
  20920724.385    -8537787.002 9  -6652812.204 9
  23671372.350     9340888.698 6   7278630.464 4
 91  3 17 19  2  0.0010000  0  3 18 14 15
  23667692.099    -6530250.687 5  -5088498.456 4
  20912433.625    -8581359.110 9  -6686764.470 9
  23689281.953     9434997.054 6   7351961.780 2
 91  3 17 19  2 30.0010000  0  3 18 14 15
  23654553.695    -6599318.534 5  -5142317.425 3
  20904236.398    -8624440.205 9  -6720334.125 9
  23707215.538     9529237.463 6   7425396.009 4
 91  3 17 19  3  0.0010000  0  3 18 14 15
  23641416.486    -6668330.632 5  -5196092.919 4
  20896130.310    -8667027.104 9  -6753518.699 9
  23725179.101     9623607.004 6   7498930.817 3
 91  3 17 19  3 30.0010000  0  3 18 14 15
  23628294.271    -6737288.057 5  -5249825.820 5
  20888122.553    -8709118.792 9  -6786317.385 9
  23743157.655     9718102.230 6   7572563.586 2
 91  3 17 19  4  0.0010000  0  3 18 14 15
  23615176.855    -6806195.529 5  -5303519.766 3
  20880205.333    -8750717.477 9  -6818731.921 9
  23761160.792     9812715.349 6   7646288.209 4
 91  3 17 19  4 30.0010000  0  3 18 14 15
  23602074.726    -6875050.962 6  -5357173.164 4
  20872384.948    -8791820.047 9  -6850759.875 9
  23779191.207     9907444.216 6   7720103.064 2
 91  3 17 19  5  0.0010000  0  3 18 14 15
  23588989.684    -6943853.118 6  -5410785.042 3
  20864657.197    -8832423.566 9  -6882398.947 9
  23797230.920    10002286.876 6   7794006.540 3
 91  3 17 19  5 30.0010000  0  3 18 14 15
  23575900.743    -7012603.889 6  -5464356.905 5
  20857025.680    -8872527.928 9  -6913649.079 9
  23815303.011    10097237.075 6   7867993.808 3
 91  3 17 19  6  0.0010000  0  3 18 14 15
  23562828.894    -7081303.579 6  -5517888.950 4
  20849492.199    -8912131.300 9  -6944508.818 9
  23833392.487    10192291.990 6   7942062.696 2
 91  3 17 19  6 30.0010000  0  3 18 14 15
  23549766.036    -7149950.650 6  -5571380.021 4
  20842048.948    -8951230.537 9  -6974975.734 9
  23851503.549    10287449.382 5   8016211.404 3
 91  3 17 19  7  0.0010000  0  3 18 14 15
  23536715.472    -7218544.554 6  -5624829.657 4
  20834704.932    -8989823.417 9  -7005048.090 9
  23869629.600    10382706.452 5   8090437.780 3
 91  3 17 19  7 30.0010000  0  3 18 14 15
  23523677.498    -7287083.014 6  -5678236.107 4
  20827459.249    -9027906.198 9  -7034722.964 9
  23887771.540    10478061.743 5   8164740.692 2
 91  3 17 19  8  0.0010000  0  3 18 14 15
  23510641.020    -7355565.804 6  -5731599.168 4
  20820307.700    -9065476.933 9  -7063998.846 9
  23905933.866    10573511.775 5   8239117.425 3
 91  3 17 19  8 30.0010000  0  3 18 14 15
  23497619.838    -7423992.280 6  -5784918.348 4
  20813258.680    -9102532.355 9  -7092873.181 9
  23924118.080    10669054.498 5   8313566.377 4
 91  3 17 19  9  0.0010000  0  3 18 14 15
  23484612.140    -7492363.115 6  -5838194.183 4
  20806302.897    -9139071.910 9  -7121345.532 9
  23942321.475    10764685.487 5   8388084.075 4
 91  3 17 19  9 30.0010000  0  3 18 14 15
  23471608.644    -7560671.681 6  -5891421.503 2
  20799450.838    -9175087.585 9  -7149409.685 9
  23960532.369    10860407.831 5   8462672.979 4
 91  3 17 19 10  0.0010000  0  3 18 14 15
  23458622.235    -7628915.630 6  -5944598.441 5
  20792696.517    -9210575.235 9  -7177062.381 9
  23978762.747    10956220.656 5   8537332.383 3
 91  3 17 19 10 30.0010000  0  3 18 14 15
  23445644.517    -7697097.854 6  -5997727.304 3
  20786045.620    -9245535.853 9  -7204304.405 9
  23997017.712    11052116.718 5   8612056.642 4
 91  3 17 19 11  0.0010000  0  3 18 14 15
  23432680.894    -7765220.860 6  -6050809.984 5
  20779491.859    -9279970.848 9  -7231136.854 9
  24015274.771    11148090.335 5   8686841.340 3
 91  3 17 19 11 30.0010000  0  3 18 14 15
  23419730.460    -7833287.453 6  -6103848.740 3
  20773038.825    -9313881.694 9  -7257560.872 9
  24033557.613    11244134.763 5   8761681.237 3
 91  3 17 19 12  0.0010000  0  3 18 14 15
  23406785.718    -7901301.537 6  -6156846.537 5
  20766685.022    -9347269.736 9  -7283577.517 9
  24051842.558    11340243.804 5   8836571.452 5
 91  3 17 19 12 30.0010000  0  3 18 14 15
  23393854.173    -7969264.342 6  -6209804.393 5
  20760430.454    -9380135.035 9  -7309186.828 9
  24070146.684    11436412.052 5   8911507.817 4
 91  3 17 19 13  0.0010000  0  3 18 14 15
  23380935.515    -8037176.433 6  -6262722.715 4
  20754276.015    -9412477.061 9  -7334388.389 9
  24088458.009    11532635.174 6   8986486.935 4
 91  3 17 19 13 30.0010000  0  3 18 14 15
  23368019.859    -8105033.012 6  -6315597.801 5
  20748222.303    -9444289.558 9  -7359177.337 9
  24106776.227    11628915.237 6   9061510.391 3
 91  3 17 19 14  0.0010000  0  3 18 14 15
  23355116.190    -8172841.742 6  -6368435.570 4
  20742269.327    -9475578.393 9  -7383558.235 9
  24125107.336    11725241.491 6   9136569.890 4
 91  3 17 19 14 30.0010000  0  3 18 14 15
  23342216.719    -8240599.593 6  -6421233.716 4
  20736415.578    -9506339.164 9  -7407527.653 9
  24143445.342    11821612.326 6   9211664.112 4
 91  3 17 19 15  0.0010000  0  3 18 14 15
  23329338.833    -8308305.551 6  -6473991.413 4
  20730663.161    -9536569.408 9  -7431083.675 9
  24161791.738    11918025.473 6   9286791.295 3
 91  3 17 19 15 30.0010000  0  3 18 14 15
  23316463.648    -8375961.973 6  -6526710.530 4
  20725010.573    -9566270.308 9  -7454227.228 9
  24180143.835    12014475.099 6   9361946.900 4
 91  3 17 19 16  0.0010000  0  3 18 14 15
  23303595.958    -8443564.722 6  -6579387.818 5
  20719460.514    -9595436.005 9  -7476953.732 9
  24198513.618    12110962.415 5   9437131.860 2
 91  3 17 19 16 30.0010000  0  3 18 14 15
  23290741.155    -8511114.164 6  -6632023.572 5
  20714012.089    -9624065.740 8  -7499262.609 9
  24216878.306    12207482.856 5   9512342.642 3
 91  3 17 19 17  0.0010000  0  3 18 14 15
  23277898.645    -8578611.769 6  -6684618.920 3
  20708666.189    -9652159.511 8  -7521153.849 9
  24235245.986    12304031.848 5   9587575.653 2
 91  3 17 19 17 30.0010000  0  3 18 14 15
  23265064.529    -8646051.490 6  -6737169.169 5
  20703422.521    -9679710.270 9  -7542621.968 9
  24253621.768    12400611.900 5   9662832.880 2
 91  3 17 19 18  0.0010000  0  3 18 14 15
  23252245.704    -8713433.577 6  -6789674.541 5
  20698283.776    -9706716.932 8  -7563666.118 9
  24272016.431    12497219.468 5   9738111.553 3
 91  3 17 19 18 30.0010000  0  3 18 14 15
  23239430.779    -8780752.539 6  -6842130.695 4
  20693250.562    -9733172.381 8  -7584280.742 9
  24290402.704    12593856.403 5   9813413.100 3
 91  3 17 19 19  0.0010000  0  3 18 14 15
  23226632.938    -8848005.447 6  -6894535.405 3
  20688323.471    -9759072.597 8  -7604462.724 9
  24308789.877    12690521.310 5   9888736.449 2
 91  3 17 19 19 30.0010000  0  3 18 14 15
  23213850.387    -8915195.406 6  -6946891.033 4
  20683498.311    -9784420.039 9  -7624213.983 9
  24327198.932    12787207.905 5   9964076.684 4
 91  3 17 19 20  0.0010000  0  4 18 14 19 15
  23201074.132    -8982322.368 6  -6999197.618 4
  20678778.979    -9809213.057 9  -7643533.210 9
  24425299.715     -189074.25615   -147343.354 3
  24345609.186    12883913.576 5  10039431.778 2
 91  3 17 19 20 30.0010000  0  4 18 14 19 15
  23188312.264    -9049384.866 6  -7051453.946 4
  20674166.371    -9833449.440 8  -7662418.699 9
  24408760.765     -275996.588 5   -215075.278 2
  24364009.546    12980635.931 5  10114799.886 1
 91  3 17 19 21  0.0010000  0  4 18 14 19 15
  23175564.792    -9116383.358 6  -7103660.422 5
  20669661.689    -9857128.270 8  -7680869.741 9
  24392261.091     -362704.878 5   -282639.918 2
  24382415.905    13077370.634 5  10190177.588 3
 91  3 17 19 21 30.0010000  0  4 18 14 19 15
  23162825.710    -9183319.701 6  -7155818.469 5
  20665263.135    -9880250.325 8  -7698886.928 9
  24375799.485     -449199.925 5   -350038.394 4
  24400829.157    13174112.288 5  10265560.742 2
 91  3 17 19 22  0.0010000  0  4 18 14 19 15
  23150099.821    -9250194.264 6  -7207928.366 4
  20660967.411    -9902814.996 8  -7716469.781 9
  24359388.847     -535481.662 5   -417271.144 3
  24419236.113    13270857.495 5  10340946.662 2
 91  3 17 19 22 30.0010000  0  4 18 14 19 15
  23137388.921    -9317005.498 6  -7259988.932 4
  20656781.409    -9924819.500 8  -7733616.153 9
  24343000.392     -621547.894 5   -484335.959 2
  24437646.970    13367604.594 5  10416334.017 2
 91  3 17 19 23  0.0010000  0  4 18 14 19 15
  23124688.212    -9383752.953 6  -7311999.773 2
  20652700.933    -9946262.462 8  -7750324.960 9
  24326665.300     -707398.382 5   -551232.181 1
  24456053.329    13464350.093 5  10491720.169 2
 91  3 17 19 23 30.0010000  0  4 18 14 19 15
  23111995.900    -9450435.921 6  -7363960.382 5
  20648726.584    -9967142.246 8  -7766594.916 9
  24310378.174     -793031.966 4   -617959.892 2
  24474462.680    13561091.300 5  10567102.937 4
 91  3 17 19 24  0.0010000  0  4 18 14 19 15
  23099318.575    -9517055.413 6  -7415871.511 4
  20644862.260    -9987458.916 8  -7782426.087 9
  24294113.537     -878448.849 4   -684518.694 2
  24492875.037    13657823.202 5  10642478.442 1
 91  3 17 19 24 30.0010000  0  4 18 14 19 15
  23086652.945    -9583609.474 6  -7467731.668 5
  20641102.864   -10007209.292 8  -7797815.993 9
  24277904.658     -963646.686 4   -750906.815 2
  24511283.194    13754544.521 5  10717845.753 3
 91  3 17 19 25  0.0010000  0  4 18 14 19 15
  23073998.104    -9650101.140 6  -7519543.199 4
  20637451.388   -10026395.846 8  -7812766.544 9
  24261726.055    -1048628.280 3   -817126.478 2
  24529679.357    13851248.808 5  10793199.745 2
 91  3 17 19 25 30.0010000  0  4 18 14 19 15
  23061360.054    -9716525.897 6  -7571302.592 4
  20633909.343   -10045013.751 8  -7827274.005 9
  24245612.812    -1133389.068 3   -883174.032 2
  24548080.616    13947936.985 5  10868541.189 2
 91  3 17 19 26  0.0010000  0  3 18 14 15
  23048730.995    -9782884.782 6  -7623010.658 5
  20630473.421   -10063061.830 8  -7841337.436 9
  24566476.784    14044605.144 5  10943867.043 2
 91  3 17 19 26 30.0010000  0  3 18 14 15
  23036118.126    -9849179.219 6  -7674668.497 5
  20627148.121   -10080541.166 8  -7854957.688 9
  24584870.247    14141247.984 5  11019173.177 2
 91  3 17 19 27  0.0010000  0  3 18 14 15
  23023510.056    -9915410.330 6  -7726277.002 4
  20623930.152   -10097453.123 8  -7868135.829 9
  24603253.820    14237859.925 5  11094455.241 2
 91  3 17 19 27 30.0010000  0  3 18 14 15
  23010918.171    -9981582.345 6  -7777839.459 4
  20620817.404   -10113800.570 8  -7880874.089 9
  24621627.504    14334434.095 5  11169707.845 2
 91  3 17 19 28  0.0010000  0  3 18 14 15
  22998342.178   -10047687.137 6  -7829349.533 4
  20617814.684   -10129574.896 8  -7893165.753 9
  24640001.182    14430975.314 5  11244934.743 2
 91  3 17 19 28 30.0010000  0  3 18 14 15
  22985773.978   -10113721.496 6  -7880804.718 4
  20614924.684   -10144771.613 8  -7905007.345 9
  24658362.572    14527483.443 5  11320135.914 2
 91  3 17 19 29  0.0010000  0  3 18 14 15
  22973221.072   -10179690.098 6  -7932208.684 5
  20612144.707   -10159394.933 8  -7916402.119 9
  24676726.959    14623950.308 5  11395304.913 2
 91  3 17 19 29 30.0010000  0  3 18 14 15
  22960680.752   -10245596.803 6  -7983564.421 5
  20609468.162   -10173448.183 8  -7927352.687 9
  24695073.058    14720368.063 5  11470435.599 2
 91  3 17 19 30  0.0010000  0  3 18 14 15
  22948151.225   -10311440.829 6  -8034871.319 4
  20606903.137   -10186930.141 8  -7937858.096 9
  24713415.858    14816733.566 5  11545525.576 3
 91  3 17 19 30 30.0010000  0  4 18 14 19 15
  22935631.894   -10377225.248 6  -8086131.783 4
  20604446.338   -10199843.203 8  -7947920.200 9
  24086605.891      -30254.66214    -23588.350 5
  24731740.074    14913040.960 5  11620570.264 4
 91  3 17 19 31  0.0010000  0  4 18 14 19 15
  22923126.348   -10442950.121 6  -8137345.848 4
  20602098.966   -10212186.397 8  -7957538.264 9
  24070934.837     -112603.753 4    -87756.222 3
  24750051.395    15009287.276 5  11695567.398 2
 91  3 17 19 31 30.0010000  0  4 18 14 19 15
  22910628.000   -10508615.105 6  -8188513.241 5
  20599857.114   -10223959.800 8  -7966712.328 9
  24055303.359     -194736.881 5   -151755.847 3
  24768346.531    15105468.309 4  11770513.621 3
 91  3 17 19 32  0.0010000  0  4 18 14 19 15
  22898141.349   -10574216.135 6  -8239630.803 5
  20597727.089   -10235158.801 8  -7975438.810 9
  24039712.353     -276649.544 5   -215583.675 5
  24786647.660    15201584.664 5  11845409.445 4
 91  3 17 19 32 30.0010000  0  4 18 14 19 15
  22885671.179   -10639756.817 6  -8290701.343 4
  20595704.390   -10245785.482 8  -7983719.333 9
  24024166.316     -358344.632 5   -279241.974 4
  24804930.502    15297630.145 5  11920250.049 4
 91  3 17 19 33  0.0010000  0  4 18 14 19 15
  22873211.806   -10705239.458 6  -8341726.647 5
  20593787.519   -10255842.627 8  -7991556.056 9
  24008666.745     -439824.854 5   -342732.872 3
  24823190.562    15393598.289 5  11995030.386 3
 91  3 17 19 33 30.0010000  0  4 18 14 19 15
  22860760.823   -10770664.877 6  -8392707.363 5
  20591985.164   -10265330.224 8  -7998948.983 9
  23993207.348     -521090.399 5   -406056.491 4
  24841438.931    15489485.183 5  12069747.411 4
 91  3 17 19 34  0.0010000  0  4 18 14 19 15
  22848324.532   -10836026.470 7  -8443638.356 5
  20590286.543   -10274241.353 8  -8005892.720 9
  23977777.630     -602134.913 5   -469207.881 2
  24859670.208    15585293.958 5  12144403.563 4
 91  3 17 19 34 30.0010000  0  4 18 14 19 15
  22835899.637   -10901325.032 7  -8494520.231 5
  20588702.739   -10282577.224 8  -8012388.201 9
  23962401.576     -682959.475 5   -532187.891 4
  24877882.599    15681020.245 5  12218995.461 3
 91  3 17 19 35  0.0010000  0  3 18 14 19
  22823484.928   -10966561.756 7  -8545353.925 6
  20587226.259   -10290338.164 8  -8018435.699 9
  23947053.398     -763565.419 5   -594997.578 3
 91  3 17 19 35 30.0010000  0  3 18 14 19
  22811081.615   -11031735.514 7  -8596138.556 5
  20585858.907   -10297522.941 8  -8024034.237 9
  23931762.488     -843951.243 5   -657635.721 3
 91  3 17 19 36  0.0010000  0  3 18 14 19
  22798689.395   -11096844.556 7  -8646872.765 5
  20584602.178   -10304129.363 8  -8029182.109 9
  23916520.739     -924115.113 5   -720100.938 5
 91  3 17 19 36 30.0010000  0  3 18 14 19
  22786312.165   -11161885.257 7  -8697553.712 6
  20583454.870   -10310153.121 8  -8033875.963 9
  23901287.982    -1004052.935 5   -782389.988 4
 91  3 17 19 37  0.0010000  0  3 18 14 19
  22773951.421   -11226860.756 7  -8748183.851 6
  20582416.390   -10315597.892 8  -8038118.672 9
  23886115.488    -1083768.598 5   -844505.941 4
 91  3 17 19 37 30.0010000  0  3 18 14 19
  22761599.075   -11291773.033 7  -8798764.732 6
  20581490.333   -10320465.632 8  -8041911.742 9
  23870998.151    -1163264.395 5   -906450.553 3
 91  3 17 19 38  0.0010000  0  3 18 14 19
  22749259.014   -11356612.717 7  -8849289.047 5
  20580677.593   -10324747.006 8  -8045247.904 9
  23855914.392    -1242531.207 5   -968216.736 4
 91  3 17 19 38 30.0010000  0  3 18 14 19
  22736934.549   -11421381.992 7  -8899758.502 6
  20579973.682   -10328443.979 8  -8048128.700 9
  23840874.704    -1321570.608 5  -1029805.698 4
 91  3 17 19 39  0.0010000  0  4 18 14 19 15
  22724620.572   -11486078.286 7  -8950171.076 6
  20579383.088   -10331553.553 8  -8050551.779 9
  23825873.393    -1400379.492 5  -1091215.042 4
  25041041.048       53734.68615     41889.338 1
 91  3 17 19 39 30.0010000  0  4 18 14 19 15
  22712323.386   -11550702.300 7  -9000527.334 6
  20578902.221   -10334076.460 8  -8052517.721 9
  23810926.339    -1478959.888 5  -1152446.321 4
  25059057.377      148487.013 4    115722.333 2
 91  3 17 19 40  0.0010000  0  4 18 14 19 15
  22700042.686   -11615251.238 7  -9050825.097 6
  20578536.177   -10336010.595 8  -8054024.876 9
  23796018.260    -1557308.991 5  -1213497.353 3
  25077074.902      243130.589 5    189470.632 1
 91  3 17 19 40 30.0010000  0  4 18 14 19 15
  22687772.181   -11679726.044 7  -9101065.100 6
  20578275.955   -10337356.768 8  -8055073.870 9
  23781161.446    -1635428.177 5  -1274369.227 2
  25095066.045      337660.935 5    263130.612 3
 91  3 17 19 41  0.0010000  0  4 18 14 19 15
  22675516.968   -11744128.126 7  -9151248.419 6
  20578133.853   -10338115.064 8  -8055664.798 9
  23766328.015    -1713317.794 5  -1335062.220 4
  25113029.313      432073.649 5    336698.904 2
 91  3 17 19 41 30.0010000  0  4 18 14 19 15
  22663274.340   -11808451.500 7  -9201370.403 5
  20578100.279   -10338281.206 8  -8055794.363 9
  23751550.643    -1790972.794 5  -1395572.362 2
  25130972.189      526370.902 5    410177.290
 91  3 17 19 42  0.0010000  0  4 18 14 19 15
  22651051.505   -11872697.209 7  -9251431.855 6
  20578183.918   -10337856.214 8  -8055463.201 9
  23736814.344    -1868394.464 5  -1455900.699 2
  25148894.684      620548.250 5    483562.214 2
 91  3 17 19 42 30.0010000  0  3 18 14 19
  22638840.357   -11936861.470 7  -9301429.843 5
  20578380.285   -10336835.810 8  -8054668.127 9
  23722124.816    -1945578.822 5  -1516044.117 3
 91  3 17 19 43  0.0010000  0  3 18 14 19
  22626646.900   -12000945.320 7  -9351365.182 5
  20578686.371   -10335221.725 8  -8053410.445 9
  23707491.046    -2022528.036 5  -1576004.790 4
 91  3 17 19 43 30.0010000  0  3 18 14 19
  22614467.228   -12064945.697 7  -9401235.459 5
  20579104.282   -10333010.840 8  -8051687.713 9
  23692883.957    -2099238.774 5  -1635779.619 2
 91  3 17 19 44  0.0010000  0  3 18 14 19
  22602304.950   -12128858.294 7  -9451037.338 6
  20579639.410   -10330199.760 8  -8049497.299 9
  23678332.033    -2175707.150 5  -1695365.621 4
 91  3 17 19 44 30.0010000  0  3 18 14 19
  22590158.857   -12192688.364 7  -9500774.902 6
  20580288.763   -10326793.782 8  -8046843.339 9
  23663819.381    -2251938.537 5  -1754766.483 3
 91  3 17 19 45  0.0010000  0  3 18 14 19
  22578025.956   -12256437.817 7  -9550449.664 5
  20581049.937   -10322795.384 8  -8043727.742 9
  23649361.587    -2327935.550 5  -1813985.154 2
 91  3 17 19 45 30.0010000  0  3 18 14 19
  22565911.644   -12320104.238 7  -9600059.726 6
  20581923.530   -10318202.491 8  -8040148.907 9
  23634951.163    -2403695.569 5  -1873018.691 3
 91  3 17 19 46  0.0010000  0  3 18 14 19
  22553811.720   -12383687.635 7  -9649605.076 5
  20582912.246   -10313015.038 8  -8036106.786 9
  23620578.814    -2479219.323 5  -1931868.102 3
 91  3 17 19 46 30.0010000  0  3 18 14 19
  22541728.286   -12447186.267 7  -9699084.389 5
  20584010.384   -10307231.422 8  -8031600.127 9
  23606254.729    -2554505.492 5  -1990532.403 3
 91  3 17 19 47  0.0010000  0  3 18 14 19
  22529660.740   -12510597.079 7  -9748495.272 5
  20585224.247   -10300850.165 8  -8026627.766 9
  23591974.116    -2629551.482 5  -2049009.548 2
 91  3 17 19 47 30.0010000  0  3 18 14 19
  22517610.283   -12573922.532 7  -9797839.637 5
  20586553.828   -10293874.261 8  -8021192.041 9
  23577740.868    -2704359.973 5  -2107301.649 4
 91  3 17 19 48  0.0010000  0  3 18 14 19
  22505576.015   -12637160.024 7  -9847115.475 5
  20587994.330   -10286300.789 8  -8015290.688 9
  23563538.201    -2778928.675 5  -2165406.883 4
 91  3 17 19 48 30.0010000  0  3 18 14 19
  22493560.633   -12700305.568 7  -9896319.662 6
  20589550.252   -10278126.785 8  -8008921.385 9
  23549407.486    -2853254.090 5  -2223322.576 3
 91  3 17 19 49  0.0010000  0  3 18 14 19
  22481556.942   -12763360.484 7  -9945453.249 6
  20591218.297   -10269353.933 8  -8002085.447 9
  23535301.049    -2927337.872 5  -2281049.977 4
 91  3 17 19 49 30.0010000  0  3 18 14 19
  22469578.437   -12826323.479 7  -9994515.193 6
  20593003.860   -10259981.878 8  -7994782.599 9
  23521247.978    -3001179.382 5  -2338588.618 4
 91  3 17 19 50  0.0010000  0  3 18 14 19
  22457614.916   -12889195.993 7 -10043506.644 7
  20594901.846   -10250012.926 8  -7987014.642 9
  23507238.677    -3074780.719 5  -2395940.089 4
 91  3 17 19 50 30.0010000  0  3 18 14 19
  22445659.493   -12952026.851 7 -10092465.644 6
  20596901.462   -10239496.433 8  -7978820.019 9
  23493275.842    -3148191.017 5  -2453142.710 3
 91  3 17 19 51  0.0010000  0  3 18 14 19
  22433719.657   -13014761.957 7 -10141350.024 7
  20599015.599   -10228379.329 8  -7970157.388 9
  23479347.187    -3221356.166 5  -2510154.325 5
 91  3 17 19 51 30.0010000  0  3 18 14 19
  22421799.012   -13077399.576 7 -10190158.431 7
  20601246.954   -10216660.305 8  -7961025.729 9
  23465469.195    -3294275.358 5  -2566974.295 5
 91  3 17 19 52  0.0010000  0  3 18 14 19
  22409899.351   -13139942.920 7 -10238893.389 7
  20603591.029   -10204343.192 8  -7951428.031 9
  23451648.762    -3366951.876 5  -2623605.154 3
 91  3 17 19 52 30.0010000  0  3 18 14 19
  22398013.179   -13202396.165 7 -10287558.136 6
  20606049.630   -10191433.427 8  -7941368.514 9
  23437862.806    -3439391.284 5  -2680051.253 4
 91  3 17 19 53  0.0010000  0  3 18 14 19
  22386152.488   -13264741.717 7 -10336138.966 6
  20608617.953   -10177914.541 8  -7930834.359 9
  23424126.614    -3511576.341 5  -2736299.150 3
 91  3 17 19 53 30.0010000  0  3 18 14 19
  22374304.693   -13326990.437 7 -10384644.355 6
  20611306.791   -10163797.888 8  -7919834.420 9
  23410430.597    -3583518.377 5  -2792357.695 3
 91  3 17 19 54  0.0010000  0  3 18 14 19
  22362479.379   -13389140.217 7 -10433072.652 6
  20614106.251   -10149082.804 8  -7908368.173 9
  23396790.940    -3655216.040 5  -2848225.782 2
 91  3 17 19 54 30.0010000  0  3 18 14 19
  22350669.953   -13451190.791 7 -10481423.647 6
  20617019.936   -10133770.158 8  -7896436.281 9
  23383192.954    -3726669.866 5  -2903903.858 2
 91  3 17 19 55  0.0010000  0  3 18 14 19
  22338878.518   -13513145.119 7 -10529699.639 6
  20620048.439   -10117863.253 8  -7884041.346 9
  23369645.032    -3797883.058 5  -2959394.445 4
 91  3 17 19 55 30.0010000  0  3 18 14 19
  22327108.965   -13574999.892 7 -10577898.058 6
  20623190.564   -10101360.302 8  -7871181.945 9
  23356135.183    -3868852.934 5  -3014695.405 4
 91  3 17 19 56  0.0010000  0  3 18 14 19
  22315356.802   -13636755.148 7 -10626018.923 7
  20626441.810   -10084262.418 8  -7857858.967 9
  23342679.599    -3939580.453 5  -3069807.529 4
 91  3 17 19 56 30.0010000  0  3 18 14 19
  22303627.420   -13698406.908 7 -10674059.144 6
  20629808.782   -10066566.826 8  -7844070.246 9
  23329256.691    -4010062.272 5  -3124728.180 3
 91  3 17 19 57  0.0010000  0  3 18 14 19
  22291916.326   -13759952.442 7 -10722016.601 7
  20633291.470   -10048271.788 8  -7829814.432 9
  23315901.237    -4080296.486 5  -3179455.921 4
 91  3 17 19 57 30.0010000  0  3 18 14 19
  22280224.423   -13821387.032 7 -10769887.612 7
  20636885.381   -10029374.153 8  -7815089.089 9
  23302583.257    -4150279.637 5  -3233987.989 5
 91  3 17 19 58  0.0010000  0  3 18 14 19
  22268555.602   -13882710.285 7 -10817671.859 7
  20640598.011   -10009874.602 8  -7799894.652 9
  23289312.043    -4220011.365 5  -3288324.167 3
 91  3 17 19 58 30.0010000  0  3 18 14 19
  22256905.666   -13943923.122 7 -10865370.070 7
  20644421.864    -9989775.076 8  -7784232.742 9
  23276086.999    -4289493.285 5  -3342465.704 4
 91  3 17 19 59  0.0010000  0  3 18 14 19
  22245279.415   -14005023.412 7 -10912980.578 7
  20648361.138    -9969074.814 8  -7768102.724 9
  23262911.120    -4358723.957 5  -3396411.453 4
 91  3 17 19 59 30.0010000  0  3 18 14 19
  22233673.550   -14066007.501 7 -10960500.542 7
  20652414.932    -9947771.889 8  -7751503.101 9
  23249786.209    -4427701.036 5  -3450159.603 3
 91  3 17 20  0  0.0010000  0  3 18 14 19
  22222091.967   -14126876.762 7 -11007931.032 8
  20656580.845    -9925868.626 8  -7734435.672 9
  23236711.961    -4496426.131 5  -3503711.408 4
 91  3 17 20  0 30.0010000  0  3 18 14 19
  22210529.269   -14187630.769 7 -11055271.699 8
  20660865.780    -9903366.157 8  -7716901.354 9
  23223682.381    -4564899.694 5  -3557067.225 5
 91  3 17 20  1  0.0010000  0  3 18 14 19
  22198989.659   -14248272.004 7 -11102524.494 7
  20665263.135    -9880269.006 8  -7698903.646 9
  23210692.670    -4633125.828 5  -3610230.253 4
 91  3 17 20  1 30.0010000  0  3 18 14 19
  22187471.032   -14308797.861 7 -11149687.381 7
  20669768.716    -9856576.331 8  -7680441.890 9
  23197759.327    -4701102.630 5  -3663199.001 4
 91  3 17 20  2  0.0010000  0  3 18 14 19
  22175976.390   -14369207.197 7 -11196759.491 8
  20674390.319    -9832286.990 8  -7661515.191 9
  23184871.548    -4768829.275 5  -3715972.819 5
 91  3 17 20  2 30.0010000  0  3 18 14 19
  22164504.233   -14429499.194 7 -11243740.147 7
  20679127.036    -9807402.282 8  -7642124.576 9
  23172033.235    -4836305.778 5  -3768551.742 5
 91  3 17 20  3  0.0010000  0  3 18 14 19
  22153054.560   -14489671.016 7 -11290627.171 7
  20683975.584    -9781921.298 8  -7622269.332 9
  23159244.088    -4903530.705 5  -3820934.629 4
 91  3 17 20  3 30.0010000  0  3 18 14 19
  22141625.872   -14549724.142 7 -11337421.717 7
  20688937.745    -9755847.323 8  -7601952.017 9
  23146497.214    -4970506.331 5  -3873123.273 4
 91  3 17 20  4  0.0010000  0  3 18 14 19
  22130219.969   -14609657.745 7 -11384123.113 7
  20694012.334    -9729181.058 8  -7581173.181 9
  23133795.306    -5037233.288 5  -3925118.156 3
